[[{"header":{"parameterUnit":"m.s-1","parameterCategory":1,"la1":30.6,"la2":28.766,"lo1":-90.7593,"lo2":-88.6598,"dy":0.0162,"dx":0.0183,"nx":116,"ny":114,"refTime":"2024-06-03T06:00:00:Z","depth":0,"parameterNumber":2,"parameterNumberName":"U-component_of_WINDS"},"data":[0.0,0.0,0.0,0.0,0.0,0.0,0.0,0.0,0.0,0.0,0.0,0.0,0.0,0.0,0.0,0.0,0.0,0.0,0.0,0.0,0.0,0.0,0.0,0.0,0.0,0.0,0.0,0.0,0.0,0.0,0.0,0.0,0.0,0.0,0.0,0.0,0.0,0.0,0.0,0.0,0.0,0.0,0.0,0.0,0.0,0.0,0.0,0.0,0.0,0.0,0.0,0.0,0.0,0.0,0.0,0.0,0.0,0.0,0.0,0.0,0.0,0.0,0.0,0.0,0.0,0.0,0.0,0.0,0.0,0.0,0.0,0.0,0.0,0.0,0.0,0.0,0.0,0.0,0.0,0.0,0.0,0.0,0.0,0.0,0.0,0.0,0.0,0.0,0.0,0.0,0.0,0.0,0.0,0.0,0.0,0.0,0.0,0.0,0.0,0.0,0.0,0.0,0.0,0.0,0.0,0.0,0.0,0.0,0.0,0.0,0.0,0.0,0.0,0.0,0.0,0.0,0.0,0.0,0.0,0.0,0.0,0.0,0.0,0.0,0.0,0.0,0.0,0.0,0.0,0.0,0.0,0.0,0.0,0.0,0.0,0.0,0.0,0.0,0.0,0.0,0.0,0.0,0.0,0.0,0.0,0.0,0.0,0.0,0.0,0.0,0.0,0.0,0.0,0.0,0.0,0.0,0.0,0.0,0.0,0.0,0.0,0.0,0.0,0.0,0.0,0.0,0.0,0.0,0.0,0.0,0.0,0.0,0.0,0.0,0.0,0.0,0.0,0.0,0.0,0.0,0.0,0.0,0.0,0.0,0.0,0.0,0.0,0.0,0.0,0.0,0.0,0.0,0.0,0.0,0.0,0.0,0.0,0.0,0.0,0.0,0.0,0.0,0.0,0.0,0.0,0.0,0.0,0.0,0.0,0.0,0.0,0.0,0.0,0.0,0.0,0.0,0.0,0.0,0.0,0.0,0.0,0.0,0.0,0.0,0.0,0.0,0.0,0.0,0.0,0.0,0.0,0.0,0.0,0.0,0.0,0.0,0.0,0.0,0.0,0.0,0.0,0.0,0.0,0.0,0.0,0.0,0.0,0.0,0.0,0.0,0.0,0.0,0.0,0.0,0.0,0.0,0.0,0.0,0.0,0.0,0.0,0.0,0.0,0.0,0.0,0.0,0.0,0.0,0.0,0.0,0.0,0.0,0.0,0.0,0.0,0.0,0.0,0.0,0.0,0.0,0.0,0.0,0.0,0.0,0.0,0.0,0.0,0.0,0.0,0.0,0.0,0.0,0.0,0.0,0.0,0.0,0.0,0.0,0.0,0.0,0.0,0.0,0.0,0.0,0.0,0.0,0.0,0.0,0.0,0.0,0.0,0.0,0.0,0.0,0.0,0.0,0.0,0.0,0.0,0.0,0.0,0.0,0.0,0.0,0.0,0.0,0.0,0.0,0.0,0.0,0.0,0.0,0.0,0.0,0.0,0.0,0.0,0.0,0.0,0.0,0.0,0.0,0.0,0.0,0.0,0.0,0.0,0.0,0.0,0.0,0.0,0.0,0.0,0.0,0.0,0.0,0.0,0.0,0.0,0.0,0.0,0.0,0.0,0.0,0.0,0.0,0.0,0.0,0.0,0.0,0.0,0.0,0.0,0.0,0.0,0.0,0.0,0.0,0.0,0.0,0.0,0.0,0.0,0.0,0.0,0.0,0.0,0.0,0.0,0.0,0.0,0.0,0.0,0.0,0.0,0.0,0.0,0.0,0.0,0.0,0.0,0.0,0.0,0.0,0.0,0.0,0.0,0.0,0.0,0.0,0.0,0.0,0.0,0.0,0.0,0.0,0.0,0.0,0.0,0.0,0.0,0.0,0.0,0.0,0.0,0.0,0.0,0.0,0.0,0.0,0.0,0.0,0.0,0.0,0.0,0.0,0.0,0.0,0.0,0.0,0.0,0.0,0.0,0.0,0.0,0.0,0.0,0.0,0.0,0.0,0.0,0.0,0.0,0.0,0.0,0.0,0.0,0.0,0.0,0.0,0.0,0.0,0.0,0.0,0.0,0.0,0.0,0.0,0.0,0.0,0.0,0.0,0.0,0.0,0.0,0.0,0.0,0.0,0.0,0.0,0.0,0.0,0.0,0.0,0.0,0.0,0.0,0.0,0.0,0.0,0.0,0.0,0.0,0.0,0.0,0.0,0.0,0.0,0.0,0.0,0.0,0.0,0.0,0.0,0.0,0.0,0.0,0.0,0.0,0.0,0.0,0.0,0.0,0.0,0.0,0.0,0.0,0.0,0.0,0.0,0.0,0.0,0.0,0.0,0.0,0.0,0.0,0.0,0.0,0.0,0.0,0.0,0.0,0.0,0.0,0.0,0.0,0.0,0.0,0.0,0.0,0.0,0.0,0.0,0.0,0.0,0.0,0.0,0.0,0.0,0.0,0.0,0.0,0.0,0.0,0.0,0.0,0.0,0.0,0.0,0.0,0.0,0.0,0.0,0.0,0.0,0.0,0.0,0.0,0.0,0.0,0.0,0.0,0.0,0.0,0.0,0.0,0.0,0.0,0.0,0.0,0.0,0.0,0.0,0.0,0.0,0.0,0.0,0.0,0.0,0.0,0.0,0.0,0.0,0.0,0.0,0.0,0.0,0.0,0.0,0.0,0.0,0.0,0.0,0.0,0.0,0.0,0.0,0.0,0.0,0.0,0.0,0.0,0.0,0.0,0.0,0.0,0.0,0.0,0.0,0.0,0.0,0.0,0.0,0.0,0.0,0.0,0.0,0.0,0.0,0.0,0.0,0.0,0.0,0.0,0.0,0.0,0.0,0.0,0.0,0.0,0.0,0.0,0.0,0.0,0.0,0.0,0.0,0.0,0.0,0.0,0.0,0.0,0.0,0.0,0.0,0.0,0.0,0.0,0.0,0.0,0.0,0.0,0.0,0.0,0.0,0.0,0.0,0.0,0.0,0.0,0.0,0.0,0.0,0.0,0.0,0.0,0.0,0.0,0.0,0.0,0.0,0.0,0.0,0.0,0.0,0.0,0.0,0.0,0.0,0.0,0.0,0.0,0.0,0.0,0.0,0.0,0.0,0.0,0.0,0.0,0.0,0.0,0.0,0.0,0.0,0.0,0.0,0.0,0.0,0.0,0.0,0.0,0.0,0.0,0.0,0.0,0.0,0.0,0.0,0.0,0.0,0.0,0.0,0.0,0.0,0.0,0.0,0.0,0.0,0.0,0.0,0.0,0.0,0.0,0.0,0.0,0.0,0.0,0.0,0.0,0.0,0.0,0.0,0.0,0.0,0.0,0.0,0.0,0.0,0.0,0.0,0.0,0.0,0.0,0.0,0.0,0.0,0.0,0.0,0.0,0.0,0.0,0.0,0.0,0.0,0.0,0.0,0.0,0.0,0.0,0.0,0.0,0.0,0.0,0.0,0.0,0.0,0.0,0.0,0.0,0.0,0.0,0.0,0.0,0.0,0.0,0.0,0.0,0.0,0.0,0.0,0.0,0.0,0.0,0.0,0.0,0.0,0.0,0.0,0.0,0.0,0.0,0.0,0.0,0.0,0.0,0.0,0.0,0.0,0.0,0.0,0.0,0.0,0.0,0.0,0.0,0.0,0.0,0.0,0.0,0.0,0.0,0.0,0.0,0.0,0.0,0.0,0.0,0.0,0.0,0.0,0.0,0.0,0.0,0.0,0.0,0.0,0.0,0.0,0.0,0.0,0.0,0.0,0.0,0.0,0.0,0.0,0.0,0.0,0.0,0.0,0.0,0.0,0.0,0.0,0.0,0.0,0.0,0.0,0.0,0.0,0.0,0.0,0.0,0.0,0.0,0.0,0.0,0.0,0.0,0.0,0.0,0.0,0.0,0.0,0.0,0.0,0.0,0.0,0.0,0.0,0.0,0.0,0.0,0.0,0.0,0.0,0.0,0.0,0.0,0.0,0.0,0.0,0.0,0.0,0.0,0.0,0.0,0.0,0.0,0.0,0.0,0.0,0.0,0.0,0.0,0.0,0.0,0.0,0.0,0.0,0.0,0.0,0.0,0.0,0.0,0.0,0.0,0.0,0.0,0.0,0.0,0.0,0.0,0.0,0.0,0.0,0.0,0.0,0.0,0.0,0.0,0.0,0.0,0.0,0.0,0.0,0.0,0.0,0.0,0.0,0.0,0.0,0.0,0.0,0.0,0.0,0.0,0.0,0.0,0.0,0.0,0.0,0.0,0.0,0.0,0.0,0.0,0.0,0.0,0.0,0.0,0.0,0.0,0.0,0.0,0.0,0.0,0.0,0.0,0.0,0.0,0.0,0.0,0.0,0.0,0.0,0.0,0.0,0.0,0.0,0.0,0.0,0.0,0.0,0.0,0.0,0.0,0.0,0.0,0.0,0.0,0.0,0.0,0.0,0.0,0.0,0.0,0.0,0.0,0.0,0.0,0.0,0.0,0.0,0.0,0.0,0.0,0.0,0.0,0.0,0.0,0.0,0.0,0.0,0.0,0.0,0.0,0.0,0.0,0.0,0.0,0.0,0.0,0.0,0.0,0.0,0.0,0.0,0.0,0.0,0.0,0.0,0.0,0.0,0.0,0.0,0.0,0.0,0.0,0.0,0.0,0.0,0.0,0.0,0.0,0.0,0.0,0.0,0.0,0.0,0.0,0.0,0.0,0.0,0.0,0.0,0.0,0.0,0.0,0.0,0.0,0.0,0.0,0.0,0.0,0.0,0.0,0.0,0.0,0.0,0.0,0.0,0.0,0.0,0.0,0.0,0.0,0.0,0.0,0.0,0.0,0.0,0.0,0.0,0.0,0.0,0.0,0.0,0.0,0.0,0.0,0.0,0.0,0.0,0.0,0.0,0.0,0.0,0.0,0.0,0.0,0.0,0.0,0.0,0.0,0.0,0.0,0.0,0.0,0.0,0.0,0.0,0.0,0.0,0.0,0.0,0.0,0.0,0.0,0.0,0.0,0.0,0.0,0.0,0.0,0.0,0.0,0.0,0.0,0.0,0.0,0.0,0.0,0.0,0.0,0.0,0.0,0.0,0.0,0.0,0.0,0.0,0.0,0.0,0.0,0.0,0.0,0.0,0.0,0.0,0.0,0.0,0.0,0.0,0.0,0.0,0.0,0.0,0.0,0.0,0.0,0.0,0.0,0.0,0.0,0.0,0.0,0.0,0.0,0.0,0.0,0.0,0.0,0.0,0.0,0.0,0.0,0.0,0.0,0.0,0.0,0.0,0.0,0.0,0.0,0.0,0.0,0.0,0.0,0.0,0.0,0.0,0.0,0.0,0.0,0.0,0.0,0.0,0.0,0.0,0.0,0.0,0.0,0.0,0.0,0.0,0.0,0.0,0.0,0.0,0.0,0.0,0.0,0.0,0.0,0.0,0.0,0.0,0.0,0.0,0.0,0.0,0.0,0.0,0.0,0.0,0.0,0.0,0.0,0.0,0.0,0.0,0.0,0.0,0.0,0.0,0.0,0.0,0.0,0.0,0.0,0.0,0.0,0.0,0.0,0.0,0.0,0.0,0.0,0.0,0.0,0.0,0.0,0.0,0.0,0.0,0.0,0.0,0.0,0.0,0.0,0.0,0.0,0.0,0.0,0.0,0.0,0.0,0.0,0.0,0.0,0.0,0.0,0.0,0.0,0.0,0.0,0.0,0.0,0.0,0.0,0.0,0.0,0.0,0.0,0.0,0.0,0.0,0.0,0.0,0.0,0.0,0.0,0.0,0.0,0.0,0.0,0.0,0.0,0.0,0.0,0.0,0.0,0.0,0.0,0.0,0.0,0.0,0.0,0.0,0.0,0.0,0.0,0.0,0.0,0.0,0.0,0.0,0.0,0.0,0.0,0.0,0.0,0.0,0.0,0.0,0.0,0.0,0.0,0.0,0.0,0.0,0.0,0.0,0.0,0.0,0.0,0.0,0.0,0.0,0.0,0.0,0.0,0.0,0.0,0.0,0.0,0.0,0.0,0.0,0.0,0.0,0.0,0.0,0.0,0.0,0.0,0.0,0.0,0.0,0.0,0.0,0.0,0.0,0.0,0.0,0.0,0.0,0.0,0.0,0.0,0.0,0.0,0.0,0.0,0.0,0.0,0.0,-2.2867,0.0,0.0,0.0,0.0,0.0,0.0,0.0,0.0,0.0,0.0,0.0,0.0,0.0,0.0,0.0,0.0,0.0,0.0,0.0,0.0,0.0,0.0,0.0,0.0,-1.4878,-1.583,-1.6216,-1.628,-1.6309,-1.6309,0.0,0.0,0.0,0.0,0.0,-1.6388,-1.5962,-1.6399,-1.7744,-1.8201,-1.9333,-2.1062,-2.1046,-2.0155,-1.8535,0.0,0.0,0.0,0.0,0.0,0.0,0.0,0.0,0.0,0.0,0.0,0.0,0.0,0.0,0.0,0.0,0.0,0.0,0.0,0.0,0.0,0.0,0.0,0.0,0.0,0.0,0.0,0.0,0.0,0.0,0.0,0.0,0.0,0.0,0.0,0.0,0.0,0.0,0.0,0.0,0.0,0.0,0.0,0.0,0.0,0.0,0.0,0.0,0.0,0.0,0.0,0.0,0.0,0.0,0.0,0.0,0.0,0.0,0.0,0.0,0.0,0.0,0.0,0.0,0.0,0.0,0.0,0.0,0.0,0.0,0.0,-2.4866,0.0,0.0,0.0,0.0,0.0,0.0,0.0,0.0,0.0,0.0,0.0,0.0,0.0,0.0,0.0,0.0,0.0,0.0,0.0,0.0,0.0,-1.335,-1.4935,-1.6074,-1.7045,-1.7853,-1.793,-1.793,-1.793,-1.7731,0.0,0.0,0.0,-1.7646,-1.7699,-1.7853,-1.8455,-1.9539,-2.0305,-2.1981,-2.4486,-2.5937,-2.5098,-2.2344,-2.1383,0.0,0.0,0.0,0.0,0.0,0.0,0.0,0.0,0.0,0.0,0.0,0.0,0.0,0.0,0.0,0.0,0.0,0.0,0.0,0.0,0.0,0.0,0.0,0.0,0.0,0.0,0.0,0.0,0.0,0.0,0.0,0.0,0.0,0.0,0.0,0.0,0.0,0.0,0.0,0.0,0.0,0.0,0.0,0.0,0.0,0.0,0.0,0.0,0.0,0.0,0.0,0.0,0.0,0.0,0.0,0.0,0.0,0.0,0.0,0.0,0.0,0.0,0.0,-3.3835,-3.4745,-3.4766,-3.4766,-3.4725,-3.4537,-3.2144,-3.0258,-2.8752,-2.7091,0.0,0.0,0.0,0.0,0.0,0.0,0.0,0.0,0.0,0.0,0.0,0.0,0.0,0.0,0.0,0.0,0.0,0.0,0.0,-1.4082,-1.5084,-1.6596,-1.7891,-1.8742,-1.8838,-1.8838,-1.8838,-1.8115,0.0,-1.7699,-1.7689,-1.7689,-1.7699,-1.8434,-1.9635,-2.1263,-2.5129,-2.7998,-2.9883,-3.0117,-2.9961,-2.9336,-2.4785,-2.3046,-2.3339,0.0,0.0,0.0,0.0,0.0,0.0,0.0,0.0,0.0,0.0,0.0,0.0,0.0,0.0,0.0,0.0,0.0,0.0,0.0,0.0,0.0,0.0,0.0,0.0,0.0,0.0,0.0,0.0,0.0,0.0,0.0,0.0,0.0,0.0,0.0,0.0,0.0,0.0,0.0,0.0,0.0,-2.1297,-2.3188,0.0,0.0,0.0,0.0,0.0,0.0,0.0,0.0,0.0,0.0,0.0,0.0,0.0,-3.1227,-3.3613,-3.5371,-3.6653,-3.7478,-3.9175,-4.0068,-4.0176,-4.0176,-4.0176,-4.0097,-3.8863,0.0,-3.1504,-3.0458,0.0,0.0,0.0,0.0,0.0,0.0,0.0,0.0,0.0,0.0,0.0,0.0,0.0,0.0,0.0,0.0,0.0,0.0,0.0,0.0,0.0,-1.8468,-1.9732,-2.1016,-2.1613,-2.1485,-2.0473,-2.0508,-2.0142,-1.9196,-1.9158,-1.9369,-1.9831,-2.0681,-2.2483,-2.5245,-2.8731,-3.0858,-3.1641,-3.209,-3.2305,-3.2187,-2.9368,-2.7501,-2.6319,-2.3879,0.0,0.0,0.0,0.0,0.0,0.0,0.0,0.0,0.0,0.0,0.0,0.0,0.0,0.0,0.0,0.0,0.0,0.0,0.0,0.0,0.0,0.0,0.0,0.0,0.0,0.0,0.0,0.0,0.0,0.0,0.0,0.0,0.0,0.0,0.0,0.0,0.0,0.0,0.0,-2.1634,-2.4659,-2.5409,-2.5933,-2.5895,0.0,0.0,0.0,0.0,0.0,0.0,0.0,0.0,0.0,-3.4782,-3.4865,-3.59,-3.8088,-3.9387,-4.0231,-4.0641,-4.1904,-4.2556,-4.2617,-4.2617,-4.2617,-4.2578,-4.2145,-4.0405,-3.7672,-3.4804,-3.2429,-3.0488,0.0,0.0,0.0,0.0,-2.7832,-2.7695,0.0,0.0,0.0,0.0,0.0,0.0,0.0,0.0,0.0,0.0,0.0,0.0,-1.911,-2.0553,-2.1933,-2.3334,-2.4099,-2.3925,-2.2566,-2.2466,-2.1908,-2.0654,-2.0615,-2.0885,-2.1485,-2.3238,-2.6004,-2.9762,-3.2045,-3.3398,-3.3848,-3.4453,-3.4726,-3.4687,-3.3778,-3.1898,-2.9286,-2.7176,-2.4948,-2.2543,0.0,0.0,0.0,0.0,0.0,0.0,0.0,0.0,0.0,0.0,0.0,0.0,0.0,0.0,0.0,0.0,0.0,0.0,0.0,0.0,0.0,0.0,0.0,0.0,0.0,0.0,0.0,0.0,0.0,0.0,0.0,0.0,0.0,0.0,0.0,0.0,0.0,-2.4509,-2.7236,-2.7236,-2.8582,-2.9083,0.0,0.0,0.0,0.0,0.0,0.0,-3.4122,-3.5033,-3.6627,-3.9079,-3.9185,-4.0064,-4.1877,-4.2621,-4.3109,-4.3324,-4.4022,-4.4375,-4.4375,-4.4375,-4.4375,-4.4355,-4.4121,-4.3652,-4.2754,-3.8624,-3.593,-3.4297,-3.3242,-3.2305,-3.1562,-3.1797,-3.1875,-3.1972,0.0,0.0,0.0,0.0,0.0,0.0,0.0,0.0,0.0,0.0,0.0,-1.8281,-2.0128,-2.2529,-2.4348,-2.5193,-2.5307,-2.5267,-2.5125,-2.2885,-2.1523,-2.1446,-2.1446,-2.1466,-2.1504,-2.5659,-2.9946,-3.4277,-3.5291,-3.666,-3.8281,-3.832,-3.834,-3.8301,-3.7422,-3.5541,-3.2806,-2.935,-2.7327,-2.6122,-2.2643,0.0,0.0,0.0,0.0,0.0,0.0,0.0,0.0,0.0,0.0,0.0,0.0,0.0,0.0,0.0,0.0,0.0,0.0,0.0,0.0,0.0,0.0,0.0,0.0,0.0,0.0,0.0,0.0,0.0,0.0,0.0,0.0,0.0,0.0,0.0,0.0,0.0,0.0,-2.8973,-3.1878,0.0,0.0,0.0,0.0,-3.3834,-3.4787,-3.6041,-3.7649,-3.8565,-3.9892,-4.1756,-4.1869,-4.2776,-4.4582,-4.4779,-4.5273,-4.6094,-4.6152,-4.6172,-4.6172,-4.6172,-4.6172,-4.6113,-4.5293,-4.4902,-4.4609,-4.1133,-3.8672,-3.6934,-3.5234,-3.4043,-3.3379,-3.4199,-3.4512,-3.4629,0.0,0.0,0.0,0.0,0.0,-1.0385,-1.1274,-1.2142,-1.3296,-1.4981,-1.7189,-1.9464,-2.1756,-2.3811,-2.5598,-2.6951,-2.7559,-2.7123,-2.5414,-2.4442,-2.3716,-2.3201,-2.2643,-2.3601,-2.6337,-2.9663,-3.27,-3.5378,-3.6824,-3.7903,-3.8594,-3.8594,-3.8594,-3.8574,-3.8196,-3.7445,-3.6287,-3.2856,-3.0182,-2.7991,-2.515,-2.279,0.0,0.0,0.0,0.0,0.0,0.0,0.0,0.0,0.0,0.0,0.0,0.0,0.0,0.0,0.0,0.0,0.0,0.0,0.0,0.0,0.0,0.0,0.0,0.0,0.0,0.0,0.0,0.0,0.0,0.0,0.0,0.0,0.0,0.0,0.0,0.0,0.0,-3.3878,-3.6092,0.0,-3.5999,-3.6612,-3.7224,-3.7516,-3.882,-4.0102,-4.1219,-4.2066,-4.3112,-4.4396,-4.4477,-4.485,-4.5638,-4.5677,-4.591,-4.6308,-4.6308,-4.6308,-4.6308,-4.6308,-4.6308,-4.6289,-4.5976,-4.584,-4.5703,-4.3926,-4.1855,-3.9746,-3.9121,-3.8008,-3.6777,-3.7109,-3.7207,-3.7246,0.0,0.0,0.0,0.0,-1.0094,-1.0481,-1.1658,-1.2563,-1.3928,-1.6195,-1.849,-2.0903,-2.3473,-2.5321,-2.6918,-2.828,-2.8883,-2.8332,-2.6318,-2.5635,-2.4947,-2.4149,-2.4105,-2.6126,-3.0416,-3.2596,-3.4835,-3.7178,-3.8333,-3.9094,-3.9473,-3.9473,-3.9473,-3.9453,-3.9026,-3.88,-3.8571,-3.6012,-3.3339,-3.0575,-2.7774,-2.5796,-2.4202,0.0,0.0,0.0,0.0,0.0,0.0,0.0,0.0,0.0,0.0,0.0,0.0,0.0,0.0,0.0,0.0,0.0,0.0,0.0,0.0,0.0,0.0,0.0,0.0,0.0,0.0,0.0,0.0,0.0,0.0,0.0,0.0,0.0,0.0,0.0,-3.6134,-3.7095,-3.9255,-4.0225,-3.9088,-3.9966,-4.0737,-4.1023,-4.2075,-4.3061,-4.3902,-4.4451,-4.5046,-4.5706,-4.5789,-4.5869,-4.6033,-4.608,-4.6173,-4.6308,-4.6308,-4.6308,-4.6308,-4.6308,-4.6308,-4.6308,-4.6308,-4.6308,-4.6269,-4.5683,-4.4277,-4.2441,-4.2168,-4.1348,-4.0293,-3.998,-3.9883,-3.9844,0.0,0.0,0.0,-1.0094,-1.0113,-1.0714,-1.243,-1.3404,-1.5154,-1.8568,-2.0511,-2.2572,-2.5154,-2.7035,-2.8405,-2.9178,-2.9216,-2.8824,-2.7958,-2.6274,-2.4971,-2.4258,-2.5944,-2.8941,-3.3279,-3.4259,-3.6418,-3.9883,-3.9922,-4.0371,-4.1191,-4.1191,-4.1191,-4.1152,-4.0175,-3.9691,-3.9568,-3.8568,-3.6688,-3.4071,-3.0646,-2.8761,-2.7645,0.0,0.0,0.0,0.0,0.0,0.0,0.0,0.0,0.0,0.0,0.0,0.0,0.0,0.0,0.0,0.0,0.0,0.0,0.0,0.0,0.0,0.0,0.0,0.0,0.0,0.0,0.0,0.0,0.0,0.0,0.0,0.0,0.0,-3.3373,-3.6298,-3.8415,-3.8399,-4.1294,-4.2596,-4.0835,-4.2239,-4.358,-4.4284,-4.446,-4.4841,-4.5565,-4.5594,-4.5594,-4.5594,-4.5737,-4.5838,-4.5899,-4.6033,-4.6152,-4.6308,-4.6308,-4.6308,-4.6308,-4.6308,-4.6308,-4.6308,-4.6308,-4.6308,-4.6308,-4.6308,-4.5801,-4.4941,-4.4082,-4.3711,-4.3594,-4.2754,-4.2422,-4.2285,0.0,0.0,-1.0094,-1.0094,-1.0615,-1.1427,-1.2529,-1.3926,-1.5846,-1.8645,-2.0511,-2.2838,-2.6062,-2.7372,-2.8616,-3.0095,-2.9543,-2.8785,-2.7953,-2.6302,-2.5855,-2.6947,-2.9886,-3.2615,-3.5054,-3.6592,-3.8136,-3.9768,-4.039,-4.087,-4.1191,-4.1191,-4.115,-4.1034,-4.0767,-4.0559,-4.0333,-3.9428,-3.8607,-3.7611,-3.4167,-3.1929,-3.0352,0.0,0.0,0.0,0.0,0.0,0.0,0.0,0.0,0.0,0.0,0.0,0.0,0.0,0.0,0.0,0.0,0.0,0.0,0.0,0.0,0.0,0.0,0.0,0.0,0.0,0.0,0.0,0.0,0.0,0.0,0.0,0.0,-3.7069,-3.6987,-3.9453,-4.1634,-4.264,-4.4184,-4.4946,-4.4395,-4.4712,-4.5063,-4.5373,-4.533,-4.5384,-4.5594,-4.5594,-4.5594,-4.5594,-4.5635,-4.5736,-4.5899,-4.5932,-4.6075,-4.6308,-4.6308,-4.6308,-4.6308,-4.6308,-4.6308,-4.6308,-4.6308,-4.6308,-4.6308,-4.6308,-4.6152,-4.5859,-4.498,-4.4258,-4.3672,-4.3437,-4.2949,-4.2363,0.0,-1.0094,-1.0094,-1.0094,-1.0829,-1.1697,-1.2567,-1.4429,-1.6657,-1.9219,-2.1088,-2.3353,-2.6412,-2.7229,-2.809,-2.9427,-2.9334,-2.8683,-2.7518,-2.6876,-2.7504,-2.9673,-3.2391,-3.4836,-3.6934,-3.8319,-3.946,-4.0321,-4.0846,-4.1127,-4.1191,-4.1191,-4.1151,-4.108,-4.0962,-4.0839,-4.0708,-4.0106,-3.9636,-3.9092,-3.6745,-3.4988,-3.3487,-3.0583,-2.9698,-2.964,-2.6948,-2.5851,-2.5539,-2.4557,0.0,0.0,0.0,0.0,0.0,0.0,0.0,0.0,0.0,0.0,0.0,0.0,0.0,0.0,0.0,0.0,0.0,0.0,0.0,0.0,0.0,0.0,0.0,0.0,-3.8429,-4.0794,-4.1121,-4.2517,-4.3888,-4.4958,-4.5566,-4.5846,-4.5733,-4.5651,-4.5627,-4.5715,-4.5971,-4.6144,-4.6144,-4.6144,-4.6144,-4.6144,-4.5787,-4.5681,-4.5855,-4.5896,-4.6021,-4.6223,-4.6269,-4.6308,-4.6308,-4.6308,-4.6308,-4.6308,-4.6308,-4.6308,-4.6308,-4.6308,-4.6308,0.0,0.0,0.0,0.0,0.0,-4.3691,-4.2949,0.0,-1.0094,-1.0133,-1.0231,-1.0964,-1.1831,-1.27,-1.4929,-1.7407,-1.9962,-2.1789,-2.3822,-2.6416,-2.6804,-2.7193,-2.8012,-2.8731,-2.8568,-2.7184,-2.8002,-2.9694,-3.2288,-3.4107,-3.6205,-3.8691,-3.9609,-4.043,-4.1191,-4.1191,-4.1191,-4.1191,-4.1191,-4.1172,-4.1149,-4.0911,-4.0785,-4.0746,-4.0584,-4.0092,-3.9361,-3.8488,-3.7565,-3.6346,-3.3199,-3.2422,-3.2845,-3.1164,-2.966,-2.8487,-2.8446,0.0,0.0,0.0,0.0,0.0,0.0,0.0,0.0,0.0,0.0,0.0,0.0,0.0,0.0,0.0,0.0,0.0,0.0,0.0,0.0,0.0,0.0,0.0,0.0,-4.1697,-4.4141,-4.5019,-4.5156,-4.5321,-4.585,-4.5899,-4.5814,-4.5618,-4.5691,-4.5748,-4.5748,-4.6547,-4.7038,-4.7038,0.0,0.0,0.0,0.0,-4.5946,-4.6087,-4.6035,-4.6092,-4.6216,-4.6258,-4.6268,-4.6289,-4.6289,-4.6289,-4.6308,-4.6308,-4.6308,-4.6308,-4.6308,-4.6308,-4.6308,-4.6308,-4.6308,-4.6211,-4.543,-4.459,-4.3848,0.0,-1.0094,-1.0327,-1.1021,-1.1872,-1.2716,-1.3536,-1.5269,-1.7407,-1.9962,-2.1178,-2.3033,-2.635,-2.6667,-2.7026,-2.7931,-2.8152,-2.8453,-2.8948,-3.0459,-3.2192,-3.41,-3.6523,-3.8398,-3.9629,-4.0508,-4.1035,-4.1191,-4.1191,-4.1191,-4.1191,-4.1191,-4.1081,-4.0874,-4.0816,-4.0713,-4.0561,-4.0527,-4.0419,-4.0208,-3.9381,-3.8104,-3.6481,-3.4487,-3.3843,-3.3813,-3.2126,-3.1809,-3.2078,-3.1378,-3.0275,-2.9077,-2.8431,-2.6572,0.0,0.0,0.0,0.0,0.0,0.0,0.0,0.0,0.0,0.0,0.0,0.0,0.0,0.0,0.0,0.0,0.0,0.0,0.0,-4.119,-4.3398,-4.5058,-4.5937,-4.6055,-4.6005,-4.5909,-4.5899,-4.5814,-4.5618,-4.624,-4.6644,-4.6644,-4.7413,-4.7875,-4.7875,-4.7875,-4.7875,-4.7875,-4.7702,-4.7673,-4.7816,-4.7133,-4.6849,-4.6979,0.0,0.0,-4.6144,-4.6144,-4.62,-4.6308,-4.6308,-4.6308,-4.6308,-4.6308,-4.6308,-4.6308,-4.6308,-4.6308,-4.6289,-4.6113,-4.5508,-4.4746,-1.0654,-1.0752,-1.0887,-1.1312,-1.2445,-1.3442,-1.3841,-1.5385,-1.7257,-1.9373,-2.0403,-2.1926,-2.4513,-2.4797,-2.4985,-2.5459,-2.6295,-2.7747,-2.9998,-3.1788,-3.3728,-3.5918,-3.8086,-3.9668,-4.0527,-4.0976,-4.1191,-4.1191,-4.1191,-4.1191,-4.1191,-4.1191,-4.1082,-4.0905,-4.082,-4.0738,-4.0589,-4.0534,-4.0496,-4.0439,-3.9631,-3.8546,-3.727,-3.6021,-3.53,-3.4846,-3.4046,-3.3517,-3.3131,-3.2737,-3.1755,-3.0574,-2.9791,-2.8646,-2.726,0.0,0.0,0.0,0.0,0.0,0.0,0.0,0.0,0.0,0.0,0.0,0.0,0.0,0.0,-3.4793,0.0,0.0,-4.1169,-4.3359,-4.4805,-4.5801,-4.623,-4.6308,-4.6224,-4.6011,-4.5932,-4.5846,-4.5711,-4.6425,-4.6904,-4.6904,-4.8048,-4.8759,-4.8759,-4.8759,-4.8759,-4.8759,-4.8336,-4.8141,-4.8205,-4.7398,-4.703,-4.709,-4.6275,-4.5974,-4.6108,-4.6108,-4.6174,-4.6308,-4.6308,-4.6308,-4.6308,-4.6308,-4.6308,-4.6308,-4.6308,-4.6308,-4.6308,-4.6308,-4.6016,-4.5644,-1.1485,-1.1762,-1.1871,-1.1885,-1.2997,-1.3956,-1.4129,-1.5346,-1.691,-1.8761,-1.9664,-2.083,-2.2681,-2.2921,-2.3101,-2.3446,-2.4918,-2.7321,-3.082,-3.2673,-3.4824,-3.7441,-3.9062,-4.0312,-4.1172,-4.1191,-4.1191,-4.1191,-4.1191,-4.1191,-4.1191,-4.1191,-4.1128,-4.0994,-4.086,-4.0752,-4.0686,-4.0559,-4.0519,-4.0472,-3.9644,-3.8859,-3.8049,-3.7259,-3.6415,-3.5638,-3.5528,-3.4511,-3.3246,-3.3305,-3.2165,-3.0669,-3.0233,-2.9863,-2.9199,-2.707,-2.6719,0.0,0.0,0.0,0.0,0.0,0.0,0.0,0.0,0.0,-3.31,-3.5879,-3.7012,-3.8184,-4.0469,-4.1992,-4.3418,-4.5,-4.584,-4.6308,-4.6308,-4.6308,-4.6268,-4.6149,-4.6027,-4.59,-4.5803,-4.6638,-4.7169,-4.7144,-4.8702,-4.9644,-4.9644,-4.9644,-4.9644,-4.9644,-4.8971,-4.8606,-4.8606,-4.7854,-4.7468,-4.7448,-4.6537,-4.6162,-4.6261,-4.6123,-4.6122,-4.6268,-4.6289,-4.6308,-4.6308,-4.6308,-4.6308,-4.6308,-4.6308,-4.6308,-4.6308,-4.6308,-4.6308,-4.6308,0.0,-1.3083,-1.3548,-1.3618,-1.3783,-1.4168,-1.4942,-1.5212,-1.6234,-1.8684,-1.9092,-2.0096,-2.2549,-2.2812,-2.3447,-2.4995,-2.6072,-2.8174,-3.1718,-3.3591,-3.5723,-3.834,-3.9375,-4.0312,-4.1172,-4.1191,-4.1191,-4.1191,-4.1191,-4.1191,-4.1191,-4.1191,-4.1128,-4.0994,-4.086,-4.0752,-4.0686,-4.0559,-4.0574,-4.0596,-3.9746,-3.8932,-3.819,-3.7378,-3.6562,-3.5769,-3.4993,-3.4141,-3.3378,-3.3398,-3.2265,-3.0996,-3.1699,-3.0859,-2.9531,-2.9258,0.0,-2.7109,-2.7597,-2.8496,-2.9667,-3.1141,-3.1694,-3.3281,0.0,0.0,-3.8672,-4.2012,-4.2773,-4.3164,-4.4238,-4.457,-4.5039,-4.5996,-4.623,-4.6308,-4.6308,-4.6308,-4.6289,-4.6289,-4.615,-4.6001,-4.5809,-4.7221,-4.8099,-4.7961,-4.9567,-5.0558,-5.0558,-5.0558,-5.0558,-5.0558,-5.0462,-5.0423,-5.0423,-4.9557,-4.9124,-4.9104,-4.7533,-4.6828,-4.6874,-4.6217,-4.5992,-4.612,-4.6247,-4.6308,-4.6308,-4.6308,-4.6308,-4.6308,-4.6308,-4.6308,-4.6308,-4.6308,-4.6308,-4.6308,0.0,-1.3646,-1.4034,-1.4568,-1.4596,-1.4696,-1.5129,-1.5192,-1.575,-1.7334,-1.7946,-1.8846,-2.0423,-2.1043,-2.2029,-2.3748,-2.4746,-2.6775,-3.0299,-3.264,-3.4841,-3.6992,-3.8887,-4.0078,-4.0449,-4.0937,-4.1191,-4.1191,-4.1191,-4.1191,-4.1191,-4.1191,-4.1128,-4.0994,-4.095,-4.087,-4.0743,-4.0707,-4.044,-4.0039,-3.9665,-3.8743,-3.7503,-3.6705,-3.5581,-3.4407,-3.4036,-3.3064,0.0,-3.1367,-3.1055,-3.0781,-3.0137,-3.0137,-3.0156,-2.9141,-2.9043,0.0,-3.1523,-3.2285,-3.2988,0.0,-3.6288,-3.8105,-4.0625,-4.0996,-4.1504,-4.3945,-4.4453,-4.4726,-4.5605,-4.5762,-4.5879,0.0,-4.6308,-4.6308,-4.6308,-4.6308,-4.6308,-4.6308,-4.6247,-4.6113,-4.5886,-4.6874,-4.7697,-4.8066,-4.924,-5.0164,-5.0673,-5.0712,-5.0712,-5.0712,-5.0712,-5.0712,-5.0712,-4.9837,-4.9394,-4.9375,-4.7702,-4.6948,-4.6971,-4.6245,-4.6024,-4.6223,-4.6288,-4.6308,-4.6308,-4.6308,-4.6308,-4.6308,-4.6308,-4.6308,-4.6308,-4.6308,-4.6308,-4.6308,0.0,-1.4176,-1.4377,-1.5021,-1.5056,-1.5042,-1.518,-1.5192,-1.5596,-1.6699,-1.7334,-1.8119,-1.9246,-1.9923,-2.0966,-2.2643,-2.3654,-2.5679,-2.9172,-3.1429,-3.3624,-3.5898,-3.7812,-3.916,-3.9883,-4.0527,-4.0957,-4.1191,-4.1191,-4.1191,-4.1191,-4.1191,-4.115,-4.1054,-4.1021,-4.0952,-4.0838,-4.0575,-4.0147,-3.9585,-3.9094,-3.8051,-3.6675,-3.5593,-3.4143,-3.2694,-3.2695,-3.1621,-3.0098,-2.9453,-2.9492,-2.9648,-2.8613,-2.918,-3.0039,-2.9258,-3.0234,-3.1992,-3.3848,0.0,0.0,-3.7871,-3.9961,-4.166,-4.2148,-4.2675,-4.3492,-4.4997,-4.5266,-4.5458,-4.6129,-4.6247,-4.6267,-4.6289,-4.6308,-4.6308,-4.6308,-4.6308,-4.6308,-4.6308,-4.6308,-4.6202,-4.5981,-4.6623,-4.7351,-4.8097,-4.8931,-4.9797,-5.0709,-5.0731,-5.0721,-5.0748,-5.0721,-5.0712,-5.0712,-5.0067,-4.976,-4.974,-4.8279,-4.7493,-4.726,-4.6327,-4.6045,-4.6308,-4.6308,-4.6308,-4.6308,-4.6308,-4.6308,-4.6308,-4.6308,-4.6308,-4.6308,-4.6308,-4.6308,-4.6308,0.0,0.0,-1.489,-1.4999,-1.4995,-1.5042,-1.518,-1.5192,-1.5788,-1.7449,-1.768,-1.835,-2.0077,-2.0288,-2.0966,-2.2643,-2.3654,-2.5679,-2.9172,-3.0333,-3.2412,-3.5859,-3.6074,-3.7305,-3.9844,-3.9922,-4.0351,-4.1191,-4.1191,-4.1191,-4.1191,-4.1191,-4.1191,-4.1191,-4.1054,-4.0994,-4.0931,-4.0016,-3.9659,-3.9546,-3.7864,-3.6721,-3.584,-3.4052,-3.2345,-3.0883,-3.0956,-2.9863,-2.8379,-2.8359,-2.7793,-2.7266,-2.8047,-2.834,0.0,-3.0332,-3.2012,-3.334,0.0,0.0,-3.7832,-4.0449,-4.1738,-4.2812,-4.4492,-4.4793,-4.4979,-4.5876,-4.5959,-4.5924,-4.6082,-4.611,-4.6147,-4.6289,-4.6308,-4.6308,-4.6308,-4.6308,-4.6308,-4.6308,-4.6308,-4.6247,0.0,-4.6753,-4.7503,-4.8241,-4.8981,-4.9851,-5.0828,-5.0764,-5.0757,-5.0894,-5.0775,-5.0712,-5.0712,-5.0673,-5.0654,-5.0654,-4.974,-4.8875,-4.8017,-4.6568,-4.6045,-4.6308,-4.6308,-4.6308,-4.6308,-4.6308,-4.6308,-4.6308,-4.6308,-4.6308,-4.6308,-4.6308,-4.6308,-4.6308,0.0,0.0,0.0,-1.4936,-1.4925,-1.4961,-1.5042,-1.514,-1.5615,-1.6756,-1.7872,0.0,0.0,0.0,0.0,0.0,-2.2762,-2.4283,-2.6653,-2.8725,-3.0696,-3.2539,-3.4238,-3.582,-3.7285,-3.7845,-3.8501,-3.9341,-3.9298,-3.9282,-3.9282,-3.9282,-3.9282,-3.9282,-3.9275,-3.9243,-3.919,-3.9009,-3.89,-3.8695,-3.698,-3.6151,-3.567,-3.329,-3.1334,-2.9797,0.0,-2.8311,-2.7275,-2.6709,-2.6735,-2.6953,-2.666,0.0,0.0,-3.0215,-3.25,-3.4648,-3.6387,0.0,-4.0371,-4.2363,-4.3432,-4.4297,-4.5468,-4.5623,-4.5468,-4.5218,-4.5134,-4.4966,-4.4521,-4.4903,-4.5329,-4.5429,-4.5918,-4.6308,-4.6308,-4.6308,-4.6308,-4.6308,-4.6308,0.0,0.0,0.0,0.0,-4.7384,-4.8114,-4.8931,-4.986,-5.0497,-5.0814,-5.0775,-5.0805,-5.0791,-5.0693,-5.0712,-5.0712,-5.0673,-4.9221,-4.8166,-4.7462,-4.6382,-4.6045,-4.6308,-4.6308,-4.6308,-4.6308,-4.6308,-4.6308,-4.6308,-4.6308,-4.6308,-4.6308,-4.6308,-4.6308,-4.6308,0.0,0.0,0.0,0.0,0.0,0.0,0.0,0.0,0.0,0.0,0.0,0.0,0.0,0.0,0.0,0.0,0.0,-2.3234,-2.5329,-2.7058,-2.8725,-3.0329,-3.1992,-3.3418,-3.4588,-3.5101,-3.5903,-3.7,-3.696,-3.7092,-3.7404,-3.7404,-3.7404,-3.7404,-3.7449,-3.7447,-3.7391,-3.7214,-3.7084,-3.6861,-3.5168,-3.4293,-3.378,-3.1412,-2.9645,0.0,-2.742,-2.6801,-2.6326,-2.5774,-2.6003,-2.6463,-2.623,-2.7402,-2.9199,-3.0879,-3.3398,-3.6191,-3.8828,-4.0566,-4.2109,-4.4078,-4.4901,-4.5399,-4.5903,-4.571,-4.5157,-4.4327,-4.365,-4.3068,-4.2665,-4.2824,-4.334,-4.4374,-4.5019,-4.5586,-4.6211,-4.6308,-4.6308,-4.6308,-4.6562,-4.6758,0.0,0.0,0.0,-4.7047,-4.7711,-4.8508,-4.9425,-5.0323,-5.0805,-5.0764,-5.0805,-5.0791,-5.0693,-5.0712,-5.0712,-5.0673,-4.924,-4.8412,-4.8088,-4.6906,-4.651,-4.6758,-4.6445,-4.6308,-4.6308,-4.6308,-4.6308,-4.6308,-4.6308,-4.6308,-4.6308,-4.6308,-4.6308,-4.6308,0.0,0.0,0.0,0.0,0.0,0.0,0.0,0.0,0.0,0.0,0.0,0.0,0.0,0.0,0.0,0.0,0.0,0.0,-2.5043,-2.5396,-2.6644,-2.9197,-2.945,-3.029,-3.1935,-3.1951,-3.2711,-3.43,-3.4294,-3.4717,-3.5512,-3.5512,-3.5512,-3.5512,-3.5535,-3.5535,-3.5473,-3.4658,-3.4327,-3.4208,-3.2472,-3.134,-3.0492,-2.8685,-2.7443,-2.6571,-2.5687,-2.5418,-2.5515,-2.5626,0.0,0.0,0.0,0.0,0.0,-3.2422,-3.4844,-3.8066,-4.0625,-4.1953,-4.3163,-4.5515,-4.6087,-4.6047,-4.5877,-4.509,-4.4163,-4.3201,-4.16,-4.0382,0.0,0.0,-4.0466,-4.3084,-4.3652,-4.4375,-4.6113,-4.6367,-4.6387,0.0,0.0,0.0,0.0,0.0,0.0,-4.7276,0.0,-4.8531,-4.9531,-5.0302,-5.0775,-5.0886,-5.0764,-5.0702,-5.0712,-5.0712,-5.0712,-5.0693,-4.9817,-4.9548,-4.9737,-4.8059,-4.741,-4.7558,-4.6738,-4.6348,-4.6308,-4.6308,-4.6308,-4.6308,-4.6308,-4.6308,-4.6308,-4.6308,-4.6308,-4.6308,0.0,0.0,0.0,0.0,0.0,0.0,0.0,0.0,0.0,0.0,0.0,0.0,0.0,0.0,0.0,0.0,0.0,0.0,-2.2517,-2.4404,-2.5823,-2.6564,-2.7857,-2.9067,-3.0137,-3.0019,-3.0454,-3.153,-3.1468,-3.1569,-3.1781,-3.1781,-3.1781,-3.1786,-3.1835,-3.1823,-3.1777,-3.1693,-3.1987,-3.2349,-3.0633,-3.0229,-3.0436,-2.8617,-2.7374,-2.6598,-2.6342,-2.5906,0.0,0.0,0.0,0.0,0.0,-3.2344,-3.4316,0.0,0.0,-4.0625,-4.2539,-4.416,-4.5429,-4.5966,-4.6011,-4.576,-4.5027,-4.413,-4.2865,-4.0733,-3.9418,-3.8112,0.0,0.0,0.0,-4.0721,-4.3008,0.0,-4.7012,-4.7266,0.0,-4.8164,0.0,-4.8574,-4.8574,-4.8332,0.0,0.0,-4.8125,-4.8499,-4.939,-5.0331,-5.0822,-5.0748,-5.0814,-5.0797,-5.0693,-5.0712,-5.0712,-5.0693,-4.9928,-4.964,-4.9761,-4.8766,-4.8058,-4.7598,-4.7363,-4.6894,-4.6308,-4.6308,-4.6308,-4.6308,-4.6308,-4.6308,-4.6308,-4.6308,-4.6308,-4.6308,0.0,0.0,0.0,0.0,0.0,0.0,0.0,0.0,0.0,0.0,0.0,0.0,0.0,0.0,0.0,0.0,0.0,0.0,0.0,-2.3323,-2.4547,-2.4968,-2.6293,-2.7231,-2.7697,-2.7967,-2.8333,-2.8796,-2.9131,-2.9294,-2.9294,-2.9294,-2.9294,-2.9294,-2.9337,-2.9346,-2.9305,-2.941,-2.9706,0.0,0.0,-2.8418,-2.8689,-2.7296,-2.6467,-2.6019,0.0,0.0,0.0,0.0,0.0,-3.1758,-3.3359,-3.5039,-3.6758,-3.8496,0.0,-4.2598,-4.3906,-4.5213,-4.6175,-4.6042,-4.5659,-4.4949,-4.362,-4.2352,-4.0604,-3.7668,-3.6084,0.0,0.0,0.0,0.0,0.0,0.0,0.0,-4.6738,-4.7363,-4.7773,0.0,-4.9004,0.0,-4.9473,-4.9278,-4.9286,0.0,-4.9034,-4.8875,-4.9375,-5.0302,-5.0773,-5.0693,-5.0764,-5.0793,-5.0693,-5.0757,-5.0791,-5.0771,-5.0421,-5.0309,-5.0388,-4.9625,-4.8868,-4.8144,0.0,-4.7109,-4.6308,-4.6308,-4.6308,-4.6308,-4.6308,-4.6308,-4.6308,-4.6308,-4.6308,-4.6308,0.0,0.0,0.0,0.0,0.0,0.0,0.0,0.0,0.0,0.0,0.0,0.0,0.0,0.0,0.0,0.0,0.0,0.0,0.0,0.0,-2.3289,-2.4157,-2.5041,-2.5468,-2.5394,-2.6122,-2.6489,-2.6428,-2.7178,-2.7544,-2.7544,-2.7544,-2.7544,-2.7544,-2.7544,-2.7544,-2.7544,-2.7544,-2.7544,-2.7486,-2.6736,-2.6428,-2.6346,0.0,0.0,0.0,0.0,0.0,0.0,0.0,-3.2433,-3.332,-3.5879,-3.7793,-3.9453,-4.1191,-4.2715,-4.4042,-4.4902,-4.5608,-4.6042,-4.5927,-4.509,-4.384,-4.2036,-4.0162,-3.7861,-3.4552,0.0,-3.1091,-3.026,-3.1693,-3.4164,-3.7694,0.0,-4.3223,-4.6074,-4.7226,-4.7812,-4.793,-4.9375,-5.0351,-5.0351,-5.0239,-5.0419,-5.1068,-5.0185,-4.9603,-4.9577,-5.0289,-5.0702,-5.074,-5.074,-5.074,-5.0748,-5.0863,-5.0925,-5.0932,-5.1053,-5.1129,-5.1184,-5.0508,-4.9712,-4.8867,-4.8105,-4.7207,-4.6308,-4.6308,-4.6308,-4.6308,-4.6308,-4.6308,-4.6308,-4.6308,-4.6308,-4.6308,0.0,0.0,0.0,0.0,0.0,0.0,0.0,0.0,0.0,0.0,-2.0548,-2.0308,0.0,0.0,0.0,0.0,0.0,0.0,0.0,0.0,0.0,-2.4157,-2.4985,-2.5408,-2.5394,-2.5492,0.0,0.0,0.0,-2.575,-2.575,-2.575,-2.575,-2.575,-2.575,-2.575,-2.575,-2.575,-2.575,-2.5731,-2.5596,-2.5538,-2.5519,0.0,0.0,0.0,0.0,0.0,0.0,0.0,-3.3939,-3.6875,-3.9473,-4.0957,-4.207,-4.3828,-4.4466,-4.4793,-4.5673,-4.5922,-4.5923,-4.5844,-4.4608,-4.2957,-4.1139,-3.8354,0.0,0.0,0.0,-2.9124,-2.7725,-3.0011,0.0,-3.5975,0.0,0.0,0.0,0.0,-4.8945,0.0,0.0,0.0,0.0,0.0,0.0,0.0,0.0,-5.0706,-5.0481,-5.0616,-5.0748,-5.0848,-5.0875,-5.0918,-5.1039,-5.1042,-5.1078,-5.1078,-5.114,-5.1191,-5.1204,-5.1163,-5.0331,-4.8887,-4.873,0.0,-4.6308,-4.6308,-4.6308,-4.6308,-4.6308,-4.6308,-4.6308,-4.6308,-4.6308,-4.6308,0.0,0.0,0.0,0.0,0.0,0.0,0.0,-1.943,-2.0899,-2.1943,-2.1713,-2.1306,-2.0957,-2.0923,-2.075,0.0,0.0,0.0,0.0,0.0,0.0,0.0,-2.4921,-2.5342,0.0,0.0,0.0,0.0,0.0,0.0,0.0,0.0,0.0,0.0,0.0,0.0,0.0,0.0,-2.5308,0.0,0.0,0.0,0.0,0.0,0.0,0.0,0.0,0.0,0.0,0.0,-3.2618,-3.5853,-3.979,-4.1603,-4.2594,-4.4333,-4.4796,-4.4923,-4.5781,-4.5918,-4.5842,-4.5803,-4.413,-4.1791,-3.9126,0.0,0.0,0.0,0.0,-2.7446,-2.629,0.0,0.0,0.0,0.0,0.0,0.0,0.0,0.0,0.0,0.0,0.0,0.0,0.0,0.0,0.0,0.0,-5.1045,-5.0822,-5.074,-5.0766,-5.0901,-5.0908,-5.0959,-5.1108,-5.1137,-5.1144,-5.1144,-5.1258,-5.1297,-5.1318,-5.1366,-5.0488,-4.8906,-4.8906,0.0,-4.6308,-4.6308,-4.6308,-4.6308,-4.6308,-4.6308,-4.6308,-4.6308,-4.6308,-4.6308,0.0,0.0,0.0,0.0,0.0,0.0,0.0,-2.0193,-2.177,-2.2924,-2.3057,-2.2776,-2.2067,-2.1826,-2.147,0.0,0.0,0.0,0.0,0.0,0.0,0.0,0.0,0.0,0.0,0.0,0.0,0.0,0.0,0.0,0.0,0.0,0.0,0.0,0.0,0.0,0.0,0.0,0.0,0.0,0.0,0.0,0.0,0.0,0.0,0.0,0.0,0.0,0.0,0.0,-3.0478,-3.3093,-3.7537,-4.0147,-4.1864,-4.3424,-4.4241,-4.4797,-4.5434,-4.5677,-4.5761,-4.5761,-4.3616,-4.0681,-3.7442,-3.4449,0.0,0.0,-2.6447,-2.6136,-2.5515,0.0,0.0,0.0,0.0,0.0,0.0,0.0,0.0,0.0,0.0,0.0,0.0,0.0,0.0,0.0,0.0,0.0,-5.0946,-5.0844,-5.0851,-5.0959,-5.0966,-5.1023,-5.1164,-5.1216,-5.124,-5.124,-5.1344,-5.1406,-5.1406,-5.1406,-5.0488,-4.8906,-4.8906,0.0,0.0,-4.6308,-4.6308,-4.6308,-4.6308,-4.6308,-4.6308,-4.6308,-4.6308,-4.6308,0.0,0.0,0.0,0.0,0.0,0.0,0.0,-2.0647,-2.2631,-2.3808,-2.4451,-2.447,-2.3675,-2.2887,-2.2444,0.0,0.0,0.0,0.0,0.0,0.0,0.0,0.0,0.0,0.0,0.0,0.0,0.0,0.0,0.0,0.0,0.0,0.0,0.0,0.0,0.0,0.0,0.0,0.0,0.0,0.0,0.0,0.0,0.0,0.0,0.0,0.0,0.0,0.0,0.0,0.0,-2.983,-3.1892,-3.5907,-4.0013,-4.097,0.0,0.0,-4.4608,-4.5112,-4.562,-4.562,-4.311,-3.9938,-3.7296,0.0,0.0,-2.7159,-2.5962,-2.5423,-2.5399,-2.626,0.0,0.0,0.0,0.0,0.0,0.0,0.0,0.0,0.0,0.0,0.0,0.0,0.0,0.0,0.0,0.0,-5.1079,-5.1063,-5.1098,-5.116,-5.1163,-5.1234,-5.1365,-5.1386,-5.1386,-5.1386,-5.1387,-5.1406,-5.1406,-5.1406,-5.0488,-4.8906,-4.8906,0.0,0.0,-4.6308,-4.6308,-4.6308,-4.6308,-4.6308,-4.6308,-4.6308,-4.6308,-4.6308,0.0,0.0,0.0,0.0,0.0,0.0,-1.9849,-2.0944,-2.2365,-2.4534,-2.44,-2.4214,-2.4497,-2.4145,-2.3531,-2.2693,0.0,0.0,0.0,0.0,0.0,0.0,0.0,0.0,0.0,0.0,0.0,0.0,0.0,0.0,0.0,0.0,0.0,0.0,0.0,0.0,0.0,0.0,0.0,0.0,0.0,0.0,0.0,0.0,0.0,0.0,0.0,0.0,0.0,0.0,0.0,0.0,-2.8409,-3.1137,0.0,0.0,-4.0552,-4.2435,-4.3971,-4.4988,-4.5479,-4.496,-4.2651,-3.9573,-3.6007,0.0,-2.9538,-2.6442,-2.5538,-2.5303,-2.533,-2.5662,-2.6751,-2.9273,-3.0281,-3.2391,0.0,0.0,0.0,0.0,0.0,0.0,0.0,0.0,0.0,0.0,0.0,0.0,-5.1279,-5.1084,-5.1054,-5.1199,-5.1158,-5.1213,-5.1406,-5.1406,-5.1406,-5.1406,-5.1406,-5.1406,-5.1387,-5.0898,-5.0039,-4.8867,-4.8359,0.0,0.0,-4.6308,-4.6308,-4.6308,-4.6308,-4.6308,-4.6308,-4.6308,-4.6308,-4.6308,0.0,0.0,0.0,0.0,0.0,-1.8673,-2.0389,-2.1116,-2.2271,-2.4565,-2.4296,-2.4152,-2.486,-2.4795,-2.4263,-2.3196,-2.3938,0.0,0.0,0.0,0.0,0.0,0.0,0.0,0.0,0.0,0.0,0.0,0.0,0.0,0.0,0.0,0.0,0.0,0.0,0.0,0.0,0.0,0.0,0.0,0.0,0.0,0.0,0.0,0.0,0.0,0.0,0.0,0.0,0.0,0.0,0.0,0.0,0.0,0.0,0.0,-3.7853,-4.0208,-4.2258,-4.3816,-4.4701,-4.4105,-4.1835,-3.8784,0.0,0.0,-2.9115,-2.5942,-2.5308,-2.5308,-2.5308,-2.5344,-2.5901,-2.7456,-2.8188,-3.0078,-3.4472,0.0,0.0,0.0,0.0,0.0,0.0,0.0,0.0,0.0,0.0,0.0,-5.1343,-5.1107,-5.1054,-5.1244,-5.1202,-5.1264,-5.1406,-5.1406,-5.1406,-5.1406,-5.1152,-5.1055,-5.1016,-5.0195,-4.9336,-4.8476,-4.7871,0.0,0.0,-4.6308,-4.6308,-4.6308,-4.6308,-4.6308,-4.6308,-4.6308,-4.6308,-4.6308,0.0,0.0,0.0,0.0,0.0,0.0,-1.9448,-2.1129,-2.2653,-2.3681,-2.4378,-2.4785,-2.4804,-2.4623,-2.4503,-2.4493,-2.4974,0.0,0.0,0.0,0.0,0.0,0.0,0.0,0.0,0.0,-2.5335,-2.539,0.0,0.0,0.0,0.0,0.0,0.0,0.0,0.0,0.0,0.0,0.0,0.0,0.0,0.0,0.0,0.0,0.0,0.0,0.0,0.0,0.0,0.0,0.0,0.0,0.0,0.0,0.0,0.0,-3.4737,-3.8219,-3.9111,-4.12,-4.3124,-4.3104,-4.0546,-3.7353,0.0,-3.157,-2.8396,-2.5827,-2.5308,-2.5308,-2.5308,-2.5308,-2.5631,-2.6645,-2.8255,-3.093,-3.5351,0.0,0.0,0.0,0.0,0.0,0.0,0.0,0.0,0.0,0.0,0.0,-5.1204,-5.1137,-5.1193,-5.1386,-5.1406,-5.1406,-5.1406,-5.1406,-5.1406,-5.1387,-5.0586,-5.0215,-5.0176,-4.9316,-4.8437,0.0,0.0,0.0,0.0,-4.6308,-4.6308,-4.6308,-4.6308,-4.6308,-4.6308,-4.6308,-4.6308,-4.6308,0.0,0.0,0.0,0.0,0.0,0.0,0.0,-2.0521,-2.1365,-2.3528,-2.2951,-2.2969,-2.4622,-2.4222,-2.4005,-2.4456,-2.4852,0.0,0.0,0.0,0.0,0.0,0.0,0.0,0.0,0.0,-2.5662,-2.6288,-2.6384,-2.6745,0.0,0.0,0.0,0.0,0.0,0.0,0.0,0.0,0.0,0.0,0.0,0.0,0.0,0.0,0.0,0.0,0.0,0.0,0.0,0.0,0.0,0.0,0.0,0.0,0.0,-2.7717,-3.1218,0.0,-3.563,-3.7262,-3.8472,-3.7366,-3.6247,-3.459,-3.1435,-2.9877,-2.8376,-2.5827,-2.5308,-2.5308,-2.5308,-2.5308,-2.62,-2.9018,-2.9939,0.0,0.0,0.0,0.0,0.0,0.0,0.0,0.0,0.0,0.0,0.0,0.0,0.0,-5.1204,-5.118,-5.1208,-5.1267,-5.1267,-5.1318,-5.1406,-5.1406,-5.1406,-5.1387,-5.0586,-5.0195,-5.0156,-4.8672,-4.7851,0.0,0.0,0.0,0.0,-4.6308,-4.6308,-4.6308,-4.6308,-4.6308,-4.6308,-4.6308,-4.6308,-4.6308,0.0,0.0,0.0,0.0,0.0,0.0,0.0,-2.0192,-2.0778,-2.2457,-2.1991,-2.2211,-2.4024,-2.3682,-2.3609,-2.4327,-2.4648,0.0,0.0,0.0,0.0,0.0,0.0,0.0,0.0,-2.5387,-2.5848,-2.6776,-2.7181,-2.7678,-2.8234,-2.8066,-2.7571,0.0,0.0,0.0,0.0,0.0,0.0,0.0,0.0,0.0,0.0,0.0,0.0,0.0,0.0,0.0,0.0,0.0,0.0,0.0,0.0,0.0,0.0,0.0,-2.8217,-3.087,0.0,-3.4025,-3.5027,-3.4029,-3.3261,-3.2122,-2.9665,-2.8607,-2.7601,-2.5692,-2.5308,-2.5308,-2.5308,-2.5327,-2.6188,-2.8807,-2.9799,0.0,0.0,0.0,0.0,0.0,0.0,0.0,0.0,0.0,0.0,0.0,0.0,0.0,-5.0618,-5.0633,-5.0514,-5.0186,-5.0881,-5.1319,-5.1406,-5.1094,-5.0957,-5.0937,-4.9766,-4.9219,-4.918,-4.7754,-4.7109,0.0,0.0,0.0,0.0,-4.6308,-4.6308,-4.6308,-4.6308,-4.6308,-4.6308,-4.6308,-4.6308,-4.6308,0.0,0.0,0.0,0.0,0.0,0.0,0.0,-2.01,-2.0737,-2.0793,-2.1416,-2.2212,-2.3188,-2.3083,-2.3263,-2.4135,0.0,0.0,0.0,0.0,0.0,0.0,0.0,0.0,-2.5395,-2.5406,-2.5926,-2.699,-2.7871,-2.839,-2.8594,-2.9414,-2.8825,-2.7063,0.0,0.0,0.0,0.0,0.0,0.0,0.0,0.0,0.0,0.0,0.0,0.0,0.0,0.0,0.0,0.0,0.0,0.0,0.0,0.0,0.0,0.0,0.0,0.0,0.0,-3.1212,0.0,0.0,-3.1243,-2.9904,-2.903,-2.7659,0.0,-2.5481,-2.5308,-2.5346,-2.5476,-2.549,-2.5887,-2.7075,0.0,0.0,0.0,0.0,0.0,0.0,0.0,0.0,0.0,0.0,0.0,0.0,0.0,0.0,-4.9567,-4.9629,-4.9338,-4.853,-5.0269,-5.1211,-5.1211,-5.0468,-5.0097,-5.0058,-4.8378,-4.7597,-4.7558,-4.6699,-4.6308,0.0,0.0,0.0,0.0,-4.6308,-4.6308,-4.6308,-4.6308,-4.6308,-4.6308,-4.6308,-4.6308,-4.6308,0.0,0.0,0.0,0.0,0.0,0.0,0.0,0.0,0.0,0.0,-2.052,-2.1077,-2.3092,-2.2662,-2.2769,0.0,0.0,0.0,0.0,0.0,0.0,0.0,0.0,0.0,-2.5395,-2.5453,-2.6269,-2.7889,-2.8823,-2.996,-3.1289,-3.1484,-3.0597,-2.8784,-2.8142,-2.6948,0.0,0.0,0.0,0.0,0.0,0.0,0.0,0.0,0.0,0.0,0.0,0.0,0.0,0.0,0.0,0.0,0.0,0.0,0.0,0.0,-2.5442,-2.575,-2.6346,0.0,-2.793,-2.7318,-2.7325,-2.725,0.0,-2.6404,-2.6346,-2.5481,-2.5308,-2.5712,-2.7105,-2.6827,-2.7563,0.0,0.0,0.0,0.0,0.0,0.0,0.0,0.0,0.0,0.0,0.0,0.0,0.0,0.0,-4.8852,-4.8611,-4.8727,-4.8701,-4.8511,-4.904,-4.9332,-4.9332,-4.9155,-4.9001,-4.889,-4.7906,-4.7455,-4.7418,-4.6658,-4.6308,0.0,0.0,0.0,-4.6308,-4.6308,-4.6308,-4.6308,-4.6308,-4.6308,-4.6308,-4.6308,-4.6308,-4.6308,0.0,0.0,0.0,0.0,0.0,0.0,0.0,0.0,0.0,0.0,0.0,0.0,0.0,0.0,0.0,0.0,0.0,0.0,0.0,0.0,0.0,0.0,0.0,-2.5352,-2.5444,-2.5471,-2.6392,-2.8256,-2.9159,-3.0488,-3.2207,-3.2207,-3.1205,-2.9365,-2.7706,-2.6389,0.0,0.0,0.0,0.0,0.0,0.0,0.0,0.0,0.0,0.0,-2.5308,-2.5308,0.0,-2.5308,-2.5308,-2.5308,0.0,0.0,0.0,0.0,-2.5308,-2.5308,-2.5308,-2.6231,-2.7083,-2.6669,-2.6868,-2.7063,-2.6601,-2.6231,-2.5865,0.0,0.0,0.0,0.0,0.0,0.0,0.0,0.0,0.0,0.0,0.0,0.0,0.0,0.0,0.0,0.0,0.0,0.0,0.0,0.0,-4.8111,-4.7685,-4.7814,-4.7704,-4.7273,-4.7421,-4.7888,-4.8688,-4.8248,-4.8012,-4.7986,-4.7187,-4.6845,-4.6882,-4.6483,-4.6308,0.0,0.0,0.0,-4.6308,-4.6308,-4.6308,-4.6308,-4.6308,-4.6308,-4.6308,-4.6308,-4.6308,-4.6308,0.0,0.0,0.0,0.0,0.0,0.0,0.0,0.0,0.0,0.0,0.0,0.0,0.0,0.0,0.0,0.0,0.0,0.0,0.0,0.0,0.0,0.0,0.0,-2.5412,-2.5685,-2.5564,-2.6401,-2.8281,-2.9433,-3.0742,-3.2207,-3.2598,-3.1619,-2.9398,-2.6823,-2.5582,0.0,0.0,0.0,0.0,0.0,0.0,0.0,0.0,0.0,0.0,0.0,0.0,0.0,-2.5308,-2.5308,-2.5308,-2.5308,0.0,0.0,0.0,0.0,0.0,-2.5615,-2.6967,-2.8159,-2.7621,-2.7799,-2.803,-2.7761,0.0,0.0,0.0,0.0,0.0,0.0,0.0,0.0,0.0,0.0,0.0,0.0,0.0,0.0,0.0,0.0,0.0,0.0,0.0,0.0,0.0,0.0,-4.7546,-4.6749,-4.6881,-4.6613,-4.5822,-4.5974,-4.6763,-4.8248,-4.7412,-4.7038,-4.7153,-4.6423,-4.6144,-4.6268,-4.6289,-4.6308,-4.6308,0.0,0.0,-4.6308,-4.6308,-4.6308,-4.6308,-4.6308,-4.6289,-4.6268,-4.6289,-4.6289,-4.6269,0.0,0.0,0.0,0.0,0.0,0.0,0.0,0.0,0.0,0.0,0.0,0.0,0.0,0.0,0.0,0.0,0.0,0.0,0.0,0.0,0.0,-2.5028,-2.5208,-2.5682,-2.6501,-2.5846,-2.6381,-2.822,-3.0623,-3.1934,-3.2246,-3.4414,-3.332,-2.9491,-2.7432,-2.6136,-2.5473,0.0,0.0,0.0,0.0,0.0,0.0,0.0,0.0,0.0,0.0,0.0,0.0,-2.5308,-2.5308,-2.5308,-2.5308,0.0,0.0,0.0,0.0,0.0,-2.7101,-2.8736,-2.9327,-2.6423,-2.7313,-2.8549,-2.7121,-2.7159,0.0,0.0,0.0,0.0,0.0,0.0,0.0,0.0,0.0,0.0,0.0,0.0,0.0,0.0,0.0,0.0,0.0,0.0,0.0,0.0,0.0,-4.5956,-4.5806,-4.594,-4.5945,-4.5803,-4.5834,-4.5974,-4.6232,-4.6086,-4.6028,-4.6038,-4.5978,-4.5995,-4.6122,-4.6247,-4.6308,-4.6308,0.0,-4.6308,-4.6308,-4.6308,-4.6308,-4.6308,-4.6308,-4.6225,-4.6145,-4.6268,-4.6225,-4.6147,0.0,0.0,0.0,0.0,0.0,0.0,0.0,0.0,0.0,0.0,0.0,0.0,0.0,0.0,0.0,0.0,0.0,0.0,0.0,0.0,0.0,-2.5503,-2.5729,-2.6105,-2.6688,-2.684,-2.7766,-2.9542,-3.1325,-3.2656,-3.3535,-3.3272,-3.1612,-2.8808,-2.6865,-2.5806,-2.5506,-2.5431,0.0,0.0,0.0,0.0,0.0,0.0,0.0,0.0,0.0,0.0,0.0,0.0,-2.5308,-2.5308,-2.5308,0.0,0.0,0.0,0.0,0.0,-2.6269,-2.7755,-2.8679,-2.7101,-2.8948,-3.1064,-3.0775,-3.0314,0.0,0.0,0.0,0.0,0.0,0.0,0.0,0.0,0.0,0.0,0.0,0.0,0.0,0.0,0.0,0.0,0.0,0.0,0.0,0.0,0.0,0.0,-4.5594,-4.5737,-4.5775,-4.5685,-4.5768,-4.5775,-4.5685,-4.5685,-4.5718,-4.5803,-4.5881,-4.5974,-4.6091,-4.6246,-4.6308,-4.6308,0.0,-4.6308,-4.6308,-4.6308,-4.6308,-4.6289,-4.6223,-4.6149,-4.6113,-4.6173,-4.6149,-4.6117,0.0,0.0,0.0,0.0,0.0,0.0,0.0,0.0,0.0,0.0,0.0,0.0,0.0,0.0,0.0,0.0,0.0,0.0,0.0,0.0,-2.4814,-2.5684,-2.6055,-2.6642,-2.7554,-2.8116,-2.9243,-3.0969,-3.2183,-3.3437,-3.4627,-3.195,-2.9817,-2.8175,-2.646,-2.5622,-2.5463,-2.5421,-2.5363,0.0,0.0,0.0,0.0,0.0,0.0,0.0,0.0,0.0,0.0,0.0,0.0,0.0,0.0,0.0,0.0,-2.5308,-2.5308,-2.5385,-2.5808,-2.689,-2.7992,-2.839,-3.0256,-3.2391,-3.3878,-3.3045,-3.2218,0.0,0.0,0.0,0.0,0.0,0.0,0.0,0.0,0.0,0.0,0.0,0.0,0.0,0.0,0.0,0.0,0.0,0.0,0.0,0.0,0.0,-4.5594,-4.5692,-4.5708,-4.5594,-4.57,-4.57,-4.5594,-4.5594,-4.5665,-4.5803,-4.5881,-4.5974,-4.6091,-4.6246,-4.6308,-4.6308,-4.6308,-4.6308,-4.6308,-4.6308,-4.6289,-4.6247,-4.6144,-4.608,-4.6047,-4.6047,-4.6077,-4.6117,0.0,0.0,0.0,0.0,0.0,0.0,0.0,0.0,0.0,0.0,0.0,0.0,0.0,0.0,0.0,0.0,0.0,0.0,0.0,0.0,-2.442,-2.4877,-2.563,-2.7302,-3.0063,-2.9586,-3.0125,-3.1812,-3.362,-3.4548,-3.4549,-3.1924,-2.9785,-2.8065,-2.7057,-2.6161,-2.5401,-2.5406,-2.5359,-2.5308,0.0,0.0,0.0,0.0,0.0,0.0,0.0,0.0,0.0,0.0,0.0,0.0,0.0,0.0,-2.5308,-2.5308,-2.5308,-2.5654,-2.7274,-2.7799,-2.8275,-2.9827,-2.9794,-3.0223,-3.3455,-3.3468,0.0,-3.6892,0.0,0.0,0.0,0.0,0.0,0.0,0.0,0.0,0.0,0.0,0.0,0.0,0.0,0.0,0.0,0.0,0.0,0.0,0.0,0.0,-4.5594,-4.5612,-4.5612,-4.5594,-4.5612,-4.5612,-4.5594,-4.5594,-4.5665,-4.5803,-4.5881,-4.5974,-4.6091,-4.6246,-4.6308,-4.6308,-4.6308,-4.6308,-4.6308,-4.6308,-4.6224,-4.6115,-4.6091,-4.6011,-4.5912,-4.5912,-4.5992,-4.6117,0.0,0.0,0.0,0.0,0.0,0.0,0.0,0.0,0.0,0.0,0.0,0.0,0.0,0.0,0.0,0.0,0.0,0.0,0.0,-2.419,-2.4543,-2.5335,-2.5762,-2.7061,-2.9353,-3.0385,-3.1746,-3.3527,-3.4304,-3.4392,-3.3724,-3.1127,-2.926,-2.8029,-2.6505,-2.5672,-2.5406,-2.535,-2.5312,-2.5308,-2.5308,0.0,0.0,0.0,0.0,0.0,0.0,0.0,0.0,0.0,-2.5308,-2.5308,-2.5308,-2.5308,-2.5308,-2.5308,-2.5308,-2.5442,-2.6096,-2.7448,-2.8929,-3.0115,-3.0558,0.0,0.0,-3.6334,-3.7546,-3.9873,-4.013,0.0,0.0,0.0,0.0,0.0,0.0,0.0,0.0,0.0,0.0,0.0,0.0,0.0,0.0,0.0,0.0,0.0,0.0,0.0,-4.5594,-4.5594,-4.5594,-4.5594,-4.5594,-4.5594,-4.5594,-4.5594,-4.5637,-4.568,-4.5839,-4.5924,-4.5985,-4.62,-4.6308,-4.6308,-4.6308,-4.6308,-4.6289,-4.6202,-4.6145,-4.6082,-4.5955,-4.5825,-4.5729,-4.5814,-4.5869,-4.5944,0.0,0.0,0.0,0.0,0.0,0.0,0.0,0.0,0.0,0.0,0.0,0.0,0.0,0.0,0.0,0.0,0.0,0.0,-2.419,-2.419,-2.4543,-2.5293,-2.5761,-2.6759,-2.8382,-3.0351,-3.2109,-3.3653,-3.377,-3.3335,-3.2374,-3.0306,-2.8877,-2.7969,-2.6409,-2.5745,-2.5762,-2.5442,-2.5308,-2.5308,-2.5308,-2.5308,0.0,0.0,0.0,0.0,0.0,0.0,0.0,0.0,-2.4928,-2.4966,-2.5212,-2.5308,-2.5308,-2.5308,-2.55,-2.5712,-2.5712,-2.7178,-2.8992,-3.0115,0.0,0.0,-3.6699,-3.8238,-3.9662,-4.2431,-4.2585,0.0,0.0,0.0,0.0,0.0,0.0,0.0,0.0,0.0,0.0,0.0,0.0,0.0,0.0,0.0,0.0,0.0,0.0,0.0,0.0,-4.5594,-4.5594,-4.5594,-4.5594,-4.5594,-4.5594,-4.5594,-4.5594,-4.5594,-4.5776,-4.5881,-4.5907,-4.6175,-4.6308,-4.6308,-4.6308,-4.6308,-4.6289,-4.6168,-4.6064,-4.5983,-4.5815,-4.5688,-4.562,-4.5754,-4.5803,-4.5821,0.0,0.0,0.0,0.0,0.0,0.0,0.0,0.0,0.0,0.0,0.0,0.0,0.0,0.0,0.0,0.0,0.0,0.0,-2.419,-2.419,-2.4284,-2.4486,-2.5471,-2.6494,-2.7554,-2.941,-3.0841,-3.1799,-3.1857,-3.1414,-3.0466,-2.9601,-2.8718,-2.7857,-2.6986,-2.6601,-2.6524,-2.5673,-2.5308,-2.5308,-2.5308,-2.5308,0.0,0.0,0.0,0.0,0.0,0.0,0.0,0.0,-2.4091,-2.4221,-2.5019,-2.5288,-2.5308,-2.5308,-2.5923,-2.6601,-2.6582,-2.7255,-2.8332,0.0,0.0,0.0,-3.8361,-3.8661,-3.9469,-4.4556,0.0,-4.3104,-4.3104,0.0,0.0,0.0,0.0,0.0,0.0,0.0,0.0,0.0,0.0,0.0,0.0,0.0,0.0,0.0,0.0,0.0,0.0,-4.5594,-4.5594,-4.5594,-4.5594,-4.5594,-4.5594,-4.5594,-4.5594,-4.5594,-4.5733,-4.585,-4.5907,-4.6174,-4.6308,-4.6308,-4.6308,-4.6308,-4.6289,-4.6149,-4.5971,-4.5783,-4.564,-4.5594,-4.562,-4.5747,-4.5796,-4.5803,0.0,0.0,0.0,0.0,0.0,0.0,0.0,0.0,0.0,0.0,0.0,0.0,0.0,0.0,0.0,0.0,0.0,0.0,-2.419,-2.419,-2.4228,-2.4284,-2.484,-2.5305,-2.5615,-2.7017,-2.9052,-3.1799,-3.1297,-3.0581,-2.9637,-2.8753,-2.7873,-2.6967,-2.6717,-2.625,-2.5673,-2.5404,-2.5308,-2.5308,-2.5308,-2.5308,0.0,0.0,0.0,0.0,0.0,0.0,0.0,0.0,0.0,0.0,-2.4182,-2.4832,-2.5308,-2.5308,-2.5923,-2.6467,-2.5846,-2.8082,0.0,-3.1198,0.0,0.0,0.0,-4.0854,0.0,0.0,0.0,0.0,0.0,0.0,0.0,0.0,0.0,0.0,0.0,0.0,0.0,0.0,0.0,0.0,0.0,0.0,0.0,0.0,0.0,0.0,0.0,-4.5594,-4.5594,-4.5594,-4.5594,-4.5594,-4.5594,-4.5594,-4.5594,-4.5594,-4.5733,-4.585,-4.5903,-4.608,-4.615,-4.6152,-4.6268,-4.6199,-4.6001,-4.5915,-4.5803,-4.5668,-4.562,-4.5594,-4.5603,-4.5651,-4.5657,-4.568,0.0,0.0,0.0,0.0,0.0,0.0,0.0,0.0,0.0,0.0,-2.3404,-2.3703,0.0,0.0,0.0,0.0,0.0,0.0,0.0,-2.419,-2.419,-2.419,-2.4512,-2.4911,-2.5382,-2.6103,-2.7544,-2.9733,-2.9629,-2.9129,-2.8229,-2.8371,-2.7957,-2.7121,-2.7448,-2.7121,-2.6308,-2.5962,-2.5615,-2.5308,-2.5308,-2.5308,-2.5308,0.0,0.0,0.0,0.0,0.0,0.0,0.0,0.0,0.0,-2.3841,-2.4202,-2.4442,-2.5096,-2.5923,-2.6717,-2.7192,-2.9692,0.0,-3.343,-3.6526,-3.9912,-4.2258,0.0,0.0,0.0,0.0,0.0,0.0,0.0,0.0,0.0,0.0,0.0,0.0,0.0,0.0,0.0,0.0,0.0,0.0,0.0,0.0,0.0,0.0,0.0,0.0,-4.5594,-4.5594,-4.5594,-4.5594,-4.5594,-4.5594,-4.5594,-4.5594,-4.5594,-4.5688,-4.577,-4.5866,-4.5967,-4.608,-4.6175,-4.6202,-4.6075,-4.5855,-4.5821,-4.573,-4.5594,-4.5594,-4.5594,-4.5594,-4.5594,-4.5594,-4.5612,0.0,0.0,0.0,0.0,0.0,0.0,0.0,0.0,0.0,0.0,-2.3703,-2.3692,0.0,0.0,0.0,0.0,0.0,0.0,0.0,0.0,-2.419,-2.419,-2.4393,-2.5023,-2.6136,-2.6181,-2.6279,-2.6446,-2.7346,-2.7332,-2.6524,-2.8203,-2.8569,-2.7818,-2.8626,-2.8549,-2.7717,-2.6851,-2.6019,-2.5308,-2.5308,-2.5308,-2.5288,-2.5212,0.0,0.0,0.0,0.0,0.0,0.0,0.0,0.0,-2.3725,-2.349,-2.322,-2.4731,-2.5865,-2.7121,-2.9519,0.0,0.0,0.0,0.0,0.0,0.0,0.0,0.0,0.0,0.0,0.0,0.0,0.0,0.0,0.0,0.0,0.0,0.0,0.0,0.0,0.0,0.0,0.0,0.0,0.0,0.0,0.0,0.0,0.0,0.0,-4.5594,-4.5594,-4.5594,-4.5594,-4.5594,-4.5594,-4.5594,-4.5594,-4.5594,-4.5594,-4.5673,-4.5803,-4.5871,-4.603,-4.6267,-4.6113,-4.5951,-4.5796,-4.5783,-4.5715,-4.5594,-4.5594,-4.5594,-4.5594,-4.5594,-4.5594,-4.5594,0.0,0.0,0.0,0.0,0.0,0.0,0.0,0.0,0.0,0.0,0.0,0.0,0.0,0.0,0.0,0.0,0.0,0.0,0.0,0.0,-2.419,-2.419,-2.4393,-2.4709,-2.5106,-2.5228,-2.529,-2.5344,-2.6376,-2.6428,-2.5615,-2.7351,-2.7698,-2.6928,-2.7775,-2.7678,-2.6813,-2.5942,-2.5462,-2.5308,-2.5308,-2.5308,-2.5231,-2.4601,-2.4356,0.0,0.0,0.0,0.0,0.0,0.0,0.0,-2.3028,-2.3413,-2.3898,-2.424,-2.5409,-2.6871,0.0,-3.0621,0.0,0.0,0.0,0.0,0.0,0.0,0.0,0.0,0.0,0.0,0.0,0.0,0.0,0.0,0.0,0.0,0.0,0.0,0.0,0.0,0.0,0.0,0.0,0.0,0.0,0.0,0.0,0.0,-4.5594,-4.5594,-4.5594,-4.5594,-4.5594,-4.5594,-4.5594,-4.5594,-4.5594,0.0,-4.5594,-4.5673,-4.5803,-4.5815,-4.5876,-4.5978,-4.5783,-4.5742,-4.579,-4.5696,-4.5637,-4.5594,-4.5594,-4.5594,-4.5594,-4.5594,-4.5594,-4.5594,0.0,0.0,0.0,0.0,0.0,0.0,0.0,0.0,0.0,0.0,0.0,0.0,0.0,0.0,0.0,0.0,0.0,0.0,0.0,-2.419,-2.419,-2.419,-2.4303,-2.4444,-2.4647,-2.4816,-2.4949,-2.5004,-2.5669,-2.5962,-2.5962,-2.7659,-2.8448,-2.8442,-2.889,-2.8602,-2.7717,-2.6467,-2.5673,-2.5308,-2.5308,-2.5077,-2.4678,-2.4259,-2.3841,-2.3471,-2.3471,0.0,0.0,0.0,0.0,0.0,0.0,0.0,-2.2932,-2.3355,-2.4394,-2.5856,0.0,0.0,0.0,0.0,0.0,0.0,0.0,0.0,0.0,0.0,0.0,0.0,0.0,0.0,0.0,0.0,0.0,0.0,0.0,0.0,0.0,0.0,0.0,0.0,0.0,0.0,0.0,0.0,0.0,-4.5594,-4.5594,-4.5594,-4.5594,-4.5594,-4.5594,-4.5594,-4.5594,-4.5594,-4.5594,-4.5594,-4.5594,-4.5635,-4.5708,-4.5808,-4.5799,-4.5745,-4.5699,-4.5692,-4.5692,-4.5627,-4.5594,-4.5594,-4.5594,-4.5594,-4.5594,-4.5594,-4.5594,-4.5594,0.0,0.0,0.0,0.0,0.0,0.0,0.0,0.0,0.0,0.0,0.0,0.0,0.0,0.0,0.0,0.0,0.0,0.0,0.0,-2.419,-2.419,-2.419,-2.419,-2.4275,-2.4435,-2.4678,-2.4855,-2.4968,-2.5192,-2.5962,-2.7274,-2.853,-2.9563,-3.0385,-3.0231,-2.9698,-2.878,-2.6948,-2.5755,-2.5077,-2.4923,-2.4466,-2.386,-2.3706,-2.3201,-2.2586,-2.2586,-2.3047,-2.3706,-2.3995,0.0,0.0,0.0,0.0,-2.1831,-2.2408,-2.3297,-2.4745,0.0,0.0,0.0,0.0,0.0,0.0,0.0,0.0,0.0,0.0,0.0,0.0,0.0,0.0,0.0,0.0,0.0,0.0,0.0,0.0,0.0,0.0,0.0,0.0,0.0,0.0,0.0,0.0,0.0,-4.5594,-4.5594,-4.5594,-4.5594,-4.5594,-4.5594,-4.5594,-4.5594,-4.5594,-4.5594,-4.5594,-4.5594,-4.5594,-4.5603,-4.5776,-4.5751,-4.5603,-4.5723,-4.57,-4.5594,-4.5594,-4.5594,-4.5594,-4.5594,-4.5594,-4.5594,-4.5594,-4.5594,-4.5594,0.0,0.0,0.0,0.0,0.0,0.0,0.0,0.0,0.0,0.0,-2.4123,-2.4016,-2.3724,-2.3966,0.0,0.0,0.0,0.0,-2.419,0.0,0.0,-2.419,-2.419,-2.4209,-2.4247,-2.4607,-2.4811,-2.484,-2.5143,-2.6885,-2.9885,-2.9352,-2.9563,-3.0365,-2.9602,-2.8819,-2.7895,-2.5471,-2.4375,-2.4182,-2.3432,-2.3067,-2.2893,-2.212,-2.1773,-2.1677,-2.1677,-2.1754,-2.2081,-2.3586,-2.411,0.0,0.0,0.0,0.0,-2.187,-2.2836,-2.4356,0.0,0.0,0.0,0.0,0.0,0.0,0.0,0.0,0.0,0.0,0.0,0.0,0.0,0.0,0.0,0.0,0.0,0.0,0.0,0.0,0.0,0.0,0.0,0.0,0.0,0.0,0.0,0.0,-4.5594,-4.5594,-4.5594,-4.5594,-4.5594,-4.5594,-4.5594,-4.5594,-4.5594,-4.5594,-4.5594,-4.5594,-4.5594,-4.5594,-4.5594,-4.5635,-4.5635,-4.5594,-4.5629,-4.562,-4.5594,-4.5594,-4.5594,-4.5594,-4.5594,-4.5594,-4.5594,-4.5594,-4.5594,-4.5594,0.0,0.0,0.0,0.0,0.0,0.0,0.0,0.0,0.0,0.0,0.0,-2.4151,-2.3996,-2.4103,0.0,0.0,0.0,0.0,-2.419,-2.419,0.0,-2.419,-2.419,-2.419,-2.419,-2.4118,-2.4318,-2.4804,-2.4678,-2.6851,-3.1115,-3.0737,-3.1756,-3.3846,-3.2045,-3.0775,-2.9833,-2.6794,-2.4952,-2.4072,-2.3682,-2.3798,-2.4005,-2.2197,-2.21,-2.2778,-2.135,-2.1115,-2.1696,-2.2951,-2.3706,-2.3956,0.0,0.0,0.0,0.0,0.0,0.0,-2.6005,0.0,0.0,0.0,0.0,0.0,0.0,0.0,0.0,0.0,0.0,0.0,0.0,0.0,0.0,0.0,0.0,0.0,0.0,0.0,0.0,0.0,0.0,0.0,0.0,0.0,0.0,0.0,-4.5594,-4.5594,-4.5594,-4.5594,-4.5594,-4.5594,-4.5594,-4.5594,-4.5594,-4.5594,-4.5594,-4.5594,-4.5594,-4.5594,-4.5594,-4.5594,-4.5594,-4.5594,-4.5594,-4.5594,-4.5594,-4.5594,-4.5594,-4.5594,-4.5594,-4.5594,-4.5594,-4.5594,-4.5594,-4.5594,0.0,0.0,0.0,0.0,0.0,0.0,0.0,0.0,0.0,0.0,0.0,0.0,-2.419,0.0,0.0,0.0,0.0,0.0,-2.419,0.0,0.0,0.0,0.0,-2.4218,-2.4284,-2.3779,-2.3929,-2.4855,-2.4356,-2.6703,-3.1698,-3.1698,-3.3737,-3.7238,-3.4468,-3.2545,-3.1154,-2.7967,-2.6005,-2.5029,-2.4586,-2.4755,-2.5154,-2.3908,-2.4105,-2.4779,-2.2658,-2.2135,-2.2524,0.0,0.0,0.0,0.0,0.0,0.0,0.0,0.0,0.0,0.0,0.0,0.0,0.0,0.0,0.0,0.0,0.0,0.0,0.0,0.0,0.0,0.0,0.0,0.0,0.0,0.0,0.0,0.0,0.0,0.0,0.0,0.0,0.0,0.0,0.0,0.0,0.0,-4.5594,-4.5594,-4.5594,-4.5594,-4.5594,-4.5594,-4.5594,-4.5594,-4.5594,-4.5594,-4.5594,-4.5594,-4.5594,-4.5594,-4.5594,-4.5594,-4.5594,-4.5594,-4.5594,-4.5594,-4.5594,-4.5594,-4.5594,-4.5594,-4.5594,-4.5594,-4.5594,-4.5594,-4.5594,-4.5594,0.0,0.0,0.0,0.0,0.0,0.0,0.0,0.0,0.0,0.0,0.0,0.0,-2.419,-2.3917,-2.3724,-2.3724,0.0,0.0,0.0,0.0,0.0,0.0,0.0,0.0,-2.4478,-2.3836,-2.3997,-2.4992,-2.4383,-2.6703,-3.1698,-3.1698,-3.4372,-3.9015,-3.5648,-3.2776,-3.0308,-2.7692,-2.7024,-2.7568,-2.5904,-2.5269,-2.5558,-2.7832,-2.8299,-2.7588,-2.6621,0.0,0.0,0.0,0.0,0.0,0.0,0.0,-2.1408,0.0,0.0,0.0,0.0,0.0,0.0,0.0,0.0,0.0,0.0,0.0,0.0,0.0,0.0,0.0,0.0,0.0,0.0,0.0,0.0,0.0,0.0,0.0,0.0,0.0,0.0,0.0,0.0,0.0,0.0,0.0,-4.5594,-4.5594,-4.5594,-4.5594,-4.5594,-4.5594,-4.5594,-4.5594,-4.5594,-4.5594,-4.5594,-4.5594,-4.5594,-4.5594,-4.5594,-4.5594,-4.5594,-4.5594,-4.5594,-4.5594,-4.5594,-4.5594,-4.5594,-4.5594,-4.5594,-4.5594,-4.5594,-4.5594,-4.5594,-4.5594,0.0,0.0,0.0,0.0,0.0,0.0,0.0,0.0,0.0,0.0,0.0,0.0,0.0,-2.4094,-2.4016,-2.4016,-2.4016,0.0,0.0,0.0,0.0,0.0,0.0,0.0,0.0,-2.3296,-2.3189,-2.4236,-2.3578,-2.5317,-2.9275,-3.0365,-3.1846,-3.3583,-3.343,-3.316,-3.2564,-2.839,-2.6774,0.0,-2.639,-2.7442,-2.9327,-2.8602,-2.9838,-3.1628,-2.9107,0.0,0.0,0.0,0.0,0.0,-2.299,-2.2586,-2.2062,-2.0692,-2.1062,0.0,0.0,0.0,0.0,0.0,0.0,0.0,0.0,0.0,0.0,0.0,0.0,0.0,0.0,0.0,0.0,0.0,0.0,0.0,0.0,0.0,0.0,0.0,0.0,0.0,0.0,0.0,0.0,0.0,0.0,-4.5364,-4.4797,-4.4759,-4.4528,-4.4008,-4.3989,-4.3989,-4.3989,-4.3989,-4.3989,-4.3989,-4.3989,-4.3989,-4.4008,-4.4528,-4.4759,-4.4797,-4.5364,-4.5594,-4.5594,-4.5594,-4.5594,-4.5594,-4.5594,-4.5594,-4.5594,-4.5594,-4.5594,-4.5594,0.0,0.0,0.0,0.0,0.0,0.0,0.0,0.0,-2.419,-2.419,0.0,0.0,0.0,0.0,-2.4026,-2.4026,-2.4026,-2.3986,-2.3886,-2.4143,0.0,0.0,0.0,0.0,0.0,-2.3378,-2.3095,-2.3791,-2.3136,-2.4394,-2.7486,-2.8596,-2.9731,-3.0846,-3.1102,-3.2025,-3.3141,0.0,0.0,-2.8332,0.0,-2.991,-3.1737,-3.2025,-3.334,-3.4776,0.0,0.0,0.0,0.0,0.0,0.0,-2.4005,-2.287,-2.1735,-2.0635,-2.1273,0.0,-2.235,0.0,0.0,0.0,0.0,0.0,0.0,0.0,0.0,0.0,0.0,0.0,0.0,0.0,0.0,0.0,0.0,0.0,0.0,0.0,0.0,0.0,0.0,0.0,0.0,0.0,0.0,0.0,0.0,0.0,-4.3932,-4.3893,-4.3643,-4.3124,-4.3104,-4.3104,-4.3104,-4.3104,-4.3104,-4.3104,-4.3104,-4.3104,-4.3124,-4.3643,-4.3893,-4.3932,-4.4509,-4.5075,-4.5594,-4.5594,-4.5594,-4.5594,-4.5594,-4.5594,-4.5594,-4.5594,-4.5594,-4.5594,0.0,0.0,0.0,0.0,0.0,0.0,0.0,0.0,-2.419,-2.419,0.0,0.0,0.0,0.0,0.0,-2.3739,-2.3739,-2.3873,-2.417,-2.4384,0.0,0.0,0.0,0.0,-2.479,-2.4126,-2.3786,-2.3753,-2.3117,-2.4062,-2.6486,-2.6544,-2.8352,-3.1448,-2.9025,-2.9294,-3.1583,0.0,-3.1583,-3.1756,0.0,-3.2449,-3.2545,0.0,0.0,0.0,-3.7796,-3.7007,0.0,-3.2718,0.0,0.0,0.0,-2.3038,-2.0365,-2.0365,-2.0942,0.0,0.0,0.0,0.0,0.0,0.0,0.0,0.0,0.0,0.0,0.0,0.0,0.0,0.0,0.0,0.0,0.0,0.0,0.0,0.0,0.0,0.0,0.0,0.0,0.0,0.0,0.0,0.0,0.0,-4.3104,-4.3085,-4.3066,-4.3047,-4.3028,-4.3028,-4.3028,-4.3028,-4.3028,-4.3028,-4.3028,-4.3028,-4.3028,-4.3028,-4.3028,-4.3047,-4.3066,-4.3066,-4.3085,-4.4008,-4.5537,-4.5556,-4.5556,-4.5556,-4.5594,-4.5594,-4.5594,-4.5594,-4.5594,-4.5594,0.0,0.0,0.0,0.0,0.0,-2.3917,-2.4161,-2.419,-2.419,0.0,0.0,0.0,-2.4263,-2.4644,-2.4832,-2.4581,-2.4782,-2.4608,-2.3902,-2.4124,-2.4275,-2.4275,-2.4348,-2.4426,-2.4575,-2.3924,-2.3354,-2.2865,-2.2825,-2.3163,-2.387,-2.5096,-2.65,-2.8025,-2.8549,-2.8838,-2.8871,-2.7615,0.0,-3.1602,-3.0564,-3.2974,0.0,0.0,0.0,0.0,0.0,-3.8719,-3.7199,0.0,-3.3333,-2.9192,0.0,0.0,-2.21,-2.21,-2.272,-2.324,-2.2605,0.0,0.0,0.0,0.0,0.0,0.0,0.0,0.0,0.0,0.0,0.0,0.0,0.0,0.0,0.0,0.0,0.0,0.0,0.0,0.0,0.0,0.0,0.0,0.0,0.0,0.0,0.0,-4.3104,-4.2816,-4.22,-4.1566,-4.1227,-4.1227,-4.1227,-4.1227,-4.1227,-4.1227,-4.1227,-4.1227,-4.1227,-4.1227,-4.1247,-4.1873,-4.2162,-4.22,-4.2835,-4.3355,-4.3835,-4.4412,-4.4662,-4.472,-4.5344,-4.5594,-4.5594,-4.5594,-4.5594,-4.5594,0.0,0.0,0.0,0.0,0.0,-2.4587,-2.5124,-2.4924,-2.4824,0.0,0.0,0.0,-2.5493,-2.6451,-2.6594,-2.5344,-2.5346,-2.4984,-2.3971,-2.4172,-2.433,-2.433,-2.441,-2.4461,-2.4503,-2.4252,-2.3733,-2.293,-2.3203,-2.3163,-2.2836,-2.4178,-2.4889,-2.5063,-2.6414,-2.6741,-2.6241,-2.5236,0.0,0.0,-3.1814,0.0,0.0,-3.8796,-4.0585,0.0,0.0,0.0,-3.9992,-3.9139,-3.5326,0.0,0.0,0.0,0.0,-2.3009,-2.3607,0.0,-2.3111,0.0,0.0,0.0,0.0,0.0,0.0,0.0,0.0,0.0,0.0,0.0,0.0,0.0,0.0,0.0,0.0,0.0,0.0,0.0,0.0,0.0,0.0,0.0,0.0,-4.2008,-4.2008,-4.2008,-4.2008,-4.1797,-4.1277,-4.0785,-4.0496,-4.0496,-4.0496,-4.0496,-4.0496,-4.0496,-4.0496,-4.0496,-4.0496,-4.0496,-4.0516,-4.1027,-4.1258,-4.1296,-4.1797,-4.2008,-4.2085,-4.2912,-4.347,-4.3874,-4.472,-4.5056,-4.5094,-4.5479,-4.5594,-4.5594,0.0,0.0,-2.3572,-2.4694,-2.5149,-2.5656,-2.6583,-2.6043,-2.5862,0.0,-2.6553,-2.6775,-2.7999,-2.9034,-2.8727,-2.6448,-2.5809,-2.5191,-2.4401,-2.4421,-2.4461,-2.4461,-2.4639,-2.4662,-2.4503,-2.4811,-2.4512,-2.3532,-2.3823,-2.3605,-2.2951,-2.3644,-2.3586,-2.299,-2.3744,-2.411,-2.411,-2.4302,0.0,-2.9646,-3.4276,-3.6115,0.0,0.0,-4.3181,-4.236,-4.3424,-4.3561,-4.2898,-4.0664,-3.655,0.0,0.0,0.0,0.0,0.0,-2.4333,0.0,-2.3698,-2.3694,0.0,0.0,0.0,0.0,-2.6676,-2.7431,0.0,0.0,0.0,0.0,0.0,0.0,0.0,0.0,0.0,0.0,0.0,0.0,0.0,0.0,0.0,0.0,-4.0362,-4.0458,-4.0496,-4.0496,-4.0496,-4.0496,-4.0496,-4.0496,-4.0496,-4.0496,-4.0496,-4.0496,-4.0496,-4.0496,-4.0496,-4.0496,-4.0496,-4.0496,-4.0496,-4.0496,-4.0496,-4.0496,-4.0496,-4.0496,-4.0554,-4.1335,-4.2181,-4.3047,-4.3855,-4.422,-4.4393,-4.5171,-4.5518,-4.5594,0.0,-2.3153,-2.3572,-2.4694,-2.4957,-2.5586,-2.7295,-2.6888,-2.6956,-2.8646,-2.955,-3.0887,-3.3109,-3.1608,-3.0269,-2.9773,-2.7668,-2.6025,-2.5209,-2.4596,-2.4266,-2.4266,-2.4294,-2.4375,-2.4503,-2.4719,-2.4485,-2.3744,-2.3275,-2.3336,-2.3841,-2.3297,-2.3336,-2.386,-2.4014,-2.411,-2.4187,0.0,0.0,-3.0288,-3.1987,0.0,-3.965,-4.0804,-4.2747,-4.4771,-4.4036,-4.3905,-4.3596,-4.0479,-3.8074,-3.5738,0.0,0.0,0.0,-2.7601,0.0,-2.784,-2.6848,0.0,0.0,0.0,0.0,0.0,-2.5057,-2.5724,0.0,0.0,0.0,0.0,0.0,0.0,0.0,0.0,0.0,0.0,0.0,0.0,0.0,0.0,0.0,0.0,-3.9534,-4.0131,-4.0496,-4.0496,-4.0496,-4.0496,-4.0496,-4.0496,-4.0496,-4.0496,-4.0496,-4.0496,-4.0496,-4.0496,-4.0496,-4.0496,-4.0496,-4.0496,-4.0496,-4.0496,-4.0496,-4.0496,-4.0496,-4.0496,-4.0516,-4.0689,-4.1277,-4.2143,-4.3008,-4.372,-4.4316,-4.4489,-4.4998,-4.5498,-2.3165,-2.3335,-2.4006,-2.5797,-2.5898,-2.6614,-2.9207,-2.8576,-2.8784,-3.1534,-3.3705,-3.4807,-3.4319,-3.3705,-3.2503,-3.0424,-2.838,-2.6686,-2.5485,-2.4658,-2.419,-2.419,-2.419,-2.4256,-2.4339,-2.4647,-2.4639,-2.4302,-2.3734,-2.3451,-2.3451,-2.3451,-2.3451,-2.3471,-2.3918,-2.4317,-2.4736,0.0,-2.6813,-2.9486,-3.3314,0.0,-4.0689,-4.2382,-4.4113,-4.5484,-4.4535,-4.3926,-4.3153,-4.0433,-3.8623,0.0,0.0,-3.2627,-3.2182,0.0,-2.9196,-2.9355,-2.779,0.0,0.0,-2.6806,0.0,0.0,0.0,0.0,-2.583,0.0,0.0,0.0,0.0,0.0,0.0,0.0,0.0,0.0,0.0,0.0,0.0,0.0,0.0,0.0,-3.8604,-3.9008,-3.9238,-3.9238,-3.9669,-3.99,-3.99,-4.0285,-4.0496,-4.0496,-4.0496,-4.0496,-4.0496,-4.0496,-4.0496,-4.0496,-4.0496,-4.0496,-4.0496,-4.0496,-4.0496,-4.0496,-4.0496,-4.0496,-4.0496,-4.0496,-4.0766,-4.1239,-4.2104,-4.2701,-4.3104,-4.3547,-4.397,-4.4278,-2.3392,-2.3599,-2.4458,-2.6576,-2.6885,-2.7805,-3.0717,-3.021,-3.0768,-3.437,-3.7201,-3.7955,-3.5561,-3.6079,-3.5258,-3.1874,-2.9821,-2.811,-2.6641,-2.5374,-2.4667,-2.4667,-2.4373,-2.4292,-2.4477,-2.4661,-2.4763,-2.4835,-2.4146,-2.3544,-2.3067,-2.3605,-2.3471,-2.2836,-2.3875,-2.4793,0.0,0.0,0.0,-3.0063,0.0,-3.8316,-3.9708,-4.344,-4.4883,-4.4841,-4.4748,-4.3938,-4.2623,-4.0603,-3.9121,-3.7602,-3.4592,-3.4017,0.0,0.0,0.0,0.0,0.0,0.0,0.0,0.0,0.0,-2.7293,0.0,0.0,0.0,-2.59,0.0,0.0,0.0,0.0,0.0,0.0,0.0,0.0,0.0,0.0,0.0,0.0,0.0,0.0,0.0,-3.7411,-3.7642,-3.7988,-3.8354,-3.87,-3.9034,-3.9823,-4.0265,-4.0265,-4.0419,-4.0496,-4.0496,-4.0496,-4.0496,-4.0496,-4.0496,-4.0496,-4.0496,-4.0496,-4.0496,-4.0496,-4.0496,-4.0496,-4.0496,-4.0496,-4.0496,-4.0573,-4.1277,-4.1662,-4.1885,-4.2585,-4.297,-4.3085,-2.4084,-2.4132,-2.4444,-2.5444,-2.6749,-2.8264,-3.0063,-3.0797,-3.2416,-3.5957,-3.7767,-3.9323,-4.0894,-3.9683,-3.8549,-3.8083,-3.4356,-3.1678,-3.0772,-2.7952,-2.6337,-2.6337,-2.4961,-2.4625,-2.5504,-2.4876,-2.4689,-2.498,-2.3435,-2.312,-2.3937,-2.3259,-2.2893,-2.2874,-2.4462,0.0,0.0,0.0,-2.9948,0.0,-3.6203,-3.5812,0.0,-4.0354,-4.2239,-4.2467,-4.4378,-4.4344,-4.3148,0.0,-4.0599,-3.9734,0.0,-3.5713,-3.6387,0.0,0.0,0.0,0.0,0.0,0.0,0.0,-3.0368,0.0,0.0,0.0,-2.6628,-2.5248,0.0,0.0,0.0,0.0,0.0,0.0,0.0,0.0,0.0,0.0,0.0,0.0,0.0,0.0,0.0,-3.5334,-3.6404,-3.7892,-3.6719,-3.6577,-3.8065,-3.8969,-3.9438,-3.9438,-4.0131,-4.0496,-4.0496,-4.0496,-4.0496,-4.0496,-4.0496,-4.0496,-4.0496,-4.0496,-4.0496,-4.0496,-4.0496,-4.0496,-4.0496,-4.0496,-4.0496,-4.0516,-4.0612,-4.1123,-4.1808,-4.1904,-4.245,-4.2989,-2.419,-2.419,-2.4593,-2.586,-2.6649,-2.7952,-3.0503,-3.3765,-3.6385,-3.7701,-3.9908,-4.146,-4.1678,0.0,0.0,0.0,0.0,-3.399,0.0,0.0,-2.8484,-2.8014,-2.6007,-2.5304,-2.6204,-2.5086,-2.4639,-2.4877,-2.3782,-2.3544,-2.4091,-2.3725,-2.4067,-2.5082,-2.6755,0.0,-2.9275,0.0,-3.0596,0.0,0.0,0.0,0.0,-4.0764,-4.3278,-4.3226,-4.439,-4.4252,-4.318,0.0,-4.0095,0.0,0.0,0.0,0.0,0.0,0.0,0.0,0.0,0.0,0.0,0.0,0.0,0.0,-2.6609,0.0,-2.5471,0.0,0.0,0.0,0.0,0.0,0.0,0.0,0.0,0.0,0.0,0.0,0.0,0.0,0.0,0.0,0.0,0.0,0.0,0.0,-3.4853,-3.5276,-3.6481,-3.7815,-3.8777,-3.9284,-3.9631,-4.0035,-4.0496,-4.0496,-4.0496,-4.0496,-4.0496,-4.0496,-4.0496,-4.0496,-4.0496,-4.0496,-4.0496,-4.0496,-4.0496,-4.0496,-4.0496,-4.0496,-4.0496,-4.0727,-4.1046,-4.1046,-4.1277,-4.1527,-2.4493,-2.4355,-2.463,-2.6025,-2.6649,-2.8172,-3.1825,-3.5694,-3.8464,-3.9249,-4.1171,0.0,-4.2387,-4.1871,0.0,0.0,-3.9116,-3.7092,0.0,0.0,-3.1005,-3.0656,-2.7915,-2.6649,-2.7244,-2.5818,-2.4993,-2.4804,-2.4016,-2.3762,-2.4015,-2.3955,-2.4612,-2.5929,-2.8071,-2.9958,-3.1559,0.0,0.0,-3.3106,-3.4367,-3.5,-3.5834,-4.1425,-4.3736,-4.4028,-4.4318,-4.4035,-4.3166,-4.0965,-4.0022,0.0,-3.7982,0.0,0.0,0.0,0.0,0.0,-3.2834,0.0,0.0,0.0,0.0,0.0,0.0,0.0,0.0,0.0,0.0,0.0,0.0,0.0,0.0,0.0,0.0,0.0,0.0,0.0,0.0,0.0,0.0,0.0,0.0,0.0,0.0,0.0,0.0,-3.3141,-3.4692,-3.618,-3.745,-3.8546,-3.9053,-3.9573,-4.0169,-4.04,-4.0496,-4.0496,-4.0496,-4.0496,-4.0496,-4.0496,-4.0496,-4.0496,-4.0496,-4.0496,-4.0496,-4.0496,-4.0496,-4.0496,-4.0496,-4.0496,-4.0496,-4.0496,-4.0496,-4.0496,-2.5209,-2.4732,0.0,0.0,0.0,-2.9365,-3.416,-3.5295,-3.6925,-4.0538,0.0,0.0,0.0,0.0,0.0,0.0,0.0,-4.1754,-4.0875,0.0,-3.4027,-3.477,-3.1005,-2.8895,0.0,0.0,0.0,-2.4804,-2.3752,-2.3419,-2.3816,-2.3606,-2.3657,-2.4032,-2.7338,-3.0125,-3.2419,-3.3272,-3.6716,-4.1444,-3.9564,-4.0554,-4.2973,0.0,-4.22,-4.3998,-4.3998,0.0,0.0,-4.1625,-4.1206,0.0,0.0,0.0,0.0,0.0,0.0,0.0,0.0,0.0,0.0,-3.0234,0.0,0.0,0.0,0.0,-2.7247,0.0,0.0,0.0,0.0,0.0,0.0,-2.6652,0.0,0.0,0.0,0.0,0.0,0.0,0.0,0.0,0.0,0.0,0.0,0.0,0.0,0.0,-3.2814,-3.3833,-3.5084,-3.6731,-3.8411,-3.9304,-3.9342,-4.0112,-4.0496,-4.0496,-4.0496,-4.0496,-4.0496,-4.0496,-4.0496,-4.0496,-4.0496,-4.0496,-4.0496,-4.0496,-4.0496,-4.0496,-4.0496,-4.0496,-4.0496,-4.0496,-4.0496,-4.0496,0.0,0.0,0.0,0.0,0.0,-2.8803,-3.4179,-3.6936,-3.9433,0.0,0.0,0.0,0.0,-4.581,-4.5828,0.0,0.0,-4.3883,-4.2029,-3.9848,0.0,0.0,0.0,-3.2192,0.0,0.0,0.0,0.0,0.0,-2.4712,-2.4452,-2.4474,-2.4835,-2.559,-2.8958,-3.1404,0.0,0.0,0.0,0.0,0.0,-4.0696,-4.3456,0.0,-4.3233,-4.3693,-4.3909,-4.3788,0.0,-4.2873,-4.2038,-4.118,-4.0793,-3.9461,-3.8026,-3.7911,-3.7331,0.0,0.0,0.0,-3.617,-3.2344,0.0,0.0,0.0,0.0,0.0,0.0,0.0,0.0,0.0,0.0,0.0,-2.6675,0.0,0.0,0.0,0.0,0.0,0.0,0.0,0.0,0.0,0.0,0.0,0.0,-2.839,0.0,0.0,-3.3122,-3.4718,-3.5865,-3.6988,-3.8123,-3.9284,-3.9573,-3.9977,-4.0496,-4.0496,-4.0496,-4.0496,-4.0496,-4.0496,-4.0496,-4.0496,-4.0496,-4.0496,-4.0496,-4.0496,-4.0496,-4.0496,-4.0496,-4.0496,-4.0496,-4.0496,-4.0496,-2.7446,0.0,0.0,0.0,0.0,-3.0687,-3.5202,-3.8652,0.0,0.0,-4.5057,0.0,-4.7792,0.0,-4.7425,0.0,-4.7241,-4.5847,-4.3718,-4.2561,0.0,-4.0047,-3.7404,0.0,0.0,0.0,0.0,0.0,0.0,-2.5846,-2.4693,-2.4715,-2.5045,-2.5809,0.0,-3.1563,-3.3384,0.0,-3.8377,0.0,0.0,-4.1644,0.0,0.0,-4.3695,-4.3531,0.0,-4.3677,-4.3515,-4.3515,-4.28,-4.1992,-4.2231,-4.0873,-3.92,-3.9129,-3.8395,-3.7459,-3.6886,-3.7107,0.0,-3.3788,-3.2632,0.0,-2.818,0.0,0.0,0.0,0.0,0.0,0.0,0.0,0.0,0.0,0.0,0.0,0.0,0.0,0.0,0.0,0.0,0.0,0.0,0.0,-2.5832,-2.6115,0.0,0.0,0.0,0.0,-3.3833,-3.5007,-3.6115,-3.7238,-3.8354,-3.8681,-3.9246,-4.0073,-4.0073,-4.0227,-4.0496,-4.0496,-4.0496,-4.0496,-4.0496,-4.0496,-4.0496,-4.0496,-4.0496,-4.0496,-4.0496,-4.0496,-4.0496,-4.0496,-4.0496,-4.0496,0.0,0.0,0.0,0.0,-3.1311,0.0,0.0,0.0,-4.3185,0.0,-4.6691,-4.781,-4.9389,-4.9629,-4.9665,-4.9665,-4.8875,-4.77,-4.6122,-4.4544,0.0,0.0,-4.0928,-3.9347,-3.7768,0.0,0.0,0.0,0.0,0.0,0.0,0.0,0.0,0.0,-2.7877,0.0,-3.3103,-3.7225,-4.0248,-4.2378,-4.3167,-4.3515,-4.3515,-4.3515,-4.3515,-4.3515,-4.3515,-4.3515,-4.3515,-4.3515,-4.3515,-4.3369,-4.2598,-4.2323,-4.1992,-4.0469,-3.9955,-3.9567,-3.8025,-3.7584,-3.6978,-3.4578,-3.3917,0.0,0.0,0.0,-3.2252,0.0,0.0,0.0,0.0,0.0,0.0,0.0,0.0,0.0,0.0,0.0,0.0,0.0,0.0,0.0,0.0,0.0,-2.4385,-2.5106,-2.5284,0.0,0.0,0.0,-3.2449,-3.409,-3.5757,-3.6654,-3.6692,-3.7526,-3.8392,-3.9304,-3.9304,-3.9727,-4.0496,-4.0496,-4.0496,-4.0496,-4.0496,-4.0496,-4.0496,-4.0496,-4.0496,-4.0496,-4.0496,-4.0496,-4.0496,-4.0496,-4.0496,-4.0496,-3.0008,-3.1164,-3.2651,0.0,-3.3935,-3.5037,0.0,0.0,0.0,0.0,-4.8067,-4.9334,-5.0362,-5.0472,-5.049,-5.049,-4.9738,0.0,0.0,0.0,0.0,-4.5002,-4.3424,-4.2084,-4.1093,-3.7077,0.0,-3.263,0.0,0.0,-2.6035,0.0,0.0,0.0,0.0,0.0,-3.2219,-3.5578,-3.9059,-4.2378,-4.3167,-4.3515,0.0,0.0,-4.3515,-4.3515,-4.3515,-4.3515,-4.3515,-4.3515,-4.3515,-4.346,-4.3259,-4.2782,-4.2213,-4.1809,-4.0836,-3.9808,-3.9402,-3.8836,-3.8102,-3.6868,-3.5605,-3.4325,0.0,0.0,0.0,0.0,0.0,0.0,0.0,0.0,0.0,0.0,0.0,0.0,0.0,0.0,0.0,0.0,0.0,0.0,0.0,0.0,-2.3708,-2.332,-2.5147,0.0,0.0,0.0,0.0,-3.3199,-3.4904,-3.6096,-3.6692,-3.6923,-3.7796,-3.9304,-3.9304,-3.9727,-4.0496,-4.0496,-4.0496,-4.0496,-4.0496,-4.0496,-4.0496,-4.0496,-4.0496,-4.0496,-4.0496,-4.0496,-4.0496,-4.0496,-4.0496,-4.0496,-3.2381,0.0,0.0,-3.8175,0.0,0.0,-4.1073,-4.2837,0.0,-4.7296,-4.9077,0.0,-5.0747,-5.1444,-5.172,-5.1353,-5.0894,0.0,-4.8398,0.0,0.0,-4.5975,-4.5021,-4.4176,-4.3369,-3.9609,0.0,-3.4307,0.0,0.0,-2.6054,0.0,0.0,0.0,0.0,-2.9118,0.0,-3.5919,-3.9588,-4.2378,-4.3167,0.0,0.0,-4.3515,-4.3515,-4.3515,-4.3515,-4.3515,-4.3515,-4.3515,-4.3515,-4.3515,-4.3515,-4.3185,-4.2763,-4.2396,-4.1662,-4.0799,-4.0084,-3.957,-3.9019,-3.8245,-3.7331,-3.6307,-3.5165,-3.5238,-3.5298,0.0,-3.4743,-3.4871,0.0,0.0,0.0,0.0,0.0,0.0,0.0,0.0,0.0,0.0,0.0,0.0,0.0,0.0,0.0,0.0,0.0,0.0,0.0,0.0,0.0,-3.2352,-3.4045,-3.5334,-3.6173,-3.6173,-3.6846,-3.8161,-3.8161,-3.8796,-3.9977,-3.9977,-4.0169,-4.0496,-4.0496,-4.0496,-4.0496,-4.0496,-4.0496,-4.0496,-4.0496,-4.0496,-4.0496,-4.0496,-4.0496,-4.0496,0.0,0.0,0.0,0.0,0.0,0.0,0.0,-4.5314,0.0,-4.8416,0.0,-5.1114,-5.1114,-5.2341,-5.2931,-5.2215,0.0,-5.1077,-4.893,-4.9317,-4.8637,-4.6471,-4.6177,-4.5681,-4.4856,-4.2379,0.0,0.0,0.0,0.0,0.0,0.0,0.0,0.0,0.0,0.0,0.0,-3.7312,-4.0818,-4.2378,-4.3167,-4.3515,-4.3515,-4.3515,-4.3515,-4.3515,-4.3515,-4.3515,-4.3515,-4.3515,-4.3515,-4.3515,-4.3515,-4.3515,-4.3368,-4.2653,-4.2378,-4.1992,-4.0579,-4.0047,-3.9717,-3.9038,-3.8781,-3.834,-3.6927,-3.6615,-3.6615,-3.6615,-3.5459,-3.5,0.0,0.0,0.0,0.0,0.0,0.0,0.0,0.0,0.0,0.0,0.0,0.0,0.0,0.0,0.0,0.0,0.0,0.0,0.0,0.0,0.0,-3.1679,-3.3333,-3.4622,-3.5481,-3.55,-3.5904,-3.6692,-3.6692,-3.7603,-3.9304,-3.9304,-3.9746,-4.0496,-4.0496,-4.0496,-4.0496,-4.0496,-4.0496,-4.0496,-4.0496,-4.0496,-4.0496,-4.0496,-4.0496,-4.0496,0.0,0.0,0.0,0.0,0.0,-4.5755,-4.7241,-4.77,-4.8489,-5.0141,-5.1775,-5.2784,-5.2784,-5.302,-5.313,-5.3004,-5.238,0.0,0.0,0.0,0.0,-4.8968,-4.7627,-4.6507,-4.5718,-4.2655,-3.9772,0.0,0.0,0.0,-2.7339,0.0,0.0,0.0,0.0,0.0,-3.4417,-3.8267,0.0,-4.2378,-4.3167,-4.3515,-4.3515,-4.3515,-4.3515,-4.3515,-4.3515,-4.3515,-4.3515,-4.3515,-4.3515,-4.3515,-4.3515,-4.3515,-4.3478,-4.3331,-4.2818,-4.2249,-4.1956,-4.091,-3.9863,-3.9717,-3.9184,-3.8634,-3.834,-3.8285,-3.8285,-3.8285,-3.8046,-3.7349,-3.5738,0.0,0.0,0.0,0.0,0.0,0.0,0.0,0.0,0.0,0.0,0.0,0.0,0.0,0.0,0.0,0.0,0.0,0.0,0.0,0.0,0.0,-3.3333,0.0,0.0,0.0,-3.5904,-3.6692,-3.6692,-3.7603,-3.9304,-3.9304,-3.9746,-4.0496,-4.0496,-4.0496,-4.0496,-4.0496,-4.0496,-4.0496,-4.0496,-4.0496,-4.0496,-4.0496,-4.0496,-4.0496,0.0,0.0,0.0,0.0,0.0,0.0,0.0,-5.1555,-5.1775,-5.0912,-5.1481,-5.1958,-5.1958,-5.2711,-5.3185,-5.3185,-5.2858,-5.2454,-5.2013,-5.1261,-5.0473,-4.9647,-4.8398,0.0,-4.6526,-4.3773,-4.0965,-3.812,0.0,0.0,-2.7761,0.0,0.0,0.0,0.0,-3.1549,0.0,0.0,0.0,-4.2378,-4.3167,-4.3515,-4.3515,-4.3515,-4.3515,-4.3515,-4.3515,-4.3515,-4.3515,-4.3515,-4.3515,-4.3515,-4.3515,-4.3515,-4.3515,-4.3515,-4.3222,-4.2818,-4.2415,-4.1442,-4.0414,-3.9992,-3.9294,-3.8707,-3.8707,-3.8707,-3.8707,-3.8707,-3.8707,-3.7955,-3.5463,-3.3041,0.0,0.0,0.0,0.0,0.0,0.0,0.0,0.0,0.0,0.0,0.0,0.0,0.0,0.0,0.0,0.0,0.0,0.0,0.0,0.0,0.0,0.0,0.0,0.0,-3.5692,-3.6077,-3.6077,-3.6969,-3.8623,-3.8623,-3.9323,-4.0496,-4.0496,-4.0496,-4.0496,-4.0496,-4.0496,-4.0496,-4.0496,-4.0496,-4.0496,-4.0496,-4.0496,-4.0496,0.0,-4.6104,0.0,0.0,-5.0215,0.0,-5.3002,-5.4564,-5.4675,-5.2142,-5.1665,-5.1573,-5.1573,-5.2546,-5.3185,-5.3185,-5.3185,-5.2931,-5.2289,-5.2087,-5.1373,-4.9922,-4.9022,-4.8122,-4.7113,-4.5076,-4.2433,0.0,0.0,0.0,0.0,0.0,0.0,0.0,0.0,0.0,0.0,0.0,-4.1075,-4.2598,-4.3239,-4.3515,-4.3515,-4.3515,-4.3515,-4.3515,-4.3515,-4.3515,-4.3515,-4.3515,-4.3515,-4.3515,-4.3515,-4.3515,-4.3515,-4.3515,-4.3515,-4.3368,-4.2727,-4.1974,-4.115,-4.0359,-3.9551,-3.8909,-3.8744,-3.8707,-3.8707,-3.8707,-3.856,-3.7753,-3.5426,-3.3959,0.0,0.0,0.0,0.0,0.0,0.0,0.0,0.0,0.0,0.0,0.0,0.0,0.0,0.0,0.0,0.0,-2.4043,-2.487,-2.6788,0.0,0.0,-3.2756,-3.4923,0.0,-3.55,-3.55,-3.55,-3.6385,-3.8007,-3.8007,-3.8911,-4.0496,-4.0496,-4.0496,-4.0496,-4.0496,-4.0496,-4.0496,-4.0496,-4.0496,-4.0496,-4.0496,-4.0496,-4.0496,0.0,0.0,0.0,0.0,0.0,0.0,-5.3167,-5.4564,-5.5504,-5.5192,-5.4509,-5.4069,-5.4069,-5.3555,-5.3185,-5.3185,-5.3185,-5.3167,-5.3075,-5.2399,-5.161,-5.0729,-4.9903,-4.8728,-4.7131,-4.6159,-4.4103,0.0,0.0,-3.4339,0.0,0.0,0.0,0.0,0.0,0.0,0.0,-4.027,-4.1919,-4.3404,-4.3478,-4.3515,-4.3515,-4.3515,-4.3515,-4.3515,-4.3515,-4.3515,-4.3515,-4.3515,-4.3515,-4.3515,-4.3515,-4.3515,-4.3515,-4.3515,-4.3515,-4.3478,-4.3423,-4.28,-4.1992,-4.1187,-4.0377,-3.9588,-3.8872,-3.8707,-3.8707,-3.8707,-3.812,-3.7088,-3.5316,-3.4876,-3.3775,0.0,0.0,0.0,0.0,0.0,0.0,0.0,0.0,0.0,0.0,0.0,0.0,0.0,0.0,0.0,-2.4077,-2.487,-2.65,-2.9146,-3.0833,-3.216,-3.3122,-3.4712,-3.55,-3.55,-3.55,-3.6385,-3.8007,-3.8007,-3.8911,-4.0496,-4.0496,-4.0496,-4.0496,-4.0496,-4.0496,-4.0496,-4.0496,-4.0496,-4.0496,-4.0496,-4.0496,-4.0496,0.0,0.0,0.0,0.0,0.0,0.0,0.0,-5.662,-5.7042,-5.7042,-5.5904,-5.4932,-5.4454,-5.4106,-5.3739,-5.3243,-5.3185,-5.3185,-5.3185,-5.2913,-5.2362,-5.1555,-5.0747,-4.9774,-4.8618,-4.7297,-4.5278,0.0,0.0,0.0,0.0,0.0,0.0,0.0,0.0,-3.801,-4.0196,-4.135,-4.247,-4.3515,-4.3515,-4.3515,-4.3515,-4.3515,-4.3515,-4.3515,-4.3515,-4.3515,-4.3515,-4.3515,-4.3515,-4.3515,-4.3515,-4.3515,-4.3515,-4.3515,-4.3515,-4.3515,-4.3515,-4.291,-4.2121,-4.1297,-4.0506,-3.968,-3.8891,-3.8707,-3.8707,-3.8707,-3.8046,-3.7162,-3.5991,-3.4963,-3.3862,-3.2577,0.0,0.0,0.0,0.0,0.0,0.0,0.0,0.0,0.0,0.0,0.0,0.0,0.0,0.0,0.0,-2.4394,0.0,-2.8299,0.0,-3.2083,-3.2891,-3.4635,-3.5424,-3.5266,-3.5266,-3.5867,-3.7004,-3.7529,-3.8772,-4.0496,-4.0496,-4.0496,-4.0496,-4.0496,-4.0496,-4.0496,-4.0496,-4.0496,-4.0496,-4.0496,-4.0496,-4.0496,-5.3812,0.0,-5.376,0.0,-5.5831,-5.6033,-5.774,-5.7997,-5.7997,-5.7997,-5.7005,-5.5996,-5.5188,-5.4895,-5.4436,-5.3628,-5.3555,-5.3463,-5.3203,-5.3185,-5.2839,-5.2032,-5.1463,0.0,-4.9629,-4.8196,-4.6507,-4.4562,-4.2708,0.0,0.0,0.0,0.0,0.0,-3.8799,-4.0159,-4.1499,-4.2304,-4.2983,-4.3515,-4.3515,-4.3515,-4.3515,-4.3515,-4.3515,-4.3515,-4.3515,-4.3515,-4.3515,-4.3515,-4.3515,-4.3515,-4.3515,-4.3515,-4.3515,-4.3515,-4.3515,-4.3515,-4.3515,-4.3075,-4.2451,-4.1662,-4.0855,-4.0047,-3.9239,-3.8872,-3.8707,-3.8707,-3.7863,-3.6978,-3.6395,-3.4926,-3.3642,-3.3164,0.0,0.0,0.0,0.0,0.0,0.0,0.0,-2.4566,-2.4226,0.0,0.0,0.0,0.0,0.0,0.0,0.0,0.0,0.0,0.0,0.0,-3.2891,-3.4541,-3.5289,-3.5096,-3.5016,-3.5408,-3.6216,-3.7431,-3.8908,-4.0496,-4.0496,-4.0496,-4.0496,-4.0496,-4.0496,-4.0496,-4.0496,-4.0496,-4.0496,-4.0496,-4.0496,-4.0496,-5.5244,-5.5556,-5.6069,-5.7685,-5.796,-5.796,-5.7997,-5.7997,-5.7997,-5.7997,-5.7978,-5.7666,-5.6877,-5.6051,-5.5244,-5.4454,-5.4399,-5.4051,-5.324,-5.3185,-5.2839,0.0,0.0,-5.1244,-4.9629,-4.8728,-4.7865,-4.7058,0.0,0.0,-4.0967,0.0,-3.8319,-3.9882,-4.0726,-4.1517,-4.2341,-4.313,-4.3496,-4.3515,-4.3515,-4.3515,-4.3515,-4.3515,-4.3515,-4.3515,-4.3515,-4.3515,-4.3515,-4.3515,-4.3515,-4.3515,-4.3515,-4.3515,-4.3515,-4.3515,-4.3515,-4.3515,-4.3515,-4.3496,-4.3277,-4.2488,-4.168,-4.0857,-4.0065,-3.9276,-3.8707,-3.8707,-3.7422,-3.6303,-3.6303,-3.4926,-3.3275,-3.169,0.0,0.0,0.0,0.0,0.0,0.0,-2.4492,-2.3336,-2.4116,0.0,0.0,0.0,0.0,0.0,0.0,0.0,0.0,-2.903,-3.0794,0.0,-3.2891,-3.437,-3.5105,-3.5096,-3.4822,-3.5119,-3.5962,-3.7976,-3.9482,-4.0496,-4.0496,-4.0496,-4.0496,-4.0496,-4.0496,-4.0496,-4.0496,-4.0496,-4.0496,-4.0496,-4.0496,-4.0496,-5.7134,-5.7226,-5.7391,-5.7905,-5.7997,-5.7997,-5.7997,-5.7997,-5.7997,-5.7997,-5.7997,-5.7905,-5.7648,-5.6895,-5.6088,0.0,-5.4711,-5.4289,0.0,-5.35,-5.3096,-5.2839,-5.2289,-5.1756,-5.1263,-5.0435,-4.9334,-4.7921,0.0,0.0,0.0,-4.302,-4.2965,-4.3993,-4.4268,-4.4507,-4.4764,-4.5021,-4.5131,-4.5131,-4.5131,-4.48,-4.4323,-4.4323,-4.3975,-4.3515,-4.3515,-4.3515,-4.3515,-4.3515,-4.3515,-4.3515,-4.3515,-4.3515,-4.3515,-4.3515,-4.3515,-4.3515,-4.3515,-4.3515,-4.3296,-4.2506,-4.1699,-4.0875,-4.0084,-3.9276,-3.8707,-3.8707,-3.7422,-3.6303,-3.6303,-3.4926,-3.3623,-3.3109,-3.3018,0.0,0.0,0.0,0.0,0.0,-2.6264,-2.5538,0.0,-2.4879,0.0,0.0,0.0,0.0,0.0,0.0,0.0,0.0,-3.1608,0.0,-3.2891,-3.4362,-3.4999,-3.4813,-3.45,-3.5079,-3.6499,-3.8105,-3.9347,-4.0232,-4.0414,-4.0496,-4.0496,-4.0496,-4.0496,-4.0496,-4.0496,-4.0496,-4.0496,-4.0496,-4.0496,-4.0496,-5.7997,-5.7997,-5.7997,-5.7997,-5.7997,-5.7997,-5.7997,-5.7997,-5.7997,-5.7997,-5.7997,-5.7997,-5.7997,-5.7556,0.0,-5.6106,-5.5592,-5.5042,-5.4436,-5.394,-5.3537,-5.3203,-5.2729,-5.2307,-5.1995,-5.1499,0.0,-4.9242,-4.8618,-4.7645,-4.6342,-4.5535,-4.5424,-4.5902,-4.5902,-4.5902,-4.5902,-4.5902,-4.5902,-4.5902,-4.5902,-4.5608,-4.5149,-4.5149,-4.4654,-4.3956,-4.3956,-4.3754,-4.3515,-4.3515,-4.3515,-4.3515,-4.3515,-4.3515,-4.3515,-4.3515,-4.3515,-4.3515,-4.3515,-4.3515,-4.3386,-4.2873,-4.2158,-4.1258,-4.0139,-3.9276,-3.8707,-3.8707,-3.7661,-3.6666,-3.6358,-3.5183,-3.4156,-3.3844,-3.3128,-3.232,-3.1513,0.0,0.0,0.0,0.0,0.0,0.0,-2.6686,-2.675,0.0,0.0,0.0,0.0,0.0,0.0,-2.9167,-3.2351,-3.3942,-3.3724,-3.4535,-3.4803,-3.4508,-3.4499,-3.5435,-3.7181,-3.8071,-3.9073,-4.011,-4.0286,-4.0417,-4.0496,-4.0496,-4.0496,-4.0496,-4.0496,-4.0496,-4.0496,-4.0496,-4.0496,-4.0496,-5.7997,-5.7997,-5.7997,0.0,-5.7997,-5.7997,-5.7997,-5.7997,-5.7997,-5.7997,-5.7997,-5.7997,-5.7997,-5.7997,-5.7703,-5.695,0.0,0.0,-5.4656,-5.4454,-5.4069,-5.3314,-5.3222,-5.2858,-5.2087,-5.2068,-5.1662,-5.0815,-4.9241,-4.8029,-4.7184,-4.6489,-4.6122,-4.6067,-4.6067,-4.6067,-4.6067,-4.6067,-4.6067,-4.6067,-4.6067,-4.603,-4.5975,-4.5975,-4.548,-4.4764,-4.4764,-4.4268,-4.3588,-4.3588,-4.3551,-4.3515,-4.3515,-4.3515,-4.3515,-4.3515,-4.3515,-4.3515,-4.3515,-4.3515,-4.3515,-4.3515,-4.2892,-4.1882,-4.0267,-3.9313,-3.8781,-3.8707,-3.8046,-3.7254,-3.645,-3.5591,-3.4729,-3.3862,-3.3036,-3.2247,-3.1433,0.0,0.0,0.0,0.0,0.0,-2.7016,-2.8235,-2.8854,0.0,0.0,0.0,0.0,0.0,-2.9665,-3.1329,-3.2991,-3.4268,-3.5086,-3.4803,-3.4526,-3.4264,-3.4892,-3.6118,-3.7893,-3.797,-3.8759,-4.0071,-4.011,-4.0278,-4.0496,-4.0496,-4.0496,-4.0496,-4.0496,-4.0496,-4.0496,-4.0496,-4.0496,-4.0496,0.0,0.0,-5.7997,-5.7997,-5.7997,-5.7997,-5.7997,-5.7997,-5.7997,-5.7997,-5.7997,-5.7997,-5.7997,-5.7997,-5.7923,-5.7721,-5.7152,-5.6657,-5.6271,-5.5078,-5.4326,-5.4124,-5.3537,-5.3115,-5.2931,-5.2931,-5.2261,-5.0873,-5.0433,-4.9496,-4.8185,-4.855,-4.8361,-4.7737,-4.7737,-4.7737,-4.7737,-4.7737,-4.7737,-4.7737,-4.7737,-4.737,-4.6819,-4.6819,-4.6324,-4.5626,-4.5626,-4.5094,-4.4415,-4.4415,-4.4011,-4.3515,-4.3515,-4.3515,-4.3515,-4.3515,-4.3515,-4.3515,-4.3515,-4.3515,-4.3515,-4.3515,-4.2892,-4.1882,-4.0267,-3.9753,-3.9441,-3.8836,-3.8046,-3.7254,-3.645,-3.5591,-3.4546,-3.3115,-3.221,-3.1403,-3.0595,-3.0173,0.0,0.0,-3.0173,-3.0479,-3.0277,-3.0044,-2.9911,0.0,0.0,0.0,0.0,-3.0731,-3.1365,-3.2183,-3.3684,-3.469,-3.5096,-3.4584,-3.4475,-3.4833,-3.6236,-3.7151,-3.7634,-3.8708,-3.9387,-3.9735,-4.0203,-4.0449,-4.0496,-4.0496,-4.0496,-4.0496,-4.0496,-4.0496,-4.0496,-4.0496,-4.0496,-4.0496,-5.7997,-5.7997,-5.7997,-5.7997,-5.7997,-5.7997,-5.7997,-5.7997,-5.7997,-5.7997,-5.7997,-5.7997,-5.7997,-5.7997,-5.7997,-5.7997,-5.7593,-5.7189,-5.6822,-5.5978,-5.5335,-5.495,-5.4179,-5.3757,-5.3757,-5.339,-5.2452,-5.0903,-5.0856,-5.0067,-4.862,-4.9311,-4.9206,-4.8402,-4.8739,-4.8673,-4.8306,-4.8306,-4.8306,-4.8306,-4.8306,-4.8049,-4.7645,-4.7645,-4.7168,-4.6452,-4.6452,-4.5938,-4.5259,-4.5259,-4.4709,-4.4048,-4.4048,-4.3791,-4.3515,-4.3515,-4.3515,-4.3515,-4.3515,-4.3515,-4.3515,-4.3515,-4.2892,-4.2066,-4.1203,-4.0432,-3.9772,-3.9331,-3.8597,-3.779,-3.7015,-3.6156,-3.5059,-3.3421,-3.2467,-3.1531,-3.0356,-3.0522,0.0,-3.0246,-3.1237,-3.1806,-3.1433,-3.1659,-3.1593,-3.0962,-3.1184,0.0,-3.1461,-3.2564,-3.3131,-3.2916,-3.4304,-3.5197,-3.5458,-3.5252,-3.5547,-3.6347,-3.7253,-3.796,-3.8489,-3.9238,-3.9679,-3.9859,-4.0167,-4.0381,-4.0496,-4.0496,-4.0496,-4.0496,-4.0496,-4.0496,-4.0496,-4.0496,-4.0496,-4.0496,-5.7997,-5.7997,-5.7997,-5.7997,-5.7997,-5.7997,-5.7997,-5.7997,-5.7997,-5.7997,-5.7997,-5.7997,-5.7997,-5.7997,-5.7997,-5.7997,-5.7997,-5.7703,-5.7042,-5.6877,-5.651,-5.5794,-5.5005,-5.4528,-5.4399,-5.361,-5.2506,-5.1084,-5.1194,-5.0455,-4.8894,-4.9683,-4.9559,-4.8712,-4.946,-4.937,-4.8673,-4.8545,-4.8508,-4.8489,-4.8361,-4.8306,-4.8306,-4.8306,-4.7865,-4.7278,-4.7278,-4.6746,-4.6085,-4.6085,-4.5553,-4.4874,-4.4745,-4.4232,-4.3644,-4.3551,-4.3515,-4.3515,-4.3515,-4.3515,-4.3515,-4.3515,-4.2983,-4.2451,-4.2323,-4.124,-4.0175,-3.9937,-3.935,-3.8597,-3.7676,-3.6787,-3.564,-3.3903,-3.2943,-3.1897,-3.0418,0.0,-3.1261,-3.0638,-3.188,-3.2522,-3.1837,-3.2889,-3.3091,-3.1856,-3.2908,-3.344,-3.2986,-3.427,-3.4653,-3.3917,-3.5049,-3.5792,-3.6023,-3.634,-3.6962,-3.7901,-3.8013,-3.8602,-3.9599,-3.9645,-3.9829,-4.0101,-4.0139,-4.0278,-4.0449,-4.0449,-4.0406,-4.0362,-4.0414,-4.0449,-4.043,-4.0481,-4.0473,-4.0449,-5.7997,-5.7997,-5.7997,-5.7997,-5.7997,-5.7997,-5.7997,-5.7997,-5.7997,-5.7997,-5.7997,-5.7997,-5.7997,-5.7997,-5.7997,-5.7997,-5.7997,-5.7941,-5.7813,-5.7189,-5.6748,-5.662,-5.5831,-5.5097,-5.4418,-5.361,-5.2777,-5.1914,-5.2524,-5.1774,-4.9733,-5.104,-5.0881,-4.9546,-5.0279,-5.0545,-5.038,-4.9682,-4.9408,-4.9335,-4.86,-4.8306,-4.8306,-4.8306,-4.8233,-4.8122,-4.8122,-4.759,-4.6911,-4.6911,-4.6379,-4.5608,-4.4911,-4.4617,-4.4378,-4.3699,-4.3515,-4.3515,-4.3515,-4.3515,-4.3515,-4.3515,-4.3423,-4.313,-4.2451,-4.2103,-4.1534,-4.0175,-3.979,-3.9258,-3.7768,-3.6523,-3.5075,-3.3111,-3.2047,-3.1213,-3.0326,0.0,-3.1992,-3.2195,-3.3054,-3.3568,-3.344,-3.3036,-3.2949,-3.3403,-3.3036,-3.3335,-3.4564,-3.4857,-3.5361,-3.6155,-3.6404,-3.6528,-3.6578,-3.7064,-3.7497,-3.7901,-3.859,-3.9145,-3.9611,-3.9891,-4.0042,-4.011,-4.0339,-4.0339,-4.0158,-4.0158,-3.9993,-3.9767,-4.0052,-4.0158,-4.0186,-4.0425,-4.0356,-4.0158,-5.7997,-5.7997,-5.7997,-5.7997,-5.7997,-5.7997,-5.7997,-5.7997,-5.7997,-5.7997,-5.7997,-5.7997,-5.7997,-5.7997,-5.7997,-5.7997,-5.7997,-5.7997,-5.7997,-5.7648,-5.7446,-5.7446,-5.6675,-5.5666,-5.4436,-5.4051,-5.3273,-5.2112,-5.2445,-5.1694,-4.9992,-5.1026,-5.0694,-4.9243,-4.9985,-5.029,-5.0198,-4.9816,-4.9875,-5.016,-4.9334,-4.9003,-4.8948,-4.8489,-4.8306,-4.8306,-4.8306,-4.8067,-4.7736,-4.7736,-4.7204,-4.647,-4.6104,-4.5388,-4.4635,-4.4268,-4.3828,-4.3515,-4.3515,-4.3515,-4.3515,-4.3515,-4.3515,-4.3387,-4.302,-4.2598,-4.2084,-4.135,-4.0487,-3.958,-3.8551,-3.7158,-3.5658,-3.3995,-3.3068,0.0,-3.0905,-3.1959,-3.288,-3.2914,-3.3978,-3.483,-3.5133,-3.4816,-3.4743,-3.511,-3.4798,-3.4926,-3.5661,-3.6119,-3.6639,-3.7322,-3.7353,-3.7485,-3.7771,-3.8007,-3.8372,-3.8832,-3.9196,-3.9626,-4.0101,-4.0091,-4.0177,-4.0294,-4.011,-4.0043,-4.0091,-3.9901,-3.9742,-3.9634,-3.9972,-4.0101,-4.011,-4.0232,-4.0204,-4.0081,-5.7997,-5.7997,-5.7997,-5.7997,-5.7997,-5.7997,-5.7997,-5.7997,-5.7997,-5.7997,-5.7997,-5.7997,-5.7997,-5.7997,-5.7997,-5.7997,-5.7997,-5.7997,-5.7997,-5.7997,-5.7997,-5.7997,-5.7226,-5.6235,-5.4987,-5.4583,-5.3814,-5.263,-5.2449,-5.1643,-5.0269,-5.099,-5.0532,-4.9121,-4.9838,-5.0115,-5.0024,-5.0,-5.0319,-5.0764,-5.0138,-4.9886,-4.9794,-4.893,-4.86,-4.8581,-4.8379,-4.8306,-4.8306,-4.8306,-4.7902,-4.7351,-4.7168,-4.625,-4.5205,-4.5021,-4.4415,-4.3736,-4.3551,-4.3515,-4.3515,-4.3515,-4.3515,-4.3515,-4.3515,-4.302,-4.2525,-4.2341,-4.1313,-4.028,-3.9689,-3.8074,-3.6467,-3.535,0.0,-3.3143,-3.191,-3.2879,-3.3669,-3.356,-3.4711,-3.5661,-3.6072,-3.6227,-3.6303,-3.6303,-3.6303,-3.6376,-3.656,-3.7162,-3.7679,-3.8071,-3.8138,-3.8377,-3.8788,-3.8735,-3.8956,-3.9474,-3.9564,-3.9842,-4.0283,-4.0167,-4.0177,-4.0266,-3.98,-3.969,-3.9859,-3.9599,-3.9445,-3.9427,-3.9742,-3.987,-3.988,-3.9962,-3.9932,-3.9819,-5.7997,-5.7997,-5.7997,-5.7997,-5.7997,-5.7997,-5.7997,-5.7997,-5.7997,-5.7997,-5.7997,-5.7997,-5.7997,-5.7997,-5.7997,-5.7997,-5.7997,-5.7997,-5.7997,-5.7997,-5.7997,-5.7997,-5.7226,-5.6748,-5.6638,-5.517,-5.4341,-5.4224,-5.3491,-5.2417,-5.1034,-5.1716,-5.1264,-4.9946,-5.0682,-5.1006,-5.1002,-5.0862,-5.0854,-5.0891,-5.0762,-5.071,-5.0618,-4.9793,-4.95,-4.9408,-4.86,-4.8306,-4.8306,-4.8306,-4.8269,-4.8067,-4.7333,-4.7021,-4.6782,-4.603,-4.5241,-4.4452,-4.3699,-4.3515,-4.3515,-4.3515,-4.3515,-4.3515,-4.3515,-4.346,-4.3185,-4.2451,-4.2213,-4.1884,-4.1099,-3.8922,-3.7094,-3.6622,0.0,0.0,-3.3336,-3.3749,-3.418,-3.4535,-3.5126,-3.5532,-3.5564,-3.6009,-3.6303,-3.6303,-3.6303,-3.6615,-3.7364,-3.7474,-3.7856,-3.8624,-3.8883,-3.9029,-3.9072,-3.8815,-3.8844,-3.9133,-3.945,-3.9622,-3.9679,-3.9982,-3.9932,-3.9668,-3.9622,-3.9426,-3.916,-3.9152,-3.9004,-3.8792,-3.9082,-3.916,-3.9199,-3.951,-3.9438,-3.916,-5.7997,-5.7997,-5.7997,-5.7997,-5.7997,-5.7997,-5.7997,-5.7997,-5.7997,-5.7997,-5.7997,-5.7997,-5.7997,-5.7997,-5.7997,-5.7997,-5.7997,-5.7997,-5.7997,-5.7997,-5.7997,-5.7997,-5.7703,-5.7317,-5.6822,-5.6216,-5.5647,-5.5133,-5.4344,-5.323,-5.1838,-5.1599,-5.0743,-4.9389,-4.9681,-5.0022,-5.0427,-5.0852,-5.1023,-5.1001,-5.0905,-5.0856,-5.0766,-4.9967,-4.9945,-5.0233,-4.9389,-4.8842,-4.847,-4.8336,-4.8055,-4.7743,-4.7805,-4.7498,-4.6837,-4.5553,-4.4947,-4.4525,-4.3718,-4.3515,-4.3515,-4.3515,-4.3515,-4.3515,-4.3515,-4.3515,-4.3423,-4.3112,-4.2653,-4.2092,-4.1467,-3.9892,-3.8359,-3.7408,0.0,-3.4597,-3.4191,-3.4244,-3.4535,-3.502,-3.595,-3.6666,-3.6958,-3.7471,-3.779,-3.779,-3.779,-3.7918,-3.823,-3.823,-3.8377,-3.8689,-3.8803,-3.884,-3.884,-3.8747,-3.8829,-3.9093,-3.9225,-3.9389,-3.9599,-3.9742,-3.9731,-3.9587,-3.9377,-3.9212,-3.9085,-3.8923,-3.8788,-3.8719,-3.8999,-3.9112,-3.9125,-3.9238,-3.9199,-3.9072,-5.7997,-5.7997,-5.7997,-5.7997,-5.7997,-5.7997,-5.7997,-5.7997,-5.7997,-5.7997,-5.7997,-5.7997,-5.7997,-5.7997,-5.7997,-5.7997,-5.7997,-5.7997,-5.7997,-5.7997,-5.7997,-5.7997,-5.7997,-5.774,-5.7189,-5.6932,-5.6528,-5.5978,-5.517,-5.392,-5.2281,-5.1749,-5.0596,-4.9001,-4.9001,-4.9273,-4.9722,-5.0462,-5.0743,-5.077,-5.0905,-5.0976,-5.0862,-5.0074,-5.0077,-5.0421,-4.9604,-4.9166,-4.8872,-4.8493,-4.8239,-4.8122,-4.8263,-4.7921,-4.7204,-4.5847,-4.526,-4.4911,-4.4103,-4.3681,-4.3515,-4.3515,-4.3515,-4.3515,-4.3515,-4.3515,-4.3515,-4.3515,-4.3057,-4.2498,-4.1976,-4.0778,-3.9456,-3.8142,-3.6845,-3.5723,-3.4945,-3.4844,-3.5044,-3.5575,-3.6568,-3.7378,-3.7842,-3.8382,-3.8707,-3.8707,-3.8707,-3.8707,-3.8707,-3.8707,-3.8707,-3.8707,-3.8707,-3.8707,-3.8707,-3.8707,-3.8788,-3.899,-3.9044,-3.9178,-3.9327,-3.9505,-3.9552,-3.9426,-3.9199,-3.9112,-3.9085,-3.8818,-3.8707,-3.8719,-3.8894,-3.8971,-3.8971,-3.8971,-3.8971,-3.8961,-5.7997,-5.7997,-5.7997,-5.7997,-5.7997,-5.7997,-5.7997,-5.7997,-5.7997,-5.7997,-5.7997,-5.7997,-5.7997,-5.7997,-5.7997,-5.7997,-5.7997,-5.7997,-5.7997,-5.7997,-5.7997,-5.7997,-5.7997,-5.7997,-5.7997,-5.7226,-5.6822,-5.6822,-5.5996,-5.4488,-5.2316,-5.2298,-5.1119,-4.9018,-4.9018,-4.9018,-4.9046,-4.9722,-5.0004,-5.0061,-5.0796,-5.1086,-5.0997,-5.0185,-4.9902,-4.9796,-4.9018,-4.915,-4.9577,-4.878,-4.8992,-4.9426,-4.8581,-4.8287,-4.814,-4.7333,-4.6544,-4.5736,-4.4929,-4.4121,-4.3515,-4.3515,-4.3515,-4.3515,-4.3515,-4.3515,-4.3515,-4.3515,-4.3515,-4.3339,-4.2807,-4.1618,-4.0273,-3.8925,-3.7632,-3.6518,-3.5718,-3.56,-3.5805,-3.635,-3.6865,-3.7378,-3.7842,-3.8382,-3.8707,-3.8707,-3.8707,-3.8707,-3.8707,-3.8707,-3.8707,-3.8707,-3.8707,-3.8707,-3.8707,-3.8707,-3.8707,-3.8707,-3.8975,-3.8961,-3.8719,-3.9327,-3.9432,-3.9099,-3.9093,-3.9112,-3.9072,-3.8818,-3.8707,-3.8707,-3.8707,-3.8707,-3.8707,-3.8707,-3.8707,-3.875,-5.7327,-5.7637,-5.7997,-5.7997,-5.7997,-5.7997,-5.7997,-5.7997,-5.7997,-5.7997,-5.7997,-5.7997,-5.7997,-5.7997,-5.7997,-5.7997,-5.7997,-5.7997,-5.7997,-5.7997,-5.7997,-5.7997,-5.7997,-5.7997,-5.7997,-5.7758,-5.7648,-5.7648,-5.684,-5.5571,-5.3902,-5.3343,-5.1887,-4.9763,-4.9763,-4.9475,-4.9046,-4.9722,-4.9722,-4.9359,-5.0033,-5.0324,-5.0289,-5.008,-5.0302,-5.0695,-5.036,-5.0092,-4.9846,-4.9477,-4.8848,-4.8205,-4.7784,-4.7656,-4.7593,-4.7219,-4.6929,-4.6434,-4.5058,-4.4525,-4.4213,-4.3626,-4.3515,-4.3515,-4.3515,-4.3515,-4.3515,-4.3515,-4.3515,-4.3339,-4.2807,-4.2045,-4.1022,-3.9681,-3.8824,-3.7889,-3.6603,-3.6434,-3.644,-3.6402,-3.6865,-3.7378,-3.7842,-3.8382,-3.8707,-3.8707,-3.8707,-3.8707,-3.8707,-3.8707,-3.8707,-3.8707,-3.8707,-3.8707,-3.8707,-3.8707,-3.8707,-3.8707,-3.8773,-3.8792,-3.8719,-3.9327,-3.9314,-3.8844,-3.9275,-3.921,-3.88,-3.8735,-3.8707,-3.8707,-3.8707,-3.8707,-3.8707,-3.8707,-3.8707,-3.875,-5.7425,-5.7703,-5.7997,-5.7997,-5.7997,-5.7997,-5.7997,-5.7997,-5.7997,-5.7997,-5.7997,-5.7997,-5.7997,-5.7997,-5.7997,-5.7997,-5.7997,-5.7997,-5.7997,-5.7997,-5.7997,-5.7997,-5.7997,-5.7997,-5.7997,-5.7997,-5.7997,-5.7997,-5.7519,-5.6352,-5.4593,-5.4087,-5.2672,-5.0524,-5.0219,-4.9847,-4.9438,-4.9569,-4.9359,-4.9032,-4.9432,-4.9593,-4.9593,-4.9593,-4.9879,-5.0244,-5.018,-5.0084,-4.9934,-4.95,-4.86,-4.7636,-4.753,-4.7441,-4.7398,-4.7254,-4.6987,-4.6532,-4.5566,-4.4837,-4.4235,-4.3743,-4.3559,-4.3515,-4.3515,-4.3515,-4.3515,-4.3515,-4.3515,-4.3268,-4.2482,-4.2059,-4.1288,-3.9744,-3.9204,-3.8582,-3.7398,-3.7229,-3.7206,-3.7161,-3.7437,-3.779,-3.8186,-3.8496,-3.8707,-3.8707,-3.8707,-3.8707,-3.8707,-3.8707,-3.8707,-3.8707,-3.8707,-3.8707,-3.8707,-3.8707,-3.8707,-3.8707,-3.8707,-3.8707,-3.8723,-3.9203,-3.9275,-3.9078,-3.9295,-3.9275,-3.9036,-3.8792,-3.8707,-3.8707,-3.8707,-3.8707,-3.8658,-3.8465,-3.853,-3.8701,-5.7821,-5.7909,-5.7997,-5.7997,-5.7997,-5.7997,-5.7997,-5.7997,-5.7997,-5.7997,-5.7997,-5.7997,-5.7997,-5.7997,-5.7997,-5.7997,-5.7997,-5.7997,-5.7997,-5.7997,-5.7997,-5.7997,-5.7997,-5.7997,-5.7997,-5.7997,-5.7997,-5.7997,-5.7932,-5.6792,-5.4699,-5.4644,-5.3415,-5.1285,-5.0591,-5.0253,-5.0152,-4.9407,-4.9103,-4.9086,-4.9035,-4.9001,-4.9001,-4.9001,-4.9001,-4.9001,-4.9077,-4.9492,-4.9883,-4.9093,-4.8277,-4.7608,-4.7541,-4.7469,-4.741,-4.7338,-4.6837,-4.6278,-4.6146,-4.5024,-4.389,-4.3764,-4.3613,-4.3519,-4.3497,-4.3515,-4.3515,-4.3515,-4.3515,-4.3142,-4.2021,-4.181,-4.1214,-3.9394,-3.9089,-3.8836,-3.8108,-3.8007,-3.8088,-3.8295,-3.8316,-3.8417,-3.8713,-3.8713,-3.8707,-3.8707,-3.8707,-3.8707,-3.8707,-3.8707,-3.8707,-3.8707,-3.8707,-3.8707,-3.8707,-3.8707,-3.8707,-3.8707,-3.8707,-3.8707,-3.8723,-3.8971,-3.9238,-3.9505,-3.9212,-3.9269,-3.9469,-3.8931,-3.8707,-3.8707,-3.8707,-3.8707,-3.8643,-3.8099,-3.82,-3.8606,-5.6456,-5.7173,-5.7997,-5.7997,-5.7997,-5.7997,-5.7997,-5.7997,-5.7997,-5.7997,-5.7997,-5.7997,-5.7997,-5.7997,-5.7997,-5.7997,-5.7997,-5.7997,-5.7997,-5.7997,-5.7997,-5.7997,-5.7997,-5.7997,-5.7997,-5.7997,-5.7997,-5.7997,-5.7425,-5.6561,-5.5458,-5.4869,-5.3701,-5.2063,-5.1894,-5.1505,-5.093,-5.0168,-4.9847,-4.9796,-4.9238,-4.9001,-4.9001,-4.9001,-4.9001,-4.9077,-4.9593,-4.9879,-4.9883,-4.9132,-4.8408,-4.7712,-4.7028,-4.7166,-4.7412,-4.6813,-4.6869,-4.6881,-4.5735,-4.5151,-4.46,-4.3397,-4.3425,-4.3683,-4.3539,-4.3515,-4.3515,-4.3515,-4.3515,-4.3142,-4.2021,-4.181,-4.1389,-4.0058,-3.9859,-3.9605,-3.887,-3.8751,-3.8693,-3.856,-3.8412,-3.8463,-3.8884,-3.878,-3.8707,-3.8707,-3.8707,-3.8707,-3.8707,-3.8707,-3.8707,-3.8707,-3.8707,-3.8707,-3.8707,-3.8707,-3.8707,-3.8707,-3.8707,-3.8707,-3.8723,-3.8971,-3.9027,-3.8902,-3.9036,-3.9027,-3.8873,-3.875,-3.8707,-3.8707,-3.8707,-3.8707,-3.8643,-3.8099,-3.798,-3.8145,-5.5847,-5.6331,-5.6909,-5.6909,-5.7216,-5.7492,-5.7492,-5.7492,-5.7492,-5.7492,-5.7148,-5.7054,-5.7425,-5.7123,-5.7054,-5.7449,-5.7815,-5.7997,-5.7997,-5.7997,-5.7997,-5.7997,-5.7997,-5.7997,-5.7997,-5.7997,-5.7839,-5.7492,-5.7109,-5.6304,-5.5173,-5.4787,-5.3977,-5.2858,-5.2469,-5.2097,-5.1691,-5.0947,-5.0625,-5.0557,-4.9813,-4.9526,-4.9492,-4.9137,-4.9001,-4.9063,-4.9389,-4.9504,-4.9453,-4.9088,-4.8469,-4.7827,-4.7358,-4.7173,-4.7051,-4.663,-4.6491,-4.6336,-4.5554,-4.5064,-4.464,-4.414,-4.39,-4.3669,-4.3214,-4.3322,-4.3515,-4.3515,-4.3515,-4.3232,-4.2402,-4.1979,-4.1512,-4.0625,-4.0262,-3.9977,-3.9588,-3.9512,-3.9428,-3.9157,-3.9294,-3.9571,-3.9962,-3.992,-3.9829,-3.9829,-3.9829,-3.968,-3.9294,-3.9643,-3.9481,-3.8726,-3.9074,-3.9093,-3.8707,-3.8707,-3.8707,-3.8707,-3.8707,-3.8707,-3.8707,-3.8844,-3.8894,-3.888,-3.8909,-3.8894,-3.8884,-3.8747,-3.8707,-3.8707,-3.8707,-3.8707,-3.8611,-3.7861,-3.756,-3.7666,-5.5552,-5.5621,-5.5706,-5.5706,-5.6259,-5.6695,-5.6695,-5.6695,-5.6695,-5.6695,-5.6104,-5.5948,-5.6616,-5.6104,-5.6004,-5.6817,-5.7449,-5.7862,-5.7997,-5.7997,-5.7997,-5.7997,-5.7886,-5.7797,-5.7797,-5.7684,-5.7382,-5.6912,-5.6765,-5.5984,-5.4589,-5.4482,-5.4074,-5.3467,-5.2807,-5.252,-5.2469,-5.1725,-5.1403,-5.1336,-5.0574,-5.0202,-5.0016,-4.9424,-4.912,-4.9001,-4.9001,-4.9001,-4.9001,-4.9001,-4.8595,-4.8058,-4.7922,-4.7466,-4.6913,-4.6546,-4.6099,-4.5641,-4.5407,-4.4872,-4.4482,-4.4946,-4.4422,-4.367,-4.3053,-4.3215,-4.3515,-4.3515,-4.3515,-4.3339,-4.2807,-4.2221,-4.1599,-4.0995,-4.0449,-4.0096,-4.0096,-4.0096,-4.0016,-3.9789,-4.0263,-4.0721,-4.1068,-4.1095,-4.1095,-4.1095,-4.1095,-4.0802,-4.0139,-4.0744,-4.0432,-3.8946,-3.9551,-3.9515,-3.8707,-3.8707,-3.8707,-3.8707,-3.8707,-3.8707,-3.8707,-3.8707,-3.8815,-3.9008,-3.8788,-3.8829,-3.9008,-3.8788,-3.8707,-3.8707,-3.8707,-3.8707,-3.858,-3.756,-3.7209,-3.7305,-5.4861,-5.5262,-5.5706,-5.5706,-5.5808,-5.5865,-5.5865,-5.5865,-5.5865,-5.5865,-5.5762,-5.5734,-5.5865,-5.578,-5.6004,-5.6817,-5.6989,-5.7327,-5.7973,-5.7997,-5.7997,-5.7997,-5.7401,-5.704,-5.704,-5.6367,-5.6295,-5.6912,-5.6186,-5.5437,-5.4589,-5.3946,-5.3584,-5.3501,-5.3399,-5.3348,-5.3298,-5.2486,-5.2147,-5.2097,-5.1352,-5.0676,-5.0084,-4.9982,-4.956,-4.9001,-4.9001,-4.9001,-4.9001,-4.9001,-4.8934,-4.8748,-4.8091,-4.8184,-4.8142,-4.6351,-4.6107,-4.621,-4.5039,-4.4652,-4.4545,-4.4524,-4.4255,-4.3934,-4.3766,-4.3597,-4.3515,-4.3515,-4.3515,-4.3339,-4.2807,-4.2221,-4.1599,-4.0995,-4.0449,-4.0096,-4.0096,-4.0096,-4.0087,-4.0043,-4.0369,-4.0721,-4.1068,-4.1095,-4.1095,-4.1095,-4.1095,-4.104,-4.093,-4.104,-4.0689,-3.9772,-3.9827,-3.9515,-3.8707,-3.8707,-3.8707,-3.8707,-3.8707,-3.8707,-3.8707,-3.8707,-3.8719,-3.8747,-3.8723,-3.8719,-3.8747,-3.8704,-3.8707,-3.8707,-3.8707,-3.8707,-3.858,-3.756,-3.7209,-3.7249,-5.4059,-5.4249,-5.4468,-5.4468,-5.4818,-5.5102,-5.5102,-5.5102,-5.5102,-5.5102,-5.4713,-5.4637,-5.5042,-5.5448,-5.5667,-5.5627,-5.6385,-5.7058,-5.7358,-5.7774,-5.7815,-5.7401,-5.7065,-5.6695,-5.6259,-5.5893,-5.5667,-5.5616,-5.525,-5.4713,-5.3962,-5.3634,-5.3501,-5.3501,-5.3501,-5.3501,-5.3484,-5.3129,-5.2976,-5.2909,-5.2131,-5.1623,-5.1285,-5.0879,-5.0253,-4.956,-4.9154,-4.9001,-4.9001,-4.9001,-4.9001,-4.8951,-4.8629,-4.8401,-4.8046,-4.6687,-4.6204,-4.589,-4.4868,-4.4615,-4.4756,-4.5346,-4.51,-4.4716,-4.4954,-4.4583,-4.4048,-4.3589,-4.3515,-4.3427,-4.3196,-4.2675,-4.2101,-4.1512,-4.1196,-4.0838,-4.0196,-4.0642,-4.1168,-4.1525,-4.1674,-4.195,-4.2402,-4.2433,-4.2433,-4.2433,-4.2433,-4.2249,-4.1791,-4.2194,-4.1864,-4.0616,-4.1001,-4.0634,-3.9386,-3.9368,-3.9148,-3.8707,-3.8707,-3.8707,-3.8707,-3.8707,-3.8707,-3.8707,-3.8707,-3.8707,-3.8707,-3.8707,-3.8707,-3.8707,-3.8707,-3.853,-3.82,-3.7737,-3.7596,-3.7596]},{"header":{"parameterUnit":"m.s-1","parameterCategory":1,"la1":30.6,"la2":28.766,"lo1":-90.7593,"lo2":-88.6598,"dy":0.0162,"dx":0.0183,"nx":116,"ny":114,"refTime":"2024-06-03T06:00:00:Z","depth":0,"parameterNumber":3,"parameterNumberName":"V-component_of_WINDS"},"data":[0.0,0.0,0.0,0.0,0.0,0.0,0.0,0.0,0.0,0.0,0.0,0.0,0.0,0.0,0.0,0.0,0.0,0.0,0.0,0.0,0.0,0.0,0.0,0.0,0.0,0.0,0.0,0.0,0.0,0.0,0.0,0.0,0.0,0.0,0.0,0.0,0.0,0.0,0.0,0.0,0.0,0.0,0.0,0.0,0.0,0.0,0.0,0.0,0.0,0.0,0.0,0.0,0.0,0.0,0.0,0.0,0.0,0.0,0.0,0.0,0.0,0.0,0.0,0.0,0.0,0.0,0.0,0.0,0.0,0.0,0.0,0.0,0.0,0.0,0.0,0.0,0.0,0.0,0.0,0.0,0.0,0.0,0.0,0.0,0.0,0.0,0.0,0.0,0.0,0.0,0.0,0.0,0.0,0.0,0.0,0.0,0.0,0.0,0.0,0.0,0.0,0.0,0.0,0.0,0.0,0.0,0.0,0.0,0.0,0.0,0.0,0.0,0.0,0.0,0.0,0.0,0.0,0.0,0.0,0.0,0.0,0.0,0.0,0.0,0.0,0.0,0.0,0.0,0.0,0.0,0.0,0.0,0.0,0.0,0.0,0.0,0.0,0.0,0.0,0.0,0.0,0.0,0.0,0.0,0.0,0.0,0.0,0.0,0.0,0.0,0.0,0.0,0.0,0.0,0.0,0.0,0.0,0.0,0.0,0.0,0.0,0.0,0.0,0.0,0.0,0.0,0.0,0.0,0.0,0.0,0.0,0.0,0.0,0.0,0.0,0.0,0.0,0.0,0.0,0.0,0.0,0.0,0.0,0.0,0.0,0.0,0.0,0.0,0.0,0.0,0.0,0.0,0.0,0.0,0.0,0.0,0.0,0.0,0.0,0.0,0.0,0.0,0.0,0.0,0.0,0.0,0.0,0.0,0.0,0.0,0.0,0.0,0.0,0.0,0.0,0.0,0.0,0.0,0.0,0.0,0.0,0.0,0.0,0.0,0.0,0.0,0.0,0.0,0.0,0.0,0.0,0.0,0.0,0.0,0.0,0.0,0.0,0.0,0.0,0.0,0.0,0.0,0.0,0.0,0.0,0.0,0.0,0.0,0.0,0.0,0.0,0.0,0.0,0.0,0.0,0.0,0.0,0.0,0.0,0.0,0.0,0.0,0.0,0.0,0.0,0.0,0.0,0.0,0.0,0.0,0.0,0.0,0.0,0.0,0.0,0.0,0.0,0.0,0.0,0.0,0.0,0.0,0.0,0.0,0.0,0.0,0.0,0.0,0.0,0.0,0.0,0.0,0.0,0.0,0.0,0.0,0.0,0.0,0.0,0.0,0.0,0.0,0.0,0.0,0.0,0.0,0.0,0.0,0.0,0.0,0.0,0.0,0.0,0.0,0.0,0.0,0.0,0.0,0.0,0.0,0.0,0.0,0.0,0.0,0.0,0.0,0.0,0.0,0.0,0.0,0.0,0.0,0.0,0.0,0.0,0.0,0.0,0.0,0.0,0.0,0.0,0.0,0.0,0.0,0.0,0.0,0.0,0.0,0.0,0.0,0.0,0.0,0.0,0.0,0.0,0.0,0.0,0.0,0.0,0.0,0.0,0.0,0.0,0.0,0.0,0.0,0.0,0.0,0.0,0.0,0.0,0.0,0.0,0.0,0.0,0.0,0.0,0.0,0.0,0.0,0.0,0.0,0.0,0.0,0.0,0.0,0.0,0.0,0.0,0.0,0.0,0.0,0.0,0.0,0.0,0.0,0.0,0.0,0.0,0.0,0.0,0.0,0.0,0.0,0.0,0.0,0.0,0.0,0.0,0.0,0.0,0.0,0.0,0.0,0.0,0.0,0.0,0.0,0.0,0.0,0.0,0.0,0.0,0.0,0.0,0.0,0.0,0.0,0.0,0.0,0.0,0.0,0.0,0.0,0.0,0.0,0.0,0.0,0.0,0.0,0.0,0.0,0.0,0.0,0.0,0.0,0.0,0.0,0.0,0.0,0.0,0.0,0.0,0.0,0.0,0.0,0.0,0.0,0.0,0.0,0.0,0.0,0.0,0.0,0.0,0.0,0.0,0.0,0.0,0.0,0.0,0.0,0.0,0.0,0.0,0.0,0.0,0.0,0.0,0.0,0.0,0.0,0.0,0.0,0.0,0.0,0.0,0.0,0.0,0.0,0.0,0.0,0.0,0.0,0.0,0.0,0.0,0.0,0.0,0.0,0.0,0.0,0.0,0.0,0.0,0.0,0.0,0.0,0.0,0.0,0.0,0.0,0.0,0.0,0.0,0.0,0.0,0.0,0.0,0.0,0.0,0.0,0.0,0.0,0.0,0.0,0.0,0.0,0.0,0.0,0.0,0.0,0.0,0.0,0.0,0.0,0.0,0.0,0.0,0.0,0.0,0.0,0.0,0.0,0.0,0.0,0.0,0.0,0.0,0.0,0.0,0.0,0.0,0.0,0.0,0.0,0.0,0.0,0.0,0.0,0.0,0.0,0.0,0.0,0.0,0.0,0.0,0.0,0.0,0.0,0.0,0.0,0.0,0.0,0.0,0.0,0.0,0.0,0.0,0.0,0.0,0.0,0.0,0.0,0.0,0.0,0.0,0.0,0.0,0.0,0.0,0.0,0.0,0.0,0.0,0.0,0.0,0.0,0.0,0.0,0.0,0.0,0.0,0.0,0.0,0.0,0.0,0.0,0.0,0.0,0.0,0.0,0.0,0.0,0.0,0.0,0.0,0.0,0.0,0.0,0.0,0.0,0.0,0.0,0.0,0.0,0.0,0.0,0.0,0.0,0.0,0.0,0.0,0.0,0.0,0.0,0.0,0.0,0.0,0.0,0.0,0.0,0.0,0.0,0.0,0.0,0.0,0.0,0.0,0.0,0.0,0.0,0.0,0.0,0.0,0.0,0.0,0.0,0.0,0.0,0.0,0.0,0.0,0.0,0.0,0.0,0.0,0.0,0.0,0.0,0.0,0.0,0.0,0.0,0.0,0.0,0.0,0.0,0.0,0.0,0.0,0.0,0.0,0.0,0.0,0.0,0.0,0.0,0.0,0.0,0.0,0.0,0.0,0.0,0.0,0.0,0.0,0.0,0.0,0.0,0.0,0.0,0.0,0.0,0.0,0.0,0.0,0.0,0.0,0.0,0.0,0.0,0.0,0.0,0.0,0.0,0.0,0.0,0.0,0.0,0.0,0.0,0.0,0.0,0.0,0.0,0.0,0.0,0.0,0.0,0.0,0.0,0.0,0.0,0.0,0.0,0.0,0.0,0.0,0.0,0.0,0.0,0.0,0.0,0.0,0.0,0.0,0.0,0.0,0.0,0.0,0.0,0.0,0.0,0.0,0.0,0.0,0.0,0.0,0.0,0.0,0.0,0.0,0.0,0.0,0.0,0.0,0.0,0.0,0.0,0.0,0.0,0.0,0.0,0.0,0.0,0.0,0.0,0.0,0.0,0.0,0.0,0.0,0.0,0.0,0.0,0.0,0.0,0.0,0.0,0.0,0.0,0.0,0.0,0.0,0.0,0.0,0.0,0.0,0.0,0.0,0.0,0.0,0.0,0.0,0.0,0.0,0.0,0.0,0.0,0.0,0.0,0.0,0.0,0.0,0.0,0.0,0.0,0.0,0.0,0.0,0.0,0.0,0.0,0.0,0.0,0.0,0.0,0.0,0.0,0.0,0.0,0.0,0.0,0.0,0.0,0.0,0.0,0.0,0.0,0.0,0.0,0.0,0.0,0.0,0.0,0.0,0.0,0.0,0.0,0.0,0.0,0.0,0.0,0.0,0.0,0.0,0.0,0.0,0.0,0.0,0.0,0.0,0.0,0.0,0.0,0.0,0.0,0.0,0.0,0.0,0.0,0.0,0.0,0.0,0.0,0.0,0.0,0.0,0.0,0.0,0.0,0.0,0.0,0.0,0.0,0.0,0.0,0.0,0.0,0.0,0.0,0.0,0.0,0.0,0.0,0.0,0.0,0.0,0.0,0.0,0.0,0.0,0.0,0.0,0.0,0.0,0.0,0.0,0.0,0.0,0.0,0.0,0.0,0.0,0.0,0.0,0.0,0.0,0.0,0.0,0.0,0.0,0.0,0.0,0.0,0.0,0.0,0.0,0.0,0.0,0.0,0.0,0.0,0.0,0.0,0.0,0.0,0.0,0.0,0.0,0.0,0.0,0.0,0.0,0.0,0.0,0.0,0.0,0.0,0.0,0.0,0.0,0.0,0.0,0.0,0.0,0.0,0.0,0.0,0.0,0.0,0.0,0.0,0.0,0.0,0.0,0.0,0.0,0.0,0.0,0.0,0.0,0.0,0.0,0.0,0.0,0.0,0.0,0.0,0.0,0.0,0.0,0.0,0.0,0.0,0.0,0.0,0.0,0.0,0.0,0.0,0.0,0.0,0.0,0.0,0.0,0.0,0.0,0.0,0.0,0.0,0.0,0.0,0.0,0.0,0.0,0.0,0.0,0.0,0.0,0.0,0.0,0.0,0.0,0.0,0.0,0.0,0.0,0.0,0.0,0.0,0.0,0.0,0.0,0.0,0.0,0.0,0.0,0.0,0.0,0.0,0.0,0.0,0.0,0.0,0.0,0.0,0.0,0.0,0.0,0.0,0.0,0.0,0.0,0.0,0.0,0.0,0.0,0.0,0.0,0.0,0.0,0.0,0.0,0.0,0.0,0.0,0.0,0.0,0.0,0.0,0.0,0.0,0.0,0.0,0.0,0.0,0.0,0.0,0.0,0.0,0.0,0.0,0.0,0.0,0.0,0.0,0.0,0.0,0.0,0.0,0.0,0.0,0.0,0.0,0.0,0.0,0.0,0.0,0.0,0.0,0.0,0.0,0.0,0.0,0.0,0.0,0.0,0.0,0.0,0.0,0.0,0.0,0.0,0.0,0.0,0.0,0.0,0.0,0.0,0.0,0.0,0.0,0.0,0.0,0.0,0.0,0.0,0.0,0.0,0.0,0.0,0.0,0.0,0.0,0.0,0.0,0.0,0.0,0.0,0.0,0.0,0.0,0.0,0.0,0.0,0.0,0.0,0.0,0.0,0.0,0.0,0.0,0.0,0.0,0.0,0.0,0.0,0.0,0.0,0.0,0.0,0.0,0.0,0.0,0.0,0.0,0.0,0.0,0.0,0.0,0.0,0.0,0.0,0.0,0.0,0.0,0.0,0.0,0.0,0.0,0.0,0.0,0.0,0.0,0.0,0.0,0.0,0.0,0.0,0.0,0.0,0.0,0.0,0.0,0.0,0.0,0.0,0.0,0.0,0.0,0.0,0.0,0.0,0.0,0.0,0.0,0.0,0.0,0.0,0.0,0.0,0.0,0.0,0.0,0.0,0.0,0.0,0.0,0.0,0.0,0.0,0.0,0.0,0.0,0.0,0.0,0.0,0.0,0.0,0.0,0.0,0.0,0.0,0.0,0.0,0.0,0.0,0.0,0.0,0.0,0.0,0.0,0.0,0.0,0.0,0.0,0.0,0.0,0.0,0.0,0.0,0.0,0.0,0.0,0.0,0.0,0.0,0.0,0.0,0.0,0.0,0.0,0.0,0.0,0.0,0.0,0.0,0.0,0.0,0.0,0.0,0.0,0.0,0.0,0.0,0.0,0.0,0.0,0.0,0.0,0.0,0.0,0.0,0.0,0.0,0.0,0.0,0.0,0.0,0.0,0.0,0.0,0.0,0.0,0.0,0.0,0.0,0.0,0.0,0.0,0.0,0.0,0.0,0.0,0.0,0.0,0.0,0.0,0.0,0.0,0.0,0.0,0.0,0.0,0.0,0.0,0.0,0.0,0.0,0.0,0.0,0.0,0.0,0.0,0.0,0.0,0.0,0.0,0.0,0.0,0.0,0.0,0.0,0.0,0.0,0.0,0.0,0.0,0.0,0.0,0.0,0.0,0.0,0.0,0.0,0.0,0.0,0.0,0.0,0.0,0.0,0.0,0.0,0.0,0.0,0.0,0.0,0.0,0.0,0.0,0.0,0.0,0.0,0.0,0.0,0.0,0.0,0.0,0.0,0.0,0.0,0.0,0.0,0.0,0.0,0.0,0.0,0.0,0.0,0.0,0.0,0.0,0.0,0.0,0.0,0.0,0.0,0.0,0.2353,0.0,0.0,0.0,0.0,0.0,0.0,0.0,0.0,0.0,0.0,0.0,0.0,0.0,0.0,0.0,0.0,0.0,0.0,0.0,0.0,0.0,0.0,0.0,0.0,0.3366,0.3491,0.3558,0.3349,0.3207,0.3207,0.0,0.0,0.0,0.0,0.0,0.289,0.2832,0.2707,0.2573,0.2255,0.1776,0.115,0.062,0.0242,0.002,0.0,0.0,0.0,0.0,0.0,0.0,0.0,0.0,0.0,0.0,0.0,0.0,0.0,0.0,0.0,0.0,0.0,0.0,0.0,0.0,0.0,0.0,0.0,0.0,0.0,0.0,0.0,0.0,0.0,0.0,0.0,0.0,0.0,0.0,0.0,0.0,0.0,0.0,0.0,0.0,0.0,0.0,0.0,0.0,0.0,0.0,0.0,0.0,0.0,0.0,0.0,0.0,0.0,0.0,0.0,0.0,0.0,0.0,0.0,0.0,0.0,0.0,0.0,0.0,0.0,0.0,0.0,0.0,0.0,0.0,0.0,0.2586,0.0,0.0,0.0,0.0,0.0,0.0,0.0,0.0,0.0,0.0,0.0,0.0,0.0,0.0,0.0,0.0,0.0,0.0,0.0,0.0,0.0,0.2762,0.3005,0.2979,0.2986,0.3128,0.3141,0.3141,0.3141,0.3467,0.0,0.0,0.0,0.349,0.3101,0.3128,0.284,0.2248,0.2067,0.1489,0.0561,0.017,0.0,0.0024,0.0397,0.0,0.0,0.0,0.0,0.0,0.0,0.0,0.0,0.0,0.0,0.0,0.0,0.0,0.0,0.0,0.0,0.0,0.0,0.0,0.0,0.0,0.0,0.0,0.0,0.0,0.0,0.0,0.0,0.0,0.0,0.0,0.0,0.0,0.0,0.0,0.0,0.0,0.0,0.0,0.0,0.0,0.0,0.0,0.0,0.0,0.0,0.0,0.0,0.0,0.0,0.0,0.0,0.0,0.0,0.0,0.0,0.0,0.0,0.0,0.0,0.0,0.0,0.0,0.0923,0.019,0.0,0.0,0.0341,0.098,0.2565,0.2381,0.1004,0.2043,0.0,0.0,0.0,0.0,0.0,0.0,0.0,0.0,0.0,0.0,0.0,0.0,0.0,0.0,0.0,0.0,0.0,0.0,0.0,0.2578,0.2745,0.2945,0.3135,0.3262,0.3279,0.3279,0.3279,0.3215,0.0,0.3101,0.3159,0.3159,0.3101,0.3209,0.3,0.247,0.1537,0.0733,0.0098,0.0033,0.0,0.0,0.0054,0.0126,0.0229,0.0,0.0,0.0,0.0,0.0,0.0,0.0,0.0,0.0,0.0,0.0,0.0,0.0,0.0,0.0,0.0,0.0,0.0,0.0,0.0,0.0,0.0,0.0,0.0,0.0,0.0,0.0,0.0,0.0,0.0,0.0,0.0,0.0,0.0,0.0,0.0,0.0,0.0,0.0,0.0,0.0,0.3947,0.4141,0.0,0.0,0.0,0.0,0.0,0.0,0.0,0.0,0.0,0.0,0.0,0.0,0.0,0.3351,0.2572,0.2629,0.2202,0.1268,0.1368,0.0918,0.0,0.0,0.0044,0.0219,0.1357,0.0,0.11,0.1363,0.0,0.0,0.0,0.0,0.0,0.0,0.0,0.0,0.0,0.0,0.0,0.0,0.0,0.0,0.0,0.0,0.0,0.0,0.0,0.0,0.0,0.2884,0.3015,0.3635,0.3375,0.3307,0.3564,0.3593,0.3529,0.3385,0.3378,0.3415,0.3497,0.3623,0.3235,0.232,0.1035,0.0269,0.0,0.0,0.0,0.0035,0.0641,0.102,0.1235,0.1147,0.0,0.0,0.0,0.0,0.0,0.0,0.0,0.0,0.0,0.0,0.0,0.0,0.0,0.0,0.0,0.0,0.0,0.0,0.0,0.0,0.0,0.0,0.0,0.0,0.0,0.0,0.0,0.0,0.0,0.0,0.0,0.0,0.0,0.0,0.0,0.0,0.0,0.0,0.0,0.4059,0.4348,0.448,0.4544,0.4537,0.0,0.0,0.0,0.0,0.0,0.0,0.0,0.0,0.0,0.4232,0.4204,0.3734,0.2705,0.228,0.1844,0.1375,0.0914,0.0464,0.0,0.0,0.0,0.0046,0.0506,0.0617,0.0534,0.1177,0.0885,0.0,0.0,0.0,0.0,0.0,0.0,0.0121,0.0,0.0,0.0,0.0,0.0,0.0,0.0,0.0,0.0,0.0,0.0,0.0,0.307,0.2797,0.2936,0.3748,0.3387,0.3362,0.3954,0.3961,0.3863,0.3665,0.3658,0.3706,0.3788,0.3603,0.2963,0.1918,0.0629,0.0,0.0,0.0,0.0,0.0038,0.0848,0.1497,0.2016,0.1662,0.2347,0.3621,0.0,0.0,0.0,0.0,0.0,0.0,0.0,0.0,0.0,0.0,0.0,0.0,0.0,0.0,0.0,0.0,0.0,0.0,0.0,0.0,0.0,0.0,0.0,0.0,0.0,0.0,0.0,0.0,0.0,0.0,0.0,0.0,0.0,0.0,0.0,0.0,0.0,0.4515,0.4802,0.4802,0.504,0.5128,0.0,0.0,0.0,0.0,0.0,0.0,0.6017,0.6138,0.5842,0.4972,0.4594,0.3902,0.2837,0.1721,0.1176,0.1182,0.0384,0.0,0.0,0.0,0.0,0.0,0.0,0.0,0.0047,0.0843,0.0706,0.0,0.0,0.0,0.0,0.0,0.0,0.0105,0.0,0.0,0.0,0.0,0.0,0.0,0.0,0.0,0.0,0.0,0.0,0.2936,0.2583,0.2741,0.299,0.3317,0.3191,0.3495,0.4402,0.4061,0.3795,0.3782,0.3782,0.3785,0.3792,0.2697,0.1799,0.116,0.0385,0.0,0.0,0.0,0.0,0.0,0.0041,0.0659,0.1719,0.3085,0.3567,0.3439,0.3612,0.0,0.0,0.0,0.0,0.0,0.0,0.0,0.0,0.0,0.0,0.0,0.0,0.0,0.0,0.0,0.0,0.0,0.0,0.0,0.0,0.0,0.0,0.0,0.0,0.0,0.0,0.0,0.0,0.0,0.0,0.0,0.0,0.0,0.0,0.0,0.0,0.0,0.0,0.5076,0.5585,0.0,0.0,0.0,0.0,0.5852,0.5083,0.5145,0.6596,0.68,0.6452,0.559,0.4308,0.3132,0.2044,0.0733,0.0099,0.0101,0.005,0.0,0.0,0.0,0.0,0.0,0.0,0.0,0.0,0.0045,0.0042,0.0,0.0,0.0,0.0,0.0,0.0,0.0,0.0,0.0,0.0,0.0,0.0,0.1843,0.1975,0.2114,0.2315,0.2658,0.2588,0.2541,0.2623,0.2529,0.2719,0.3429,0.3598,0.3902,0.4453,0.4337,0.4182,0.4065,0.3967,0.4161,0.4614,0.3281,0.2466,0.2241,0.1527,0.0744,0.0,0.0,0.0,0.0042,0.0708,0.1635,0.2697,0.2478,0.3206,0.4433,0.3759,0.3559,0.0,0.0,0.0,0.0,0.0,0.0,0.0,0.0,0.0,0.0,0.0,0.0,0.0,0.0,0.0,0.0,0.0,0.0,0.0,0.0,0.0,0.0,0.0,0.0,0.0,0.0,0.0,0.0,0.0,0.0,0.0,0.0,0.0,0.0,0.0,0.0,0.0,0.5821,0.5595,0.0,0.5019,0.5553,0.5688,0.5314,0.5975,0.6621,0.7268,0.7417,0.6973,0.5894,0.5412,0.4121,0.2042,0.1545,0.0851,0.0,0.0,0.0,0.0,0.0,0.0,0.0,0.0,0.0,0.0,0.0,0.0,0.0,0.0,0.0,0.0,0.0,0.0,0.0,0.0,0.0,0.0,0.0,0.1803,0.186,0.2043,0.2201,0.244,0.2856,0.2599,0.252,0.2908,0.255,0.2681,0.366,0.3867,0.4139,0.4611,0.4549,0.4399,0.4204,0.3872,0.3701,0.3735,0.278,0.2169,0.1908,0.1422,0.0768,0.0,0.0,0.0,0.0043,0.115,0.2288,0.329,0.2953,0.3798,0.5322,0.4306,0.4057,0.424,0.0,0.0,0.0,0.0,0.0,0.0,0.0,0.0,0.0,0.0,0.0,0.0,0.0,0.0,0.0,0.0,0.0,0.0,0.0,0.0,0.0,0.0,0.0,0.0,0.0,0.0,0.0,0.0,0.0,0.0,0.0,0.0,0.0,0.0,0.0,0.3559,0.5627,0.543,0.5251,0.5494,0.6107,0.6361,0.5902,0.6523,0.7158,0.7692,0.7838,0.7488,0.6678,0.6232,0.4922,0.2715,0.2213,0.131,0.0,0.0,0.0,0.0,0.0,0.0,0.0,0.0,0.0,0.0,0.0,0.0,0.0,0.0,0.0,0.0,0.0,0.0,0.0,0.0,0.0,0.0,0.1803,0.1806,0.1889,0.2164,0.2379,0.2689,0.3232,0.2951,0.2872,0.3312,0.2871,0.2923,0.3874,0.3879,0.4147,0.4867,0.4633,0.4375,0.4141,0.3444,0.2437,0.1198,0.1122,0.0755,0.0044,0.0044,0.0044,0.0,0.0,0.0,0.009,0.1271,0.2428,0.3549,0.465,0.5442,0.5969,0.5369,0.5039,0.4844,0.0,0.0,0.0,0.0,0.0,0.0,0.0,0.0,0.0,0.0,0.0,0.0,0.0,0.0,0.0,0.0,0.0,0.0,0.0,0.0,0.0,0.0,0.0,0.0,0.0,0.0,0.0,0.0,0.0,0.0,0.0,0.0,0.0,0.2078,0.2538,0.3276,0.4587,0.5207,0.5939,0.6971,0.636,0.6367,0.7659,0.6694,0.6652,0.7932,0.7988,0.7988,0.7988,0.6734,0.5375,0.4016,0.2715,0.136,0.0,0.0,0.0,0.0,0.0,0.0,0.0,0.0,0.0,0.0,0.0,0.0,0.0,0.0,0.0,0.0,0.0,0.0,0.0,0.0,0.0,0.1803,0.1803,0.1884,0.2002,0.2167,0.2455,0.2812,0.3246,0.2951,0.2627,0.2395,0.3028,0.3324,0.3097,0.4086,0.4785,0.4897,0.4107,0.3375,0.2773,0.2123,0.1995,0.2413,0.1878,0.1457,0.1172,0.1278,0.0847,0.0,0.0,0.0449,0.1299,0.1646,0.2925,0.4863,0.5016,0.5684,0.6589,0.5986,0.563,0.5352,0.0,0.0,0.0,0.0,0.0,0.0,0.0,0.0,0.0,0.0,0.0,0.0,0.0,0.0,0.0,0.0,0.0,0.0,0.0,0.0,0.0,0.0,0.0,0.0,0.0,0.0,0.0,0.0,0.0,0.0,0.0,0.0,0.1254,0.1817,0.1248,0.1954,0.5141,0.4888,0.4922,0.619,0.6982,0.7137,0.6528,0.7078,0.7595,0.7988,0.7988,0.7988,0.7988,0.7637,0.6326,0.4016,0.3615,0.2314,0.0,0.0,0.0,0.0,0.0,0.0,0.0,0.0,0.0,0.0,0.0,0.0,0.0,0.0,0.0,0.0,0.0,0.0,0.0,0.0,0.1803,0.1803,0.1803,0.1909,0.2049,0.2174,0.2528,0.2937,0.3367,0.2776,0.2403,0.263,0.2712,0.2736,0.2704,0.3569,0.4031,0.3898,0.324,0.2497,0.1782,0.1414,0.1369,0.1693,0.1254,0.099,0.0924,0.1025,0.0673,0.0,0.0,0.0359,0.1076,0.2102,0.3349,0.4683,0.5547,0.6322,0.6849,0.6438,0.6169,0.5905,0.5393,0.5237,0.5226,0.4752,0.4558,0.4417,0.3889,0.0,0.0,0.0,0.0,0.0,0.0,0.0,0.0,0.0,0.0,0.0,0.0,0.0,0.0,0.0,0.0,0.0,0.0,0.0,0.0,0.0,0.0,0.0,0.0,0.0797,0.0757,0.0987,0.0464,0.1245,0.4626,0.4438,0.4768,0.6631,0.7537,0.7686,0.6883,0.7641,0.8136,0.8136,0.8136,0.8136,0.8136,0.8022,0.698,0.487,0.4268,0.2916,0.0807,0.0252,0.0,0.0,0.0,0.0,0.0,0.0,0.0,0.0,0.0,0.0,0.0,0.0,0.0,0.0,0.0,0.0,0.0,0.0,0.1803,0.1809,0.1815,0.1933,0.2073,0.2211,0.2616,0.3069,0.3542,0.2675,0.2425,0.3448,0.2433,0.1991,0.2728,0.2798,0.2656,0.2348,0.2173,0.1751,0.1022,0.0968,0.0671,0.0,0.0,0.0,0.0,0.0,0.0,0.0,0.0,0.0135,0.0494,0.2637,0.3748,0.4148,0.6201,0.7024,0.6896,0.6787,0.6624,0.645,0.5854,0.5644,0.5607,0.5355,0.4997,0.4544,0.3745,0.0,0.0,0.0,0.0,0.0,0.0,0.0,0.0,0.0,0.0,0.0,0.0,0.0,0.0,0.0,0.0,0.0,0.0,0.0,0.0,0.0,0.0,0.0,0.0,0.0409,0.0,0.0,0.0,0.0989,0.3659,0.4016,0.5068,0.7736,0.8005,0.8015,0.8015,0.8208,0.8347,0.8347,0.0,0.0,0.0,0.0,0.7431,0.6067,0.4839,0.3577,0.222,0.1009,0.0353,0.0202,0.0202,0.0151,0.0,0.0,0.0,0.0,0.0,0.0,0.0,0.0,0.0,0.0,0.0,0.0,0.0,0.0,0.1803,0.1833,0.1943,0.2067,0.2228,0.2417,0.271,0.3069,0.3542,0.3497,0.3391,0.3352,0.3778,0.3889,0.346,0.3425,0.2834,0.1454,0.133,0.0984,0.026,0.0199,0.0126,0.0,0.0,0.0,0.0,0.0,0.0,0.0,0.0,0.1031,0.2903,0.3392,0.4639,0.647,0.6918,0.7082,0.7045,0.69,0.6719,0.6474,0.6081,0.5436,0.4715,0.4372,0.3765,0.3089,0.2814,0.2649,0.2448,0.1614,0.1247,0.0,0.0,0.0,0.0,0.0,0.0,0.0,0.0,0.0,0.0,0.0,0.0,0.0,0.0,0.0,0.0,0.0,0.0,0.0,0.0315,0.0095,0.0,0.0,0.0,0.1004,0.3663,0.4016,0.5068,0.7736,0.8153,0.8225,0.8225,0.836,0.8442,0.8442,0.8442,0.8442,0.8442,0.8411,0.7764,0.6401,0.6048,0.5131,0.3749,0.0,0.0,0.1611,0.1611,0.1008,0.0,0.0,0.0,0.0,0.0,0.0,0.0,0.0,0.0,0.0,0.0,0.0,0.0,0.1891,0.1896,0.192,0.1982,0.2194,0.2385,0.2487,0.273,0.3023,0.3394,0.3277,0.313,0.3091,0.3182,0.3095,0.2732,0.2416,0.191,0.1146,0.0763,0.0368,0.0,0.0,0.0,0.0,0.0,0.0,0.0,0.0,0.0,0.0,0.0,0.0986,0.2726,0.3347,0.4596,0.6293,0.6874,0.7095,0.7085,0.6943,0.645,0.5778,0.5544,0.5079,0.451,0.3804,0.3227,0.2717,0.2217,0.1977,0.177,0.091,0.0594,0.0535,0.0,0.0,0.0,0.0,0.0,0.0,0.0,0.0,0.0,0.0,0.0,0.0,0.0,0.0,0.0911,0.0,0.0,0.0449,0.0047,0.0,0.0,0.0,0.0,0.0756,0.2764,0.3615,0.4768,0.6781,0.7769,0.8323,0.8323,0.8472,0.8598,0.8598,0.8598,0.8598,0.8598,0.8523,0.8164,0.7527,0.6714,0.5931,0.5261,0.4405,0.3316,0.2013,0.2013,0.126,0.0,0.0,0.0,0.0,0.0,0.0,0.0,0.0,0.0,0.0,0.0,0.0,0.0,0.2012,0.2127,0.2187,0.2109,0.2321,0.2508,0.2539,0.2723,0.2963,0.3266,0.2939,0.2789,0.3087,0.2586,0.2174,0.2051,0.1469,0.1103,0.111,0.0392,0.0,0.0,0.0,0.0,0.0,0.0,0.0,0.0,0.0,0.0,0.0,0.0,0.0628,0.1835,0.3081,0.4283,0.5492,0.6605,0.6962,0.6773,0.6634,0.5851,0.4714,0.441,0.4229,0.3982,0.3108,0.2602,0.2216,0.1527,0.1194,0.0937,0.0231,0.0,0.0,0.0,0.0,0.0,0.0,0.0,0.0,0.0,0.0,0.0,0.0,0.0,0.0578,0.0117,0.0,0.0,0.0,0.0,0.0,0.0,0.0,0.0,0.0,0.0,0.0404,0.146,0.2815,0.4218,0.5827,0.7178,0.8052,0.8313,0.8587,0.8754,0.8754,0.8754,0.8754,0.8754,0.8635,0.857,0.857,0.7365,0.6777,0.6774,0.5456,0.414,0.2829,0.2518,0.1661,0.0353,0.0101,0.0,0.0,0.0,0.0,0.0,0.0,0.0,0.0,0.0,0.0,0.0,0.0,0.2602,0.2864,0.2509,0.2477,0.2546,0.2652,0.2699,0.2862,0.3252,0.3302,0.3453,0.3824,0.3792,0.353,0.3014,0.2281,0.1661,0.1142,0.0403,0.0,0.0,0.0,0.0,0.0,0.0,0.0,0.0,0.0,0.0,0.0,0.0,0.0628,0.1835,0.3081,0.4283,0.5492,0.6605,0.6517,0.557,0.5586,0.4737,0.3383,0.2491,0.2076,0.1914,0.1796,0.1155,0.0291,0.0219,0.0176,0.0135,0.0035,0.0,0.0,0.0,0.0,0.0,0.009,0.0093,0.0259,0.0849,0.0588,0.0182,0.0,0.0,0.0084,0.0,0.0,0.0,0.0,0.0,0.0,0.0,0.0,0.0,0.0,0.0,0.005,0.0202,0.141,0.3217,0.5777,0.6426,0.7188,0.8403,0.874,0.8858,0.8858,0.8858,0.8858,0.8858,0.8841,0.8834,0.8834,0.8571,0.8441,0.8438,0.8008,0.7103,0.5755,0.4399,0.3065,0.1711,0.0504,0.0,0.0,0.0,0.0,0.0,0.0,0.0,0.0,0.0,0.0,0.0,0.0,0.2575,0.2728,0.2634,0.2804,0.2907,0.2719,0.2696,0.2795,0.3037,0.3164,0.3344,0.3624,0.371,0.3736,0.3629,0.2956,0.2313,0.1787,0.1033,0.0456,0.0,0.0,0.0,0.0,0.0,0.0,0.0,0.0,0.0,0.0,0.0,0.0628,0.1835,0.2325,0.3217,0.4372,0.4863,0.4786,0.4341,0.4344,0.356,0.2376,0.1964,0.132,0.0676,0.0668,0.0397,0.0,0.0,0.0,0.0,0.0,0.0,0.0,0.0,0.0,0.0,0.0,0.0,0.0072,0.0,0.0198,0.0,0.0,0.0,0.0,0.0,0.0,0.0,0.0,0.0,0.0,0.0,0.0,0.0,0.0,0.0,0.0,0.0,0.0504,0.1913,0.457,0.5755,0.6969,0.8367,0.8682,0.8845,0.8878,0.8885,0.8885,0.8885,0.8885,0.8885,0.8885,0.8788,0.871,0.8706,0.8411,0.7593,0.6236,0.4708,0.2865,0.0807,0.0252,0.0,0.0,0.0,0.0,0.0,0.0,0.0,0.0,0.0,0.0,0.0,0.0,0.2916,0.2909,0.2869,0.3097,0.3163,0.2762,0.2696,0.2768,0.2926,0.3037,0.3195,0.3437,0.3535,0.3697,0.3967,0.3324,0.2699,0.2232,0.151,0.077,0.0039,0.0,0.0,0.0,0.0,0.0,0.0,0.0,0.0,0.0,0.0,0.0449,0.1299,0.1657,0.2281,0.3124,0.3461,0.3424,0.3115,0.312,0.2369,0.1321,0.1515,0.108,0.0285,0.0071,0.0,0.0,0.0,0.0,0.0,0.0,0.0,0.0,0.0,0.0,0.0,0.0,0.0,0.0,0.0,0.0,0.0,0.0,0.0279,0.0569,0.054,0.084,0.0992,0.0604,0.0555,0.0454,0.005,0.0,0.0,0.0,0.0,0.0,0.0,0.0,0.0907,0.3215,0.4849,0.6339,0.7833,0.8408,0.8557,0.8315,0.866,0.8716,0.8322,0.8716,0.8885,0.8885,0.8828,0.8774,0.8771,0.8513,0.7894,0.6852,0.4869,0.2514,0.0,0.0,0.0,0.0,0.0,0.0,0.0,0.0,0.0,0.0,0.0,0.0,0.0,0.0,0.0,0.3816,0.336,0.329,0.3163,0.2762,0.2696,0.2802,0.3057,0.3098,0.3236,0.3563,0.36,0.3697,0.3967,0.3324,0.2699,0.2232,0.1523,0.0778,0.0039,0.0,0.0,0.0,0.0,0.0,0.0,0.0,0.0,0.0,0.0,0.0,0.009,0.1299,0.1835,0.1921,0.3105,0.2904,0.1856,0.186,0.1122,0.0117,0.0855,0.1094,0.0977,0.027,0.0,0.0,0.0,0.0,0.0,0.0,0.0,0.0,0.0,0.0,0.0,0.0,0.0,0.0,0.0,0.0,0.0,0.0,0.1026,0.1915,0.1953,0.2962,0.3463,0.2163,0.1963,0.1511,0.0202,0.0,0.0,0.0,0.0,0.0,0.0,0.0,0.0555,0.0,0.3372,0.4888,0.6458,0.7867,0.8119,0.6861,0.8097,0.8266,0.6813,0.8156,0.8885,0.8885,0.8878,0.8875,0.8875,0.8771,0.8618,0.8305,0.5357,0.2514,0.0,0.0,0.0,0.0,0.0,0.0,0.0,0.0,0.0,0.0,0.0,0.0,0.0,0.0,0.0,0.0,0.3793,0.3756,0.3609,0.3163,0.2874,0.2771,0.2936,0.3131,0.0,0.0,0.0,0.0,0.0,0.3733,0.3197,0.2127,0.1914,0.1273,0.0071,0.0,0.0,0.0,0.0702,0.105,0.1073,0.1716,0.2059,0.2059,0.2059,0.2059,0.2059,0.1801,0.2057,0.2612,0.1618,0.1401,0.1647,0.1534,0.1223,0.0973,0.1818,0.2122,0.1986,0.0,0.1267,0.0744,0.0729,0.0408,0.0,0.0,0.0,0.0,0.0,0.0,0.0,0.0,0.0,0.0,0.0,0.0663,0.1305,0.134,0.2341,0.3279,0.3212,0.3552,0.344,0.209,0.1862,0.1434,0.0198,0.0,0.0,0.0,0.0,0.0,0.0,0.0,0.0,0.0,0.0,0.0,0.6238,0.7728,0.8408,0.8064,0.7659,0.7651,0.8156,0.7706,0.7931,0.8881,0.8885,0.8885,0.8878,0.8679,0.7521,0.5617,0.4517,0.2514,0.0,0.0,0.0,0.0,0.0,0.0,0.0,0.0,0.0,0.0,0.0,0.0,0.0,0.0,0.0,0.0,0.0,0.0,0.0,0.0,0.0,0.0,0.0,0.0,0.0,0.0,0.0,0.0,0.0,0.0,0.3498,0.2467,0.2219,0.16,0.043,0.014,0.0109,0.0377,0.1072,0.1568,0.1939,0.2585,0.2919,0.2944,0.2944,0.2944,0.2944,0.2291,0.2331,0.2861,0.1543,0.1376,0.1972,0.1805,0.1722,0.1807,0.2645,0.2887,0.0,0.3124,0.2463,0.1466,0.1182,0.0794,0.0346,0.0086,0.0,0.0,0.0,0.0,0.0,0.0,0.0,0.0138,0.0577,0.1372,0.2131,0.2607,0.3698,0.4597,0.4463,0.4732,0.4479,0.275,0.2385,0.1845,0.0242,0.0,0.0,0.0,0.0,0.0,0.0,0.0,0.0,0.0,0.0,0.0,0.5464,0.7397,0.8335,0.7939,0.7633,0.7706,0.8097,0.7706,0.7931,0.8881,0.8885,0.8885,0.8878,0.8682,0.7073,0.4313,0.4155,0.259,0.0,0.0,0.0,0.0,0.0,0.0,0.0,0.0,0.0,0.0,0.0,0.0,0.0,0.0,0.0,0.0,0.0,0.0,0.0,0.0,0.0,0.0,0.0,0.0,0.0,0.0,0.0,0.0,0.0,0.0,0.0,0.3103,0.2389,0.1717,0.1115,0.0418,0.0397,0.108,0.1186,0.1679,0.2549,0.2624,0.2732,0.2834,0.2834,0.2834,0.2834,0.2797,0.2797,0.2831,0.2728,0.2702,0.273,0.2627,0.257,0.2634,0.3237,0.343,0.3469,0.4241,0.3544,0.2148,0.1399,0.0,0.0,0.0,0.0,0.0,0.0,0.0,0.0,0.0,0.0,0.033,0.1689,0.2063,0.2464,0.3812,0.5038,0.5863,0.5688,0.6403,0.6351,0.0,0.0,0.2564,0.0376,0.0,0.0,0.0,0.0,0.0,0.0,0.0,0.0,0.0,0.0,0.0,0.4188,0.0,0.7958,0.6686,0.8023,0.8156,0.6869,0.8097,0.8826,0.8885,0.8885,0.8885,0.8881,0.8672,0.7129,0.4515,0.4205,0.2588,0.0,0.0,0.0,0.0,0.0,0.0,0.0,0.0,0.0,0.0,0.0,0.0,0.0,0.0,0.0,0.0,0.0,0.0,0.0,0.0,0.0,0.0,0.0,0.0,0.0,0.0,0.0,0.0,0.0,0.0,0.0,0.284,0.2296,0.1693,0.0986,0.0882,0.092,0.1085,0.2428,0.3234,0.3453,0.4283,0.4683,0.4714,0.4714,0.4714,0.468,0.3874,0.3978,0.4607,0.3017,0.2799,0.3507,0.3389,0.3311,0.34,0.4213,0.4458,0.4362,0.4586,0.3987,0.0,0.0,0.0,0.0,0.0,0.0,0.0,0.0,0.0,0.0,0.0,0.0,0.0297,0.1655,0.2764,0.3802,0.508,0.6251,0.7029,0.6634,0.6685,0.6079,0.0,0.0,0.0,0.0355,0.0,0.0,0.0,0.0,0.0,0.0,0.0,0.0,0.0,0.2533,0.0,0.0,0.6871,0.8388,0.8154,0.7578,0.7595,0.8322,0.7651,0.7762,0.8881,0.8885,0.8885,0.8881,0.7629,0.615,0.4463,0.3143,0.1626,0.0,0.0,0.0,0.0,0.0,0.0,0.0,0.0,0.0,0.0,0.0,0.0,0.0,0.0,0.0,0.0,0.0,0.0,0.0,0.0,0.0,0.0,0.0,0.0,0.0,0.0,0.0,0.0,0.0,0.0,0.0,0.0,0.2683,0.2229,0.1883,0.1695,0.1725,0.2058,0.3156,0.3856,0.4207,0.4842,0.5165,0.5165,0.5165,0.5165,0.5165,0.4548,0.4615,0.5101,0.3905,0.3746,0.0,0.0,0.4089,0.4128,0.4568,0.4667,0.4617,0.0,0.0,0.0,0.0,0.0,0.0,0.0,0.0,0.0,0.0,0.0,0.0,0.0,0.0444,0.1209,0.2564,0.3844,0.5072,0.6227,0.6897,0.716,0.66,0.6363,0.0,0.0,0.0,0.0,0.0,0.0,0.0,0.0,0.0,0.0,0.0,0.0,0.0,0.0,0.1936,0.3554,0.0,0.7,0.8618,0.8706,0.8023,0.8042,0.8881,0.8097,0.8045,0.8881,0.8266,0.7931,0.7928,0.6358,0.49,0.3468,0.2492,0.1333,0.0,0.0,0.0,0.0,0.0,0.0,0.0,0.0,0.0,0.0,0.0,0.0,0.0,0.0,0.0,0.0,0.0,0.0,0.0,0.0,0.0,0.0,0.0,0.0,0.0,0.0,0.0,0.0,0.0,0.0,0.0,0.0,0.0,0.2963,0.31,0.2604,0.2649,0.3287,0.3584,0.4048,0.466,0.4792,0.4857,0.4857,0.4857,0.4857,0.4857,0.4857,0.4857,0.4857,0.4857,0.4857,0.4847,0.4714,0.466,0.4675,0.0,0.0,0.0,0.0,0.0,0.0,0.0,0.0743,0.0,0.0,0.0,0.0,0.0,0.014,0.0288,0.0245,0.1244,0.2564,0.3917,0.5038,0.6064,0.7129,0.7082,0.6633,0.6054,0.0,0.4959,0.3014,0.2564,0.194,0.0288,0.0,0.0,0.0,0.0,0.0,0.0,0.0,0.0,0.0,0.1206,0.2642,0.4075,0.6663,0.8301,0.8686,0.8811,0.8826,0.8605,0.8605,0.8491,0.8322,0.7035,0.6422,0.6366,0.4916,0.3519,0.2179,0.1984,0.1193,0.0,0.0,0.0,0.0,0.0,0.0,0.0,0.0,0.0,0.0,0.0,0.0,0.0,0.0,0.0,0.0,0.0,0.0,0.0,0.0,0.0,0.0,0.0,0.4017,0.3604,0.0,0.0,0.0,0.0,0.0,0.0,0.0,0.0,0.0,0.31,0.3095,0.3176,0.3287,0.3981,0.0,0.0,0.0,0.4569,0.4569,0.4569,0.4569,0.4569,0.4569,0.4569,0.4569,0.4569,0.4569,0.4566,0.4542,0.4532,0.4528,0.0,0.0,0.0,0.0,0.0,0.0,0.0,0.1333,0.0,0.0,0.0,0.0,0.0,0.0776,0.1662,0.1645,0.2608,0.3967,0.5325,0.5625,0.5894,0.693,0.6763,0.0,0.0,0.0,0.4645,0.2853,0.2527,0.0,0.0275,0.0,0.0,0.0,0.0,0.0,0.0,0.0,0.0,0.0,0.0,0.0,0.0,0.0,0.6282,0.8731,0.8868,0.8322,0.7146,0.7093,0.6478,0.5252,0.5027,0.4862,0.4862,0.3352,0.2459,0.218,0.0949,0.022,0.0,0.0,0.0,0.0,0.0,0.0,0.0,0.0,0.0,0.0,0.0,0.0,0.0,0.0,0.0,0.0,0.0,0.0,0.0,0.0,0.5138,0.5066,0.4415,0.4368,0.4214,0.3743,0.3713,0.3682,0.0,0.0,0.0,0.0,0.0,0.0,0.0,0.3836,0.3929,0.0,0.0,0.0,0.0,0.0,0.0,0.0,0.0,0.0,0.0,0.0,0.0,0.0,0.0,0.4491,0.0,0.0,0.0,0.0,0.0,0.0,0.0,0.0,0.0,0.0,0.0,0.2245,0.1369,0.165,0.1771,0.1906,0.1936,0.2446,0.2944,0.3001,0.4017,0.5172,0.5827,0.6251,0.6572,0.6767,0.0,0.0,0.0,0.0,0.4501,0.3199,0.0,0.0,0.0,0.0,0.0,0.0,0.0,0.0,0.0,0.0,0.0,0.0,0.0,0.0,0.0,0.0,0.4578,0.7595,0.8491,0.8211,0.6758,0.6702,0.5975,0.4528,0.3688,0.3296,0.3296,0.179,0.1063,0.1008,0.0336,0.0,0.0,0.0,0.0,0.0,0.0,0.0,0.0,0.0,0.0,0.0,0.0,0.0,0.0,0.0,0.0,0.0,0.0,0.0,0.0,0.0,0.5152,0.5201,0.4171,0.4717,0.4919,0.4189,0.4095,0.3979,0.0,0.0,0.0,0.0,0.0,0.0,0.0,0.0,0.0,0.0,0.0,0.0,0.0,0.0,0.0,0.0,0.0,0.0,0.0,0.0,0.0,0.0,0.0,0.0,0.0,0.0,0.0,0.0,0.0,0.0,0.0,0.0,0.0,0.0,0.0,0.3372,0.315,0.3656,0.3645,0.3525,0.3608,0.3919,0.4264,0.4375,0.5406,0.6431,0.6431,0.6908,0.7173,0.6644,0.6074,0.0,0.0,0.4663,0.4403,0.3557,0.0,0.0,0.0,0.0,0.0,0.0,0.0,0.0,0.0,0.0,0.0,0.0,0.0,0.0,0.0,0.0,0.0,0.6086,0.7315,0.726,0.5806,0.575,0.5025,0.3578,0.2348,0.1733,0.1733,0.056,0.0,0.0,0.0,0.0,0.0,0.0,0.0,0.0,0.0,0.0,0.0,0.0,0.0,0.0,0.0,0.0,0.0,0.0,0.0,0.0,0.0,0.0,0.0,0.0,0.5268,0.5381,0.4332,0.4919,0.5397,0.5194,0.5048,0.4694,0.0,0.0,0.0,0.0,0.0,0.0,0.0,0.0,0.0,0.0,0.0,0.0,0.0,0.0,0.0,0.0,0.0,0.0,0.0,0.0,0.0,0.0,0.0,0.0,0.0,0.0,0.0,0.0,0.0,0.0,0.0,0.0,0.0,0.0,0.0,0.0,0.4925,0.5265,0.4369,0.3149,0.3179,0.0,0.0,0.5625,0.6692,0.7839,0.7839,0.7456,0.6997,0.6576,0.0,0.0,0.4789,0.4607,0.4283,0.3541,0.3283,0.0,0.0,0.0,0.0,0.0,0.0,0.0,0.0,0.0,0.0,0.0,0.0,0.0,0.0,0.0,0.0,0.4637,0.4804,0.419,0.2681,0.2625,0.1901,0.0448,0.028,0.0224,0.0224,0.0056,0.0,0.0,0.0,0.0,0.0,0.0,0.0,0.0,0.0,0.0,0.0,0.0,0.0,0.0,0.0,0.0,0.0,0.0,0.0,0.0,0.0,0.0,0.0,0.5156,0.5368,0.5318,0.4492,0.5354,0.5897,0.5459,0.5769,0.5649,0.4746,0.0,0.0,0.0,0.0,0.0,0.0,0.0,0.0,0.0,0.0,0.0,0.0,0.0,0.0,0.0,0.0,0.0,0.0,0.0,0.0,0.0,0.0,0.0,0.0,0.0,0.0,0.0,0.0,0.0,0.0,0.0,0.0,0.0,0.0,0.0,0.0,0.5009,0.4792,0.0,0.0,0.588,0.6626,0.6915,0.7478,0.7968,0.7877,0.7473,0.6933,0.6349,0.0,0.5242,0.4692,0.4532,0.4405,0.4125,0.3635,0.2959,0.1919,0.1388,0.0848,0.0,0.0,0.0,0.0,0.0,0.0,0.0,0.0,0.0,0.0,0.0,0.0,0.1735,0.4357,0.4691,0.2291,0.3073,0.2404,0.0,0.0,0.0,0.0,0.0,0.0,0.0,0.0,0.0,0.0,0.0,0.0,0.0,0.0,0.0,0.0,0.0,0.0,0.0,0.0,0.0,0.0,0.0,0.0,0.0,0.0,0.0,0.6361,0.563,0.5559,0.5373,0.4747,0.5721,0.6302,0.5882,0.647,0.6643,0.5945,0.4897,0.0,0.0,0.0,0.0,0.0,0.0,0.0,0.0,0.0,0.0,0.0,0.0,0.0,0.0,0.0,0.0,0.0,0.0,0.0,0.0,0.0,0.0,0.0,0.0,0.0,0.0,0.0,0.0,0.0,0.0,0.0,0.0,0.0,0.0,0.0,0.0,0.0,0.0,0.0,0.6675,0.7045,0.7451,0.7726,0.7882,0.7777,0.7377,0.6795,0.0,0.0,0.5167,0.4604,0.4491,0.4491,0.4491,0.4042,0.3324,0.2372,0.1755,0.1083,0.015,0.0,0.0,0.0,0.0,0.0,0.0,0.0,0.0,0.0,0.0,0.0,0.0672,0.4078,0.4691,0.1622,0.2627,0.2126,0.0,0.0,0.0,0.0,0.0,0.0,0.0,0.0,0.0,0.0,0.0,0.0,0.0,0.0,0.0,0.0,0.0,0.0,0.0,0.0,0.0,0.0,0.0,0.0,0.0,0.0,0.0,0.0,0.6062,0.5885,0.5622,0.5169,0.5965,0.6583,0.6588,0.7235,0.7696,0.7664,0.5737,0.0,0.0,0.0,0.0,0.0,0.0,0.0,0.0,0.0,0.4098,0.3314,0.0,0.0,0.0,0.0,0.0,0.0,0.0,0.0,0.0,0.0,0.0,0.0,0.0,0.0,0.0,0.0,0.0,0.0,0.0,0.0,0.0,0.0,0.0,0.0,0.0,0.0,0.0,0.0,0.6125,0.6739,0.6852,0.7265,0.7604,0.76,0.7149,0.6586,0.0,0.5531,0.4975,0.4583,0.4491,0.4491,0.4491,0.4491,0.3974,0.2448,0.2193,0.1689,0.0193,0.0,0.0,0.0,0.0,0.0,0.0,0.0,0.0,0.0,0.0,0.0,0.218,0.3688,0.3131,0.0112,0.0056,0.0056,0.0,0.0,0.0,0.0,0.0,0.0,0.0,0.0,0.0,0.0,0.0,0.0,0.0,0.0,0.0,0.0,0.0,0.0,0.0,0.0,0.0,0.0,0.0,0.0,0.0,0.0,0.0,0.0,0.0,0.5812,0.5376,0.5135,0.5299,0.5727,0.6511,0.6717,0.7054,0.7652,0.6167,0.0,0.0,0.0,0.0,0.0,0.0,0.0,0.0,0.0,0.3635,0.3373,0.2308,0.1665,0.0,0.0,0.0,0.0,0.0,0.0,0.0,0.0,0.0,0.0,0.0,0.0,0.0,0.0,0.0,0.0,0.0,0.0,0.0,0.0,0.0,0.0,0.0,0.0,0.0,0.4887,0.5504,0.0,0.5643,0.6194,0.6654,0.5918,0.5984,0.606,0.5508,0.5235,0.4972,0.4583,0.4491,0.4491,0.4491,0.4491,0.4003,0.2443,0.2192,0.0,0.0,0.0,0.0,0.0,0.0,0.0,0.0,0.0,0.0,0.0,0.0,0.0,0.218,0.2682,0.2516,0.151,0.151,0.1008,0.0,0.0,0.0,0.0,0.0,0.0,0.0,0.0,0.0,0.0,0.0,0.0,0.0,0.0,0.0,0.0,0.0,0.0,0.0,0.0,0.0,0.0,0.0,0.0,0.0,0.0,0.0,0.0,0.0,0.6101,0.5689,0.5599,0.5611,0.5926,0.6775,0.7043,0.7416,0.8051,0.7009,0.0,0.0,0.0,0.0,0.0,0.0,0.0,0.0,0.3624,0.3116,0.2519,0.1573,0.0967,0.0678,0.0214,0.0632,0.0,0.0,0.0,0.0,0.0,0.0,0.0,0.0,0.0,0.0,0.0,0.0,0.0,0.0,0.0,0.0,0.0,0.0,0.0,0.0,0.0,0.0,0.0,0.4975,0.5339,0.0,0.5656,0.6058,0.539,0.5491,0.5664,0.5197,0.5012,0.4867,0.4559,0.4491,0.4491,0.4491,0.4267,0.368,0.2394,0.1953,0.0,0.0,0.0,0.0,0.0,0.0,0.0,0.0,0.0,0.0,0.0,0.0,0.0,0.3817,0.3319,0.3034,0.296,0.1944,0.0952,0.0,0.0,0.0,0.0,0.0,0.0,0.0,0.0,0.0,0.0,0.0,0.0,0.0,0.0,0.0,0.0,0.0,0.0,0.0,0.0,0.0,0.0,0.0,0.0,0.0,0.0,0.0,0.0,0.0,0.6652,0.6389,0.6407,0.6573,0.6844,0.7256,0.7892,0.8438,0.8784,0.0,0.0,0.0,0.0,0.0,0.0,0.0,0.0,0.3428,0.3345,0.2582,0.109,0.1034,0.0681,0.0,0.0,0.0409,0.1211,0.0,0.0,0.0,0.0,0.0,0.0,0.0,0.0,0.0,0.0,0.0,0.0,0.0,0.0,0.0,0.0,0.0,0.0,0.0,0.0,0.0,0.0,0.0,0.0,0.0,0.5539,0.0,0.0,0.5474,0.5306,0.5086,0.4877,0.0,0.4522,0.4491,0.4498,0.4435,0.3866,0.3121,0.225,0.0,0.0,0.0,0.0,0.0,0.0,0.0,0.0,0.0,0.0,0.0,0.0,0.0,0.0,0.6416,0.5216,0.4371,0.4192,0.1536,0.0168,0.0168,0.0165,0.0164,0.0273,0.0211,0.0156,0.0156,0.0051,0.0,0.0,0.0,0.0,0.0,0.0,0.0,0.0,0.0,0.0,0.0,0.0,0.0,0.0,0.0,0.0,0.0,0.0,0.0,0.0,0.0,0.0,0.0,0.0,0.5957,0.6069,0.717,0.7363,0.7784,0.0,0.0,0.0,0.0,0.0,0.0,0.0,0.0,0.0,0.3428,0.2788,0.2039,0.1096,0.0535,0.0163,0.0,0.0,0.0701,0.1918,0.1536,0.2121,0.0,0.0,0.0,0.0,0.0,0.0,0.0,0.0,0.0,0.0,0.0,0.0,0.0,0.0,0.0,0.0,0.0,0.0,0.0,0.0,0.4515,0.4569,0.4675,0.0,0.4799,0.4052,0.4389,0.4836,0.0,0.4685,0.4675,0.4522,0.4491,0.4332,0.3749,0.3472,0.2897,0.0,0.0,0.0,0.0,0.0,0.0,0.0,0.0,0.0,0.0,0.0,0.0,0.0,0.0,0.5998,0.6346,0.5014,0.4261,0.4191,0.2463,0.1507,0.1507,0.1555,0.2032,0.3044,0.2039,0.1554,0.1501,0.0458,0.0,0.0,0.0,0.0,0.0,0.0,0.0,0.0,0.0,0.0,0.0,0.0,0.0,0.0,0.0,0.0,0.0,0.0,0.0,0.0,0.0,0.0,0.0,0.0,0.0,0.0,0.0,0.0,0.0,0.0,0.0,0.0,0.0,0.0,0.0,0.0,0.0,0.3987,0.2871,0.2425,0.1672,0.0586,0.0191,0.0,0.0,0.0,0.0613,0.17,0.1634,0.2251,0.0,0.0,0.0,0.0,0.0,0.0,0.0,0.0,0.0,0.0,0.4491,0.4491,0.0,0.4491,0.4491,0.4491,0.0,0.0,0.0,0.0,0.4491,0.4491,0.4491,0.4655,0.4654,0.4164,0.4406,0.4772,0.4691,0.4655,0.459,0.0,0.0,0.0,0.0,0.0,0.0,0.0,0.0,0.0,0.0,0.0,0.0,0.0,0.0,0.0,0.0,0.0,0.0,0.0,0.0,0.6548,0.718,0.5289,0.4436,0.5021,0.3056,0.1986,0.2019,0.2634,0.2989,0.3093,0.237,0.1687,0.1074,0.0355,0.0,0.0,0.0,0.0,0.0,0.0,0.0,0.0,0.0,0.0,0.0,0.0,0.0,0.0,0.0,0.0,0.0,0.0,0.0,0.0,0.0,0.0,0.0,0.0,0.0,0.0,0.0,0.0,0.0,0.0,0.0,0.0,0.0,0.0,0.0,0.0,0.0,0.3855,0.2445,0.2265,0.1528,0.0185,0.0064,0.0,0.0,0.0,0.0345,0.0962,0.1964,0.2689,0.0,0.0,0.0,0.0,0.0,0.0,0.0,0.0,0.0,0.0,0.0,0.0,0.0,0.4491,0.4491,0.4491,0.4491,0.0,0.0,0.0,0.0,0.0,0.4545,0.4755,0.4965,0.487,0.487,0.4911,0.4864,0.0,0.0,0.0,0.0,0.0,0.0,0.0,0.0,0.0,0.0,0.0,0.0,0.0,0.0,0.0,0.0,0.0,0.0,0.0,0.0,0.0,0.0,0.7053,0.819,0.586,0.4951,0.5982,0.382,0.2604,0.2634,0.3731,0.3754,0.2626,0.2382,0.1611,0.0303,0.0101,0.0,0.0,0.0,0.0,0.0,0.0,0.0,0.0,0.0,0.0101,0.0303,0.005,0.0151,0.0252,0.0,0.0,0.0,0.0,0.0,0.0,0.0,0.0,0.0,0.0,0.0,0.0,0.0,0.0,0.0,0.0,0.0,0.0,0.0,0.0,0.0,0.5406,0.4814,0.4154,0.3401,0.2603,0.1845,0.1109,0.0367,0.0,0.0,0.0,0.0073,0.0257,0.243,0.3007,0.2397,0.0,0.0,0.0,0.0,0.0,0.0,0.0,0.0,0.0,0.0,0.0,0.0,0.4491,0.4491,0.4491,0.4491,0.0,0.0,0.0,0.0,0.0,0.4779,0.5067,0.5204,0.4689,0.4816,0.5002,0.4782,0.4789,0.0,0.0,0.0,0.0,0.0,0.0,0.0,0.0,0.0,0.0,0.0,0.0,0.0,0.0,0.0,0.0,0.0,0.0,0.0,0.0,0.0,0.7845,0.8025,0.6559,0.5794,0.5979,0.5577,0.5391,0.537,0.5608,0.5601,0.5347,0.4225,0.3015,0.1661,0.0504,0.0,0.0,0.0,0.0,0.0,0.0,0.0,0.0,0.0,0.0706,0.1561,0.0404,0.0706,0.1511,0.0,0.0,0.0,0.0,0.0,0.0,0.0,0.0,0.0,0.0,0.0,0.0,0.0,0.0,0.0,0.0,0.0,0.0,0.0,0.0,0.0,0.63,0.5586,0.4691,0.3632,0.2673,0.1911,0.129,0.041,0.0,0.0,0.0799,0.0759,0.0094,0.2409,0.2969,0.2259,0.2982,0.0,0.0,0.0,0.0,0.0,0.0,0.0,0.0,0.0,0.0,0.0,0.0,0.4491,0.4491,0.4491,0.0,0.0,0.0,0.0,0.0,0.4662,0.4894,0.5057,0.4779,0.5104,0.5477,0.5426,0.5345,0.0,0.0,0.0,0.0,0.0,0.0,0.0,0.0,0.0,0.0,0.0,0.0,0.0,0.0,0.0,0.0,0.0,0.0,0.0,0.0,0.0,0.0,0.7988,0.6734,0.6331,0.7083,0.6381,0.6331,0.7083,0.7083,0.6731,0.5979,0.462,0.3316,0.1962,0.0605,0.0,0.0,0.0,0.0,0.0,0.0,0.0,0.005,0.0807,0.146,0.1913,0.131,0.146,0.1812,0.0,0.0,0.0,0.0,0.0,0.0,0.0,0.0,0.0,0.0,0.0,0.0,0.0,0.0,0.0,0.0,0.0,0.0,0.0,0.0,0.7616,0.6852,0.6345,0.542,0.4057,0.2862,0.2077,0.1691,0.0562,0.0109,0.034,0.1639,0.1661,0.0676,0.2548,0.3033,0.2508,0.3065,0.379,0.0,0.0,0.0,0.0,0.0,0.0,0.0,0.0,0.0,0.0,0.0,0.0,0.0,0.0,0.0,0.0,0.4491,0.4491,0.4505,0.458,0.4741,0.4904,0.5006,0.5335,0.5711,0.5936,0.5827,0.5681,0.0,0.0,0.0,0.0,0.0,0.0,0.0,0.0,0.0,0.0,0.0,0.0,0.0,0.0,0.0,0.0,0.0,0.0,0.0,0.0,0.0,0.7988,0.7033,0.6933,0.7988,0.6983,0.6983,0.7988,0.7988,0.7335,0.5979,0.462,0.3316,0.1962,0.0605,0.0,0.0,0.0,0.0,0.0,0.0,0.0202,0.0555,0.1611,0.2213,0.2464,0.2464,0.2264,0.1812,0.0,0.0,0.0,0.0,0.0,0.0,0.0,0.0,0.0,0.0,0.0,0.0,0.0,0.0,0.0,0.0,0.0,0.0,0.0,0.0,0.8082,0.6695,0.6748,0.6335,0.5301,0.3436,0.2569,0.2783,0.0917,0.0415,0.1206,0.2092,0.241,0.2363,0.3202,0.3444,0.3231,0.3345,0.3818,0.4491,0.0,0.0,0.0,0.0,0.0,0.0,0.0,0.0,0.0,0.0,0.0,0.0,0.0,0.0,0.4491,0.4491,0.4491,0.4552,0.4809,0.487,0.4986,0.5293,0.5254,0.5295,0.5861,0.5901,0.0,0.6505,0.0,0.0,0.0,0.0,0.0,0.0,0.0,0.0,0.0,0.0,0.0,0.0,0.0,0.0,0.0,0.0,0.0,0.0,0.0,0.0,0.7988,0.7889,0.7889,0.7988,0.7889,0.7889,0.7988,0.7988,0.7335,0.5979,0.462,0.3316,0.1962,0.0605,0.0,0.0,0.0,0.0,0.0,0.0,0.0756,0.1862,0.1962,0.2764,0.3865,0.3865,0.3065,0.1812,0.0,0.0,0.0,0.0,0.0,0.0,0.0,0.0,0.0,0.0,0.0,0.0,0.0,0.0,0.0,0.0,0.0,0.0,0.0,0.8804,0.8391,0.7445,0.7084,0.659,0.5905,0.427,0.3267,0.2896,0.0936,0.045,0.1325,0.2006,0.2367,0.2545,0.3666,0.3837,0.3345,0.3873,0.4236,0.4491,0.4491,0.0,0.0,0.0,0.0,0.0,0.0,0.0,0.0,0.0,0.4491,0.4491,0.4491,0.4491,0.4491,0.4491,0.4491,0.4515,0.4631,0.484,0.5101,0.5344,0.5423,0.0,0.0,0.6407,0.662,0.7031,0.6806,0.0,0.0,0.0,0.0,0.0,0.0,0.0,0.0,0.0,0.0,0.0,0.0,0.0,0.0,0.0,0.0,0.0,0.0,0.0,0.7988,0.7988,0.7988,0.7988,0.7988,0.7988,0.7988,0.7988,0.7739,0.7235,0.502,0.3715,0.3165,0.1008,0.0,0.0,0.0,0.0,0.005,0.0907,0.1561,0.2163,0.3819,0.5322,0.6376,0.5575,0.4922,0.4171,0.0,0.0,0.0,0.0,0.0,0.0,0.0,0.0,0.0,0.0,0.0,0.0,0.0,0.0,0.0,0.0,0.0,0.0,0.8804,0.8804,0.8511,0.7854,0.7235,0.6672,0.6162,0.5011,0.4049,0.324,0.1622,0.1273,0.2086,0.2518,0.2908,0.331,0.4183,0.4251,0.3764,0.4286,0.4491,0.4491,0.4491,0.4491,0.0,0.0,0.0,0.0,0.0,0.0,0.0,0.0,0.4395,0.4402,0.4474,0.4491,0.4491,0.4491,0.4525,0.4563,0.4563,0.4792,0.5079,0.5344,0.0,0.0,0.6471,0.6742,0.6993,0.7482,0.7509,0.0,0.0,0.0,0.0,0.0,0.0,0.0,0.0,0.0,0.0,0.0,0.0,0.0,0.0,0.0,0.0,0.0,0.0,0.0,0.0,0.7988,0.7988,0.7988,0.7988,0.7988,0.7988,0.7988,0.7988,0.7988,0.5722,0.4418,0.3915,0.1209,0.0,0.0,0.0,0.0,0.0101,0.1461,0.2515,0.3468,0.5727,0.7185,0.7839,0.6481,0.5979,0.5677,0.0,0.0,0.0,0.0,0.0,0.0,0.0,0.0,0.0,0.0,0.0,0.0,0.0,0.0,0.0,0.0,0.0,0.0,0.8804,0.8804,0.848,0.775,0.7184,0.6606,0.6014,0.5617,0.4919,0.401,0.3138,0.3059,0.3808,0.3799,0.4196,0.4881,0.4758,0.4691,0.4677,0.4556,0.4491,0.4491,0.4491,0.4491,0.0,0.0,0.0,0.0,0.0,0.0,0.0,0.0,0.4194,0.4244,0.444,0.4487,0.4491,0.4491,0.46,0.4691,0.4687,0.4806,0.4996,0.0,0.0,0.0,0.6721,0.6817,0.6959,0.7806,0.0,0.76,0.76,0.0,0.0,0.0,0.0,0.0,0.0,0.0,0.0,0.0,0.0,0.0,0.0,0.0,0.0,0.0,0.0,0.0,0.0,0.7988,0.7988,0.7988,0.7988,0.7988,0.7988,0.7988,0.7988,0.7988,0.6631,0.5275,0.3915,0.126,0.0,0.0,0.0,0.0,0.0151,0.146,0.3618,0.6129,0.7484,0.7988,0.7839,0.6531,0.6029,0.5827,0.0,0.0,0.0,0.0,0.0,0.0,0.0,0.0,0.0,0.0,0.0,0.0,0.0,0.0,0.0,0.0,0.0,0.0,0.8804,0.8804,0.8699,0.848,0.7328,0.6603,0.6416,0.5435,0.4601,0.401,0.3048,0.2945,0.3672,0.3658,0.4041,0.4755,0.4711,0.4658,0.4556,0.4508,0.4491,0.4491,0.4491,0.4491,0.0,0.0,0.0,0.0,0.0,0.0,0.0,0.0,0.0,0.0,0.4237,0.4379,0.4491,0.4491,0.46,0.4667,0.4586,0.4952,0.0,0.5501,0.0,0.0,0.0,0.7204,0.0,0.0,0.0,0.0,0.0,0.0,0.0,0.0,0.0,0.0,0.0,0.0,0.0,0.0,0.0,0.0,0.0,0.0,0.0,0.0,0.0,0.0,0.0,0.7988,0.7988,0.7988,0.7988,0.7988,0.7988,0.7988,0.7988,0.7988,0.6631,0.5275,0.3966,0.2213,0.141,0.136,0.0404,0.1058,0.2914,0.427,0.5827,0.7437,0.7839,0.7988,0.7939,0.7537,0.7385,0.7235,0.0,0.0,0.0,0.0,0.0,0.0,0.0,0.0,0.0,0.0,0.9694,0.9788,0.0,0.0,0.0,0.0,0.0,0.0,0.0,0.8804,0.8804,0.8804,0.767,0.6792,0.6299,0.5519,0.4857,0.4278,0.3736,0.3641,0.403,0.4145,0.4397,0.4782,0.484,0.4782,0.4668,0.4607,0.4545,0.4491,0.4491,0.4491,0.4491,0.0,0.0,0.0,0.0,0.0,0.0,0.0,0.0,0.0,0.415,0.424,0.4337,0.4453,0.46,0.4711,0.4825,0.5269,0.0,0.5895,0.6441,0.7037,0.7451,0.0,0.0,0.0,0.0,0.0,0.0,0.0,0.0,0.0,0.0,0.0,0.0,0.0,0.0,0.0,0.0,0.0,0.0,0.0,0.0,0.0,0.0,0.0,0.0,0.7988,0.7988,0.7988,0.7988,0.7988,0.7988,0.7988,0.7988,0.7988,0.7185,0.6077,0.477,0.3416,0.2213,0.1209,0.0907,0.2314,0.487,0.5677,0.6783,0.7988,0.7988,0.7988,0.7988,0.7988,0.7988,0.7889,0.0,0.0,0.0,0.0,0.0,0.0,0.0,0.0,0.0,0.0,0.9788,0.9814,0.0,0.0,0.0,0.0,0.0,0.0,0.0,0.0,0.8804,0.8804,0.8103,0.7116,0.5914,0.5804,0.5436,0.4782,0.4853,0.4819,0.4677,0.4941,0.5005,0.4874,0.5015,0.5002,0.4887,0.4735,0.4617,0.4491,0.4491,0.4491,0.4487,0.4474,0.0,0.0,0.0,0.0,0.0,0.0,0.0,0.0,0.413,0.4115,0.4068,0.4389,0.459,0.4782,0.5238,0.0,0.0,0.0,0.0,0.0,0.0,0.0,0.0,0.0,0.0,0.0,0.0,0.0,0.0,0.0,0.0,0.0,0.0,0.0,0.0,0.0,0.0,0.0,0.0,0.0,0.0,0.0,0.0,0.0,0.0,0.7988,0.7988,0.7988,0.7988,0.7988,0.7988,0.7988,0.7988,0.7988,0.7988,0.7285,0.5979,0.472,0.2765,0.0454,0.1913,0.3869,0.6029,0.6129,0.6883,0.7988,0.7988,0.7988,0.7988,0.7988,0.7988,0.7988,0.0,0.0,0.0,0.0,0.0,0.0,0.0,0.0,0.0,0.0,0.0,0.0,0.0,0.0,0.0,0.0,0.0,0.0,0.0,0.0,0.8804,0.8804,0.8103,0.729,0.6435,0.5853,0.5491,0.5329,0.4948,0.466,0.4545,0.4823,0.4884,0.4748,0.4897,0.488,0.4728,0.4604,0.4518,0.4491,0.4491,0.4491,0.4477,0.4338,0.4267,0.0,0.0,0.0,0.0,0.0,0.0,0.0,0.4035,0.4102,0.416,0.4247,0.448,0.4738,0.0,0.5399,0.0,0.0,0.0,0.0,0.0,0.0,0.0,0.0,0.0,0.0,0.0,0.0,0.0,0.0,0.0,0.0,0.0,0.0,0.0,0.0,0.0,0.0,0.0,0.0,0.0,0.0,0.0,0.0,0.7988,0.7988,0.7988,0.7988,0.7988,0.7988,0.7988,0.7988,0.7988,0.0,0.7988,0.7285,0.5979,0.5727,0.467,0.3265,0.5672,0.6429,0.6079,0.7135,0.7739,0.7988,0.7988,0.7988,0.7988,0.7988,0.7988,0.7988,0.0,0.0,0.0,0.0,0.0,0.0,0.0,0.0,0.0,0.0,0.0,0.0,0.0,0.0,0.0,0.0,0.0,0.0,0.0,0.8804,0.8804,0.8804,0.8427,0.7883,0.7155,0.6389,0.5846,0.5515,0.4902,0.4607,0.4607,0.4877,0.5016,0.5047,0.5094,0.5043,0.4887,0.4667,0.4556,0.4491,0.4491,0.445,0.4351,0.425,0.415,0.4112,0.4112,0.0,0.0,0.0,0.0,0.0,0.0,0.0,0.4018,0.4092,0.4274,0.453,0.0,0.0,0.0,0.0,0.0,0.0,0.0,0.0,0.0,0.0,0.0,0.0,0.0,0.0,0.0,0.0,0.0,0.0,0.0,0.0,0.0,0.0,0.0,0.0,0.0,0.0,0.0,0.0,0.0,0.7988,0.7988,0.7988,0.7988,0.7988,0.7988,0.7988,0.7988,0.7988,0.7988,0.7988,0.7988,0.7637,0.6933,0.5625,0.537,0.5972,0.6728,0.7033,0.7033,0.7686,0.7988,0.7988,0.7988,0.7988,0.7988,0.7988,0.7988,0.7988,0.0,0.0,0.0,0.0,0.0,0.0,0.0,0.0,0.0,0.0,0.0,0.0,0.0,0.0,0.0,0.0,0.0,0.0,0.0,0.8804,0.8804,0.8804,0.8804,0.8507,0.791,0.7047,0.6312,0.5678,0.4897,0.4607,0.4809,0.4999,0.5213,0.5392,0.5365,0.5237,0.5042,0.4752,0.4541,0.445,0.4423,0.4314,0.4153,0.4127,0.4065,0.3957,0.3957,0.4038,0.4127,0.4177,0.0,0.0,0.0,0.0,0.3849,0.3951,0.4082,0.4308,0.0,0.0,0.0,0.0,0.0,0.0,0.0,0.0,0.0,0.0,0.0,0.0,0.0,0.0,0.0,0.0,0.0,0.0,0.0,0.0,0.0,0.0,0.0,0.0,0.0,0.0,0.0,0.0,0.0,0.7988,0.7988,0.7988,0.7988,0.7988,0.7988,0.7988,0.7988,0.7988,0.7988,0.7988,0.7988,0.7988,0.7939,0.5722,0.5922,0.7939,0.6833,0.6983,0.7988,0.7988,0.7988,0.7988,0.7988,0.7988,0.7988,0.7988,0.7988,0.7988,0.0,0.0,0.0,0.0,0.0,0.0,0.0,0.0,0.0,0.0,0.8929,0.9159,0.9736,0.929,0.0,0.0,0.0,0.0,0.8804,0.0,0.0,0.8804,0.8804,0.8752,0.8646,0.7289,0.6561,0.6453,0.5144,0.4771,0.5303,0.5176,0.5213,0.5388,0.522,0.5049,0.4887,0.4463,0.4271,0.4237,0.4105,0.4041,0.4011,0.39,0.3839,0.3822,0.3822,0.3836,0.3894,0.4132,0.4197,0.0,0.0,0.0,0.0,0.3856,0.4001,0.4267,0.0,0.0,0.0,0.0,0.0,0.0,0.0,0.0,0.0,0.0,0.0,0.0,0.0,0.0,0.0,0.0,0.0,0.0,0.0,0.0,0.0,0.0,0.0,0.0,0.0,0.0,0.0,0.0,0.7988,0.7988,0.7988,0.7988,0.7988,0.7988,0.7988,0.7988,0.7988,0.7988,0.7988,0.7988,0.7988,0.7988,0.7988,0.7637,0.7637,0.7988,0.7789,0.7839,0.7988,0.7988,0.7988,0.7988,0.7988,0.7988,0.7988,0.7988,0.7988,0.7988,0.0,0.0,0.0,0.0,0.0,0.0,0.0,0.0,0.0,0.0,0.0,0.891,0.9211,0.8982,0.0,0.0,0.0,0.0,0.8804,0.8804,0.0,0.8804,0.8804,0.8804,0.8804,0.7287,0.6516,0.6588,0.5077,0.4735,0.5521,0.542,0.5599,0.6006,0.565,0.5426,0.526,0.4724,0.4372,0.419,0.4149,0.4169,0.4233,0.3914,0.3897,0.3991,0.3765,0.3747,0.3826,0.4021,0.4127,0.417,0.0,0.0,0.0,0.0,0.0,0.0,0.4585,0.0,0.0,0.0,0.0,0.0,0.0,0.0,0.0,0.0,0.0,0.0,0.0,0.0,0.0,0.0,0.0,0.0,0.0,0.0,0.0,0.0,0.0,0.0,0.0,0.0,0.0,0.0,0.7988,0.7988,0.7988,0.7988,0.7988,0.7988,0.7988,0.7988,0.7988,0.7988,0.7988,0.7988,0.7988,0.7988,0.7988,0.7988,0.7988,0.7988,0.7988,0.7988,0.7988,0.7988,0.7988,0.7988,0.7988,0.7988,0.7988,0.7988,0.7988,0.7988,0.0,0.0,0.0,0.0,0.0,0.0,0.0,0.0,0.0,0.0,0.0,0.0,0.8804,0.0,0.0,0.0,0.0,0.0,0.8804,0.0,0.0,0.0,0.0,0.8725,0.854,0.7128,0.6384,0.6312,0.49,0.4678,0.5589,0.5589,0.5949,0.6566,0.6078,0.5739,0.5528,0.4931,0.4585,0.4385,0.4308,0.4365,0.4464,0.4216,0.4223,0.4341,0.3995,0.3928,0.3972,0.0,0.0,0.0,0.0,0.0,0.0,0.0,0.0,0.0,0.0,0.0,0.0,0.0,0.0,0.0,0.0,0.0,0.0,0.0,0.0,0.0,0.0,0.0,0.0,0.0,0.0,0.0,0.0,0.0,0.0,0.0,0.0,0.0,0.0,0.0,0.0,0.0,0.7988,0.7988,0.7988,0.7988,0.7988,0.7988,0.7988,0.7988,0.7988,0.7988,0.7988,0.7988,0.7988,0.7988,0.7988,0.7988,0.7988,0.7988,0.7988,0.7988,0.7988,0.7988,0.7988,0.7988,0.7988,0.7988,0.7988,0.7988,0.7988,0.7988,0.0,0.0,0.0,0.0,0.0,0.0,0.0,0.0,0.0,0.0,0.0,0.0,0.8804,0.9361,0.9736,0.9736,0.0,0.0,0.0,0.0,0.0,0.0,0.0,0.0,0.7777,0.6863,0.6122,0.5569,0.4657,0.4678,0.5589,0.5589,0.6061,0.6836,0.6246,0.5779,0.5378,0.4914,0.4765,0.483,0.4597,0.4484,0.4535,0.4908,0.4958,0.4833,0.4694,0.0,0.0,0.0,0.0,0.0,0.0,0.0,0.3775,0.0,0.0,0.0,0.0,0.0,0.0,0.0,0.0,0.0,0.0,0.0,0.0,0.0,0.0,0.0,0.0,0.0,0.0,0.0,0.0,0.0,0.0,0.0,0.0,0.0,0.0,0.0,0.0,0.0,0.0,0.0,0.7988,0.7988,0.7988,0.7988,0.7988,0.7988,0.7988,0.7988,0.7988,0.7988,0.7988,0.7988,0.7988,0.7988,0.7988,0.7988,0.7988,0.7988,0.7988,0.7988,0.7988,0.7988,0.7988,0.7988,0.7988,0.7988,0.7988,0.7988,0.7988,0.7988,0.0,0.0,0.0,0.0,0.0,0.0,0.0,0.0,0.0,0.0,0.0,0.0,0.0,0.9008,0.9159,0.9159,0.9159,0.0,0.0,0.0,0.0,0.0,0.0,0.0,0.0,0.6763,0.597,0.5373,0.4503,0.4436,0.5162,0.5388,0.5651,0.5922,0.5895,0.5847,0.5742,0.5006,0.4721,0.0,0.4653,0.487,0.5204,0.5043,0.5228,0.5541,0.51,0.0,0.0,0.0,0.0,0.0,0.4028,0.3957,0.389,0.3672,0.3714,0.0,0.0,0.0,0.0,0.0,0.0,0.0,0.0,0.0,0.0,0.0,0.0,0.0,0.0,0.0,0.0,0.0,0.0,0.0,0.0,0.0,0.0,0.0,0.0,0.0,0.0,0.0,0.0,0.0,0.0,0.7948,0.7899,0.7892,0.7851,0.776,0.7756,0.7756,0.7756,0.7756,0.7756,0.7756,0.7756,0.7756,0.776,0.7851,0.7892,0.7899,0.7948,0.7988,0.7988,0.7988,0.7988,0.7988,0.7988,0.7988,0.7988,0.7988,0.7988,0.7988,0.0,0.0,0.0,0.0,0.0,0.0,0.0,0.0,0.8804,0.8804,0.0,0.0,0.0,0.0,0.9133,0.9133,0.9133,0.9237,0.9439,0.8817,0.0,0.0,0.0,0.0,0.0,0.6401,0.5705,0.5302,0.4419,0.4274,0.4847,0.5074,0.5276,0.5474,0.5484,0.5647,0.5844,0.0,0.0,0.4996,0.0,0.5274,0.5596,0.5647,0.5841,0.6132,0.0,0.0,0.0,0.0,0.0,0.0,0.4233,0.4033,0.3832,0.3662,0.3751,0.0,0.3941,0.0,0.0,0.0,0.0,0.0,0.0,0.0,0.0,0.0,0.0,0.0,0.0,0.0,0.0,0.0,0.0,0.0,0.0,0.0,0.0,0.0,0.0,0.0,0.0,0.0,0.0,0.0,0.0,0.0,0.7746,0.774,0.7695,0.7604,0.76,0.76,0.76,0.76,0.76,0.76,0.76,0.76,0.7604,0.7695,0.774,0.7746,0.7848,0.7897,0.7988,0.7988,0.7988,0.7988,0.7988,0.7988,0.7988,0.7988,0.7988,0.7988,0.0,0.0,0.0,0.0,0.0,0.0,0.0,0.0,0.8804,0.8804,0.0,0.0,0.0,0.0,0.0,0.9803,0.9803,0.9524,0.8857,0.8129,0.0,0.0,0.0,0.0,0.6642,0.5764,0.5328,0.5293,0.4415,0.4243,0.467,0.468,0.4999,0.5545,0.5118,0.5165,0.5569,0.0,0.5569,0.5599,0.0,0.5722,0.5739,0.0,0.0,0.0,0.6664,0.6525,0.0,0.5769,0.0,0.0,0.0,0.4088,0.3614,0.3614,0.3716,0.0,0.0,0.0,0.0,0.0,0.0,0.0,0.0,0.0,0.0,0.0,0.0,0.0,0.0,0.0,0.0,0.0,0.0,0.0,0.0,0.0,0.0,0.0,0.0,0.0,0.0,0.0,0.0,0.0,0.76,0.7597,0.7594,0.759,0.7587,0.7587,0.7587,0.7587,0.7587,0.7587,0.7587,0.7587,0.7587,0.7587,0.7587,0.759,0.7594,0.7594,0.7597,0.776,0.7978,0.7982,0.7982,0.7982,0.7988,0.7988,0.7988,0.7988,0.7988,0.7988,0.0,0.0,0.0,0.0,0.0,0.9361,0.8883,0.8804,0.8804,0.0,0.0,0.0,0.8831,0.9153,0.9594,1.0119,0.9668,0.9415,0.9506,0.887,0.8507,0.8507,0.8295,0.7937,0.7396,0.655,0.5796,0.5148,0.4385,0.4058,0.4209,0.4453,0.4702,0.4942,0.5002,0.5052,0.5091,0.49,0.0,0.5572,0.5389,0.5777,0.0,0.0,0.0,0.0,0.0,0.6827,0.6559,0.0,0.5878,0.518,0.0,0.0,0.3897,0.3897,0.3981,0.4072,0.396,0.0,0.0,0.0,0.0,0.0,0.0,0.0,0.0,0.0,0.0,0.0,0.0,0.0,0.0,0.0,0.0,0.0,0.0,0.0,0.0,0.0,0.0,0.0,0.0,0.0,0.0,0.0,0.76,0.755,0.7441,0.7329,0.7223,0.7223,0.7223,0.7223,0.7223,0.7223,0.7223,0.7223,0.7223,0.7223,0.7227,0.7383,0.7434,0.7441,0.7553,0.7645,0.7729,0.7831,0.7875,0.7885,0.7944,0.7988,0.7988,0.7988,0.7988,0.7988,0.0,0.0,0.0,0.0,0.0,0.9469,0.9207,0.9072,0.9004,0.0,0.0,0.0,0.813,0.8658,0.9092,0.9287,0.9225,0.9248,0.9382,0.8738,0.8348,0.8348,0.8049,0.783,0.7696,0.6612,0.589,0.5638,0.4589,0.4058,0.4001,0.4263,0.4389,0.4419,0.4628,0.4685,0.4597,0.445,0.0,0.0,0.561,0.0,0.0,0.6841,0.7156,0.0,0.0,0.0,0.7142,0.7564,0.6707,0.0,0.0,0.0,0.0,0.4031,0.4349,0.0,0.4127,0.0,0.0,0.0,0.0,0.0,0.0,0.0,0.0,0.0,0.0,0.0,0.0,0.0,0.0,0.0,0.0,0.0,0.0,0.0,0.0,0.0,0.0,0.0,0.0,0.7407,0.7407,0.7407,0.7407,0.737,0.7278,0.7146,0.7095,0.7095,0.7095,0.7095,0.7095,0.7095,0.7095,0.7095,0.7095,0.7095,0.7098,0.7234,0.7275,0.7282,0.737,0.7407,0.7421,0.7567,0.7665,0.7736,0.7885,0.7894,0.7901,0.7968,0.7988,0.7988,0.0,0.0,1.068,1.0355,0.9748,0.9401,0.9708,0.9479,0.9349,0.0,0.8596,0.7741,0.7339,0.8223,0.8646,0.8086,0.8792,0.9138,0.8851,0.8201,0.783,0.783,0.7182,0.7101,0.7696,0.633,0.5828,0.6278,0.4874,0.4136,0.4021,0.4142,0.4132,0.4028,0.4133,0.4197,0.4197,0.4231,0.0,0.5194,0.6044,0.6409,0.0,0.0,0.7614,0.766,0.923,0.8863,0.7757,0.8597,0.7561,0.0,0.0,0.0,0.0,0.0,0.4813,0.0,0.4499,0.5199,0.0,0.0,0.0,0.0,0.5914,0.5456,0.0,0.0,0.0,0.0,0.0,0.0,0.0,0.0,0.0,0.0,0.0,0.0,0.0,0.0,0.0,0.0,0.7071,0.7088,0.7095,0.7095,0.7095,0.7095,0.7095,0.7095,0.7095,0.7095,0.7095,0.7095,0.7095,0.7095,0.7095,0.7095,0.7095,0.7095,0.7095,0.7095,0.7095,0.7095,0.7095,0.7095,0.7105,0.7288,0.7438,0.759,0.7733,0.7797,0.7828,0.7914,0.7975,0.7988,0.0,1.0889,1.068,1.0355,1.0179,1.0079,1.0036,0.9786,0.9479,0.917,0.8334,0.7952,0.8486,0.8952,0.9146,0.9032,0.9392,0.9472,0.9144,0.877,0.8593,0.8593,0.8454,0.8156,0.7696,0.6826,0.6105,0.5509,0.4524,0.4089,0.415,0.4082,0.4089,0.4153,0.418,0.4197,0.421,0.0,0.0,0.5375,0.564,0.0,0.6947,0.7149,0.7489,0.8045,0.936,0.8933,0.7736,0.7411,0.7617,0.7719,0.0,0.0,0.0,0.4867,0.0,0.6172,0.586,0.0,0.0,0.0,0.0,0.0,0.5269,0.5029,0.0,0.0,0.0,0.0,0.0,0.0,0.0,0.0,0.0,0.0,0.0,0.0,0.0,0.0,0.0,0.0,0.6927,0.7031,0.7095,0.7095,0.7095,0.7095,0.7095,0.7095,0.7095,0.7095,0.7095,0.7095,0.7095,0.7095,0.7095,0.7095,0.7095,0.7095,0.7095,0.7095,0.7095,0.7095,0.7095,0.7095,0.7098,0.7129,0.7278,0.7431,0.7584,0.7709,0.7814,0.7845,0.7884,0.7971,1.0864,1.0542,1.0376,1.0653,1.03,1.0183,1.0667,1.0401,1.0052,0.9754,0.8678,0.8036,0.8318,0.8913,0.909,0.8545,0.9358,0.9713,0.9244,0.8944,0.8804,0.8804,0.8804,0.8619,0.8262,0.7155,0.6372,0.5947,0.4721,0.4109,0.4109,0.4109,0.4109,0.4112,0.4164,0.426,0.4362,0.0,0.4728,0.5199,0.5874,0.0,0.7129,0.7425,0.7729,0.8276,1.0179,1.0799,1.051,0.9103,0.8607,0.0,0.0,0.7047,0.6694,0.0,0.7313,0.7866,0.7058,0.0,0.0,0.734,0.0,0.0,0.0,0.0,0.5579,0.0,0.0,0.0,0.0,0.0,0.0,0.0,0.0,0.0,0.0,0.0,0.0,0.0,0.0,0.0,0.6807,0.6878,0.6919,0.6919,0.695,0.6991,0.6991,0.7058,0.7095,0.7095,0.7095,0.7095,0.7095,0.7095,0.7095,0.7095,0.7095,0.7095,0.7095,0.7095,0.7095,0.7095,0.7095,0.7095,0.7095,0.7095,0.7142,0.7272,0.7424,0.7529,0.76,0.7678,0.7753,0.7807,1.0415,0.9987,0.9851,1.0603,1.0186,1.012,1.1142,1.0995,1.0707,1.0631,0.9275,0.8371,0.8497,0.9331,0.953,0.8652,0.9726,1.0197,0.9664,0.9204,0.8978,0.8978,0.8871,0.8752,0.8698,0.7451,0.6664,0.6394,0.505,0.4257,0.4041,0.4136,0.4112,0.4001,0.4183,0.4372,0.0,0.0,0.0,0.5301,0.0,0.6972,0.6957,0.7611,0.7864,0.821,1.064,1.2651,1.3746,1.1308,0.989,0.9114,0.9148,0.856,0.0,0.0,0.0,0.0,0.0,0.0,0.0,0.0,0.0,0.7409,0.0,0.0,0.0,0.6069,0.0,0.0,0.0,0.0,0.0,0.0,0.0,0.0,0.0,0.0,0.0,0.0,0.0,0.0,0.0,0.6597,0.6637,0.6698,0.6763,0.6824,0.6839,0.6977,0.7055,0.7055,0.7082,0.7095,0.7095,0.7095,0.7095,0.7095,0.7095,0.7095,0.7095,0.7095,0.7095,0.7095,0.7095,0.7095,0.7095,0.7095,0.7095,0.7109,0.7278,0.7346,0.7433,0.7509,0.7577,0.7597,0.9035,0.8962,0.9018,0.9355,0.9769,1.0287,1.0942,1.1209,1.132,1.138,0.9899,0.9395,1.091,1.1614,1.1924,1.178,1.1746,1.153,1.1162,1.0174,0.9586,0.9586,0.9085,0.863,0.8287,0.7814,0.6934,0.5624,0.5195,0.4704,0.4167,0.4075,0.4011,0.4008,0.4341,0.0,0.0,0.0,0.5281,0.0,0.7695,0.7368,0.0,0.7115,0.7448,0.7727,0.9534,1.2506,1.5068,0.0,1.0878,1.0786,0.0,0.8863,0.84,0.0,0.0,0.0,0.0,0.0,0.0,0.0,0.8744,0.0,0.0,0.0,0.6948,0.6588,0.0,0.0,0.0,0.0,0.0,0.0,0.0,0.0,0.0,0.0,0.0,0.0,0.0,0.0,0.0,0.623,0.646,0.6681,0.6474,0.6491,0.6712,0.6871,0.691,0.691,0.7031,0.7095,0.7095,0.7095,0.7095,0.7095,0.7095,0.7095,0.7095,0.7095,0.7095,0.7095,0.7095,0.7095,0.7095,0.7095,0.7095,0.7098,0.7115,0.7251,0.7419,0.7436,0.7485,0.758,0.8804,0.8804,0.8951,0.9412,0.9699,1.0174,1.1102,1.1544,1.2086,1.289,1.1538,1.1061,1.2444,0.0,0.0,0.0,0.0,1.2371,0.0,0.0,1.0367,1.0231,0.9466,0.9054,0.9087,0.8181,0.7182,0.6145,0.5518,0.487,0.4194,0.413,0.4217,0.4423,0.4718,0.0,0.6189,0.0,0.6643,0.0,0.0,0.0,0.0,0.9411,1.049,1.1179,1.1119,1.3108,1.5503,0.0,1.2546,0.0,0.0,0.0,0.0,0.0,0.0,0.0,0.0,0.0,0.0,0.0,0.0,0.0,0.8614,0.0,0.7939,0.0,0.0,0.0,0.0,0.0,0.0,0.0,0.0,0.0,0.0,0.0,0.0,0.0,0.0,0.0,0.0,0.0,0.0,0.0,0.6146,0.622,0.6474,0.6668,0.6837,0.6883,0.6943,0.7014,0.7095,0.7095,0.7095,0.7095,0.7095,0.7095,0.7095,0.7095,0.7095,0.7095,0.7095,0.7095,0.7095,0.7095,0.7095,0.7095,0.7095,0.7136,0.7238,0.7238,0.7278,0.7322,0.8884,0.8864,0.8965,0.9472,0.9699,1.0254,1.1583,1.1813,1.2451,1.414,1.303,0.0,1.4028,1.3908,0.0,0.0,1.3756,1.35,0.0,0.0,1.1323,1.1196,1.016,0.9699,0.995,0.8827,0.7701,0.6588,0.6127,0.5431,0.4505,0.4711,0.4812,0.4893,0.5234,0.6163,0.7431,0.0,0.0,0.9181,1.0099,1.0575,1.0785,1.1488,1.2644,1.3776,1.2813,1.3884,1.5658,1.491,1.3829,0.0,1.345,0.0,0.0,0.0,0.0,0.0,1.1951,0.0,0.0,0.0,0.0,0.0,0.0,0.0,0.0,0.0,0.0,0.0,0.0,0.0,0.0,0.0,0.0,0.0,0.0,0.0,0.0,0.0,0.0,0.0,0.0,0.0,0.0,0.0,0.0,0.5844,0.6156,0.638,0.6603,0.6797,0.6842,0.6933,0.7038,0.7078,0.7095,0.7095,0.7095,0.7095,0.7095,0.7095,0.7095,0.7095,0.7095,0.7095,0.7095,0.7095,0.7095,0.7095,0.7095,0.7095,0.7095,0.7095,0.7095,0.7095,0.9144,0.8971,0.0,0.0,0.0,1.0688,1.2476,1.1895,1.2131,1.4654,0.0,0.0,0.0,0.0,0.0,0.0,0.0,1.5197,1.4928,0.0,1.2385,1.2741,1.1323,1.0553,0.0,0.0,0.0,0.6588,0.7149,0.6688,0.528,0.5995,0.5953,0.53,0.5905,0.6782,0.7783,0.7911,0.9282,1.1493,1.2475,1.3964,1.527,0.0,1.24,1.3872,1.3872,0.0,0.0,1.515,1.4289,0.0,0.0,0.0,0.0,0.0,0.0,0.0,0.0,0.0,0.0,1.1042,0.0,0.0,0.0,0.0,0.9884,0.0,0.0,0.0,0.0,0.0,0.0,0.485,0.0,0.0,0.0,0.0,0.0,0.0,0.0,0.0,0.0,0.0,0.0,0.0,0.0,0.0,0.5786,0.5966,0.6186,0.6518,0.6773,0.6886,0.6893,0.7028,0.7095,0.7095,0.7095,0.7095,0.7095,0.7095,0.7095,0.7095,0.7095,0.7095,0.7095,0.7095,0.7095,0.7095,0.7095,0.7095,0.7095,0.7095,0.7095,0.7095,0.0,0.0,0.0,0.0,0.0,1.0519,1.2482,1.3125,1.3916,0.0,0.0,0.0,0.0,1.6673,1.668,0.0,0.0,1.5972,1.5297,1.4553,0.0,0.0,0.0,1.1717,0.0,0.0,0.0,0.0,0.0,0.7349,0.6153,0.5904,0.5734,0.5673,0.6453,0.7576,0.0,0.0,0.0,0.0,0.0,1.4561,1.5602,0.0,1.3891,1.5045,1.4214,1.4704,0.0,1.5605,1.5042,1.4482,1.4696,1.4071,1.3326,1.3705,1.3587,0.0,0.0,0.0,1.312,1.1812,0.0,0.0,0.0,0.0,0.0,0.0,0.0,0.0,0.0,0.0,0.0,0.4944,0.0,0.0,0.0,0.0,0.0,0.0,0.0,0.0,0.0,0.0,0.0,0.0,0.5006,0.0,0.0,0.584,0.6122,0.6364,0.6522,0.6722,0.6883,0.6933,0.7004,0.7095,0.7095,0.7095,0.7095,0.7095,0.7095,0.7095,0.7095,0.7095,0.7095,0.7095,0.7095,0.7095,0.7095,0.7095,0.7095,0.7095,0.7095,0.7095,1.0023,0.0,0.0,0.0,0.0,1.1169,1.2812,1.4068,0.0,0.0,1.64,0.0,1.7395,0.0,1.7261,0.0,1.7194,1.6687,1.5912,1.5491,0.0,1.4576,1.3614,0.0,0.0,0.0,0.0,0.0,0.0,0.8242,0.6993,0.6767,0.6594,0.6525,0.0,0.8605,1.0047,0.0,1.2841,0.0,0.0,1.5157,0.0,0.0,1.5099,1.5683,0.0,1.5092,1.5784,1.5784,1.5578,1.5284,1.5371,1.4877,1.4219,1.4242,1.3975,1.3634,1.338,1.346,0.0,1.2298,1.1877,0.0,1.0291,0.0,0.0,0.0,0.0,0.0,0.0,0.0,0.0,0.0,0.0,0.0,0.0,0.0,0.0,0.0,0.0,0.0,0.0,0.0,0.4555,0.4634,0.0,0.0,0.0,0.0,0.5966,0.6173,0.6409,0.6566,0.6763,0.682,0.6876,0.7021,0.7021,0.7048,0.7095,0.7095,0.7095,0.7095,0.7095,0.7095,0.7095,0.7095,0.7095,0.7095,0.7095,0.7095,0.7095,0.7095,0.7095,0.7095,0.0,0.0,0.0,0.0,1.1396,0.0,0.0,0.0,1.5718,0.0,1.7052,1.746,1.7976,1.8002,1.8015,1.8015,1.7789,1.7361,1.6787,1.6213,0.0,0.0,1.4897,1.4272,1.37,0.0,0.0,0.0,0.0,0.0,0.0,0.0,0.0,0.0,0.8623,0.0,1.0876,1.2095,1.3711,1.5424,1.5712,1.5784,1.5784,1.5784,1.5784,1.5784,1.5784,1.5784,1.5784,1.5784,1.5784,1.5785,1.5504,1.5404,1.5284,1.473,1.4543,1.4352,1.3793,1.3633,1.3413,1.2585,1.2345,0.0,0.0,0.0,1.1779,0.0,0.0,0.0,0.0,0.0,0.0,0.0,0.0,0.0,0.0,0.0,0.0,0.0,0.0,0.0,0.0,0.0,0.4327,0.4512,0.4515,0.0,0.0,0.0,0.5722,0.5973,0.6305,0.6504,0.6511,0.6617,0.677,0.6886,0.6886,0.696,0.7095,0.7095,0.7095,0.7095,0.7095,0.7095,0.7095,0.7095,0.7095,0.7095,0.7095,0.7095,0.7095,0.7095,0.7095,0.7095,1.0922,1.1343,1.1884,0.0,1.2351,1.2752,0.0,0.0,0.0,0.0,1.7495,1.7956,1.833,1.837,1.8377,1.8377,1.8103,0.0,0.0,0.0,0.0,1.638,1.5805,1.5317,1.4957,1.3541,0.0,1.1595,0.0,0.0,0.9155,0.0,0.0,0.0,0.0,0.0,1.0624,1.2337,1.3976,1.5424,1.5712,1.5784,0.0,0.0,1.5784,1.5784,1.5784,1.5784,1.5784,1.5784,1.5784,1.5764,1.5745,1.5571,1.5364,1.5217,1.4863,1.4489,1.4292,1.4135,1.3868,1.3373,1.2959,1.2536,0.0,0.0,0.0,0.0,0.0,0.0,0.0,0.0,0.0,0.0,0.0,0.0,0.0,0.0,0.0,0.0,0.0,0.0,0.0,0.0,0.485,0.4798,0.4718,0.0,0.0,0.0,0.0,0.5854,0.6194,0.6405,0.6511,0.6552,0.6664,0.6886,0.6886,0.696,0.7095,0.7095,0.7095,0.7095,0.7095,0.7095,0.7095,0.7095,0.7095,0.7095,0.7095,0.7095,0.7095,0.7095,0.7095,0.7095,1.1826,0.0,0.0,1.3895,0.0,0.0,1.4899,1.5591,0.0,1.7273,1.7862,0.0,1.847,1.8724,1.8824,1.8691,1.8524,0.0,1.7615,0.0,0.0,1.6734,1.6386,1.6079,1.5785,1.4465,0.0,1.2529,0.0,0.0,0.9451,0.0,0.0,0.0,0.0,0.992,0.0,1.2896,1.4409,1.5424,1.5712,0.0,0.0,1.5784,1.5784,1.5784,1.5784,1.5784,1.5784,1.5784,1.5784,1.5784,1.5784,1.5718,1.5565,1.5431,1.5164,1.485,1.4589,1.4402,1.4202,1.3873,1.3587,1.3259,1.2799,1.2826,1.2891,0.0,1.2645,1.252,0.0,0.0,0.0,0.0,0.0,0.0,0.0,0.0,0.0,0.0,0.0,0.0,0.0,0.0,0.0,0.0,0.0,0.0,0.0,0.0,0.0,0.5705,0.6003,0.623,0.6419,0.6419,0.6538,0.6729,0.6729,0.6841,0.7004,0.7004,0.7038,0.7095,0.7095,0.7095,0.7095,0.7095,0.7095,0.7095,0.7095,0.7095,0.7095,0.7095,0.7095,0.7095,0.0,0.0,0.0,0.0,0.0,0.0,0.0,1.6493,0.0,1.7622,0.0,1.8604,1.8604,1.9115,1.9265,1.9005,0.0,1.8591,1.7809,1.7889,1.7642,1.6914,1.6807,1.6627,1.6382,1.5477,0.0,0.0,0.0,0.0,0.0,0.0,0.0,0.0,0.0,0.0,0.0,1.3581,1.4856,1.5424,1.5712,1.5784,1.5784,1.5784,1.5784,1.5784,1.5784,1.5784,1.5784,1.5784,1.5784,1.5784,1.5784,1.5784,1.5731,1.5524,1.5424,1.5284,1.477,1.4576,1.4456,1.4208,1.4115,1.3955,1.344,1.3327,1.3327,1.3327,1.2906,1.2739,0.0,0.0,0.0,0.0,0.0,0.0,0.0,0.0,0.0,0.0,0.0,0.0,0.0,0.0,0.0,0.0,0.0,0.0,0.0,0.0,0.0,0.5586,0.5878,0.6105,0.6296,0.63,0.6371,0.6511,0.6511,0.663,0.6886,0.6886,0.6964,0.7095,0.7095,0.7095,0.7095,0.7095,0.7095,0.7095,0.7095,0.7095,0.7095,0.7095,0.7095,0.7095,0.0,0.0,0.0,0.0,0.0,1.6653,1.7194,1.7361,1.7649,1.825,1.8844,1.9212,1.9212,1.9363,1.9403,1.9292,1.9065,0.0,0.0,0.0,0.0,1.7762,1.7335,1.6985,1.664,1.5578,1.4476,0.0,0.0,0.0,0.9917,0.0,0.0,0.0,0.0,0.0,1.2569,1.3928,0.0,1.5424,1.5712,1.5784,1.5784,1.5784,1.5784,1.5784,1.5784,1.5784,1.5784,1.5784,1.5784,1.5784,1.5784,1.5784,1.5771,1.5718,1.5585,1.5378,1.5271,1.489,1.4509,1.4456,1.4262,1.4062,1.3955,1.3935,1.3935,1.3935,1.3848,1.3594,1.3052,0.0,0.0,0.0,0.0,0.0,0.0,0.0,0.0,0.0,0.0,0.0,0.0,0.0,0.0,0.0,0.0,0.0,0.0,0.0,0.0,0.0,0.5878,0.0,0.0,0.0,0.6371,0.6511,0.6511,0.663,0.6886,0.6886,0.6964,0.7095,0.7095,0.7095,0.7095,0.7095,0.7095,0.7095,0.7095,0.7095,0.7095,0.7095,0.7095,0.7095,0.0,0.0,0.0,0.0,0.0,0.0,0.0,1.8764,1.8844,1.8531,1.8738,1.8911,1.8911,1.9185,1.9424,1.9424,1.9239,1.9092,1.8931,1.8657,1.8308,1.8009,1.7615,0.0,1.6991,1.5932,1.491,1.3874,0.0,0.0,1.007,0.0,0.0,0.0,0.0,1.1483,0.0,0.0,0.0,1.5424,1.5712,1.5784,1.5784,1.5784,1.5784,1.5784,1.5784,1.5784,1.5784,1.5784,1.5784,1.5784,1.5784,1.5784,1.5784,1.5784,1.5732,1.5585,1.5438,1.5084,1.471,1.4556,1.4302,1.4088,1.4088,1.4088,1.4088,1.4088,1.4088,1.3814,1.2951,1.2067,0.0,0.0,0.0,0.0,0.0,0.0,0.0,0.0,0.0,0.0,0.0,0.0,0.0,0.0,0.0,0.0,0.0,0.0,0.0,0.0,0.0,0.0,0.0,0.0,0.6334,0.6402,0.6402,0.6519,0.681,0.681,0.6889,0.7095,0.7095,0.7095,0.7095,0.7095,0.7095,0.7095,0.7095,0.7095,0.7095,0.7095,0.7095,0.7095,0.0,1.678,0.0,0.0,1.8277,0.0,1.9357,1.986,1.99,1.8978,1.8804,1.8771,1.8771,1.9125,1.9424,1.9424,1.9424,1.9265,1.9032,1.8958,1.8635,1.8109,1.7842,1.7515,1.7206,1.6406,1.5444,0.0,0.0,0.0,0.0,0.0,0.0,0.0,0.0,0.0,0.0,0.0,1.495,1.5504,1.5684,1.5784,1.5784,1.5784,1.5784,1.5784,1.5784,1.5784,1.5784,1.5784,1.5784,1.5784,1.5784,1.5784,1.5784,1.5784,1.5784,1.5731,1.5551,1.5277,1.5028,1.4689,1.4396,1.4162,1.4102,1.4088,1.4088,1.4088,1.4035,1.3741,1.2938,1.2402,0.0,0.0,0.0,0.0,0.0,0.0,0.0,0.0,0.0,0.0,0.0,0.0,0.0,0.0,0.0,0.0,0.4239,0.4385,0.4754,0.0,0.0,0.5776,0.6197,0.0,0.63,0.63,0.63,0.6457,0.6702,0.6702,0.6861,0.7095,0.7095,0.7095,0.7095,0.7095,0.7095,0.7095,0.7095,0.7095,0.7095,0.7095,0.7095,0.7095,0.0,0.0,0.0,0.0,0.0,0.0,1.9417,1.986,2.0133,2.002,1.984,1.9679,1.9679,1.9492,1.9424,1.9424,1.9424,1.9417,1.9383,1.9072,1.8784,1.8464,1.8163,1.7736,1.7213,1.68,1.6052,0.0,0.0,1.2498,0.0,0.0,0.0,0.0,0.0,0.0,0.0,1.4707,1.5257,1.5744,1.5771,1.5784,1.5784,1.5784,1.5784,1.5784,1.5784,1.5784,1.5784,1.5784,1.5784,1.5784,1.5784,1.5784,1.5784,1.5784,1.5784,1.5771,1.5751,1.5578,1.5284,1.5042,1.4696,1.4409,1.4148,1.4088,1.4088,1.4088,1.3874,1.3453,1.2898,1.2737,1.2335,0.0,0.0,0.0,0.0,0.0,0.0,0.0,0.0,0.0,0.0,0.0,0.0,0.0,0.0,0.0,0.4272,0.4385,0.4702,0.5106,0.5437,0.5671,0.584,0.616,0.63,0.63,0.63,0.6457,0.6702,0.6702,0.6861,0.7095,0.7095,0.7095,0.7095,0.7095,0.7095,0.7095,0.7095,0.7095,0.7095,0.7095,0.7095,0.7095,0.0,0.0,0.0,0.0,0.0,0.0,0.0,2.0608,2.0762,2.0762,2.0347,1.9993,1.982,1.9693,1.9559,1.9379,1.9424,1.9424,1.9424,1.9259,1.9058,1.8764,1.847,1.8116,1.7695,1.7215,1.648,0.0,0.0,0.0,0.0,0.0,0.0,0.0,0.0,1.3834,1.468,1.505,1.5458,1.5784,1.5784,1.5784,1.5784,1.5784,1.5784,1.5784,1.5784,1.5784,1.5784,1.5784,1.5784,1.5784,1.5784,1.5784,1.5784,1.5784,1.5784,1.5784,1.5784,1.5618,1.5331,1.5082,1.4743,1.4442,1.4155,1.4088,1.4088,1.4088,1.3848,1.348,1.31,1.2726,1.2325,1.1857,0.0,0.0,0.0,0.0,0.0,0.0,0.0,0.0,0.0,0.0,0.0,0.0,0.0,0.0,0.0,0.4274,0.0,0.4958,0.0,0.5657,0.58,0.6146,0.6606,0.7215,0.7215,0.7297,0.7487,0.755,0.7405,0.7095,0.7095,0.7095,0.7095,0.7095,0.7095,0.7095,0.7095,0.7095,0.7095,0.7095,0.7095,0.7095,1.9586,0.0,1.9501,0.0,2.0321,2.0394,2.1015,2.1109,2.1109,2.1109,2.0748,2.0381,2.0087,1.998,1.9813,1.9519,1.9492,1.9459,1.943,1.9424,1.9232,1.8938,1.8731,0.0,1.8002,1.7542,1.6927,1.6219,1.5545,0.0,0.0,0.0,0.0,0.0,1.4122,1.4666,1.5156,1.5398,1.5645,1.5784,1.5784,1.5784,1.5784,1.5784,1.5784,1.5784,1.5784,1.5784,1.5784,1.5784,1.5784,1.5784,1.5784,1.5784,1.5784,1.5784,1.5784,1.5784,1.5784,1.5678,1.5451,1.5164,1.487,1.4576,1.4282,1.4148,1.4088,1.4088,1.3781,1.3413,1.3247,1.2712,1.2245,1.2071,0.0,0.0,0.0,0.0,0.0,0.0,0.0,0.8911,0.8818,0.0,0.0,0.0,0.0,0.0,0.0,0.0,0.0,0.0,0.0,0.0,0.58,0.6441,0.7099,0.7821,0.8084,0.8297,0.8444,0.8298,0.7828,0.7095,0.7095,0.7095,0.7095,0.7095,0.7095,0.7095,0.7095,0.7095,0.7095,0.7095,0.7095,0.7095,2.0107,2.0221,2.0408,2.0995,2.1096,2.1096,2.1109,2.1109,2.1109,2.1109,2.1102,2.0989,2.0702,2.0401,2.0107,1.982,1.98,1.9673,1.9444,1.9424,1.9232,0.0,0.0,1.8588,1.8002,1.7736,1.7481,1.7186,0.0,0.0,1.4961,0.0,1.39,1.4516,1.4823,1.5162,1.5411,1.5698,1.5778,1.5784,1.5784,1.5784,1.5784,1.5784,1.5784,1.5784,1.5784,1.5784,1.5784,1.5784,1.5784,1.5784,1.5784,1.5784,1.5784,1.5784,1.5784,1.5784,1.5784,1.5778,1.5752,1.5464,1.517,1.4921,1.4583,1.4295,1.4088,1.4088,1.3621,1.3213,1.3213,1.2712,1.2111,1.1495,0.0,0.0,0.0,0.0,0.0,0.0,0.8945,0.8523,0.8778,0.0,0.0,0.0,0.0,0.0,0.0,0.0,0.0,0.5086,0.543,0.0,0.58,0.711,0.7783,0.7821,0.8803,0.9369,0.9468,0.8724,0.7943,0.7095,0.7095,0.7095,0.7095,0.7095,0.7095,0.7095,0.7095,0.7095,0.7095,0.7095,0.7095,0.7095,2.0795,2.0828,2.0889,2.1076,2.1109,2.1109,2.1109,2.1109,2.1109,2.1109,2.1109,2.1076,2.0982,2.0708,2.0414,0.0,1.9913,1.976,0.0,1.9472,1.9325,1.9232,1.9032,1.8838,1.8595,1.8357,1.7956,1.7442,0.0,0.0,0.0,1.5658,1.5638,1.6012,1.6112,1.6199,1.6293,1.6386,1.6426,1.6426,1.6426,1.6306,1.6132,1.6132,1.6005,1.5784,1.5784,1.5784,1.5784,1.5784,1.5784,1.5784,1.5784,1.5784,1.5784,1.5784,1.5784,1.5784,1.5784,1.5784,1.5758,1.5471,1.5177,1.4928,1.4589,1.4295,1.4088,1.4088,1.3621,1.3213,1.3213,1.2712,1.2238,1.2051,1.2017,0.0,0.0,0.0,0.0,0.0,0.9559,0.9327,0.0,0.9024,0.0,0.0,0.0,0.0,0.0,0.0,0.0,0.0,0.5538,0.0,0.58,0.7147,0.8161,0.8841,0.9852,1.0516,1.0811,0.928,0.8498,0.8277,0.7445,0.7095,0.7095,0.7095,0.7095,0.7095,0.7095,0.7095,0.7095,0.7095,0.7095,0.7095,2.1109,2.1109,2.1109,2.1109,2.1109,2.1109,2.1109,2.1109,2.1109,2.1109,2.1109,2.1109,2.1109,2.0949,0.0,2.0421,2.0234,2.0034,1.9813,1.9633,1.9486,1.943,1.9192,1.9038,1.8925,1.8744,0.0,1.7923,1.7695,1.7341,1.6867,1.6573,1.6533,1.6707,1.6707,1.6707,1.6707,1.6707,1.6707,1.6707,1.6707,1.66,1.6433,1.6433,1.6253,1.5999,1.5999,1.5925,1.5784,1.5784,1.5784,1.5784,1.5784,1.5784,1.5784,1.5784,1.5784,1.5784,1.5784,1.5784,1.5738,1.5605,1.5344,1.5017,1.4609,1.4295,1.4088,1.4088,1.3707,1.33,1.3233,1.2806,1.2432,1.2318,1.2058,1.1764,1.147,0.0,0.0,0.0,0.0,0.0,0.0,0.9713,0.9178,0.0,0.0,0.0,0.0,0.0,0.0,0.5637,0.6252,0.6559,0.6555,0.7735,0.8879,0.9895,1.1002,1.1599,1.1589,1.0424,0.9516,0.8846,0.8105,0.7536,0.7095,0.7095,0.7095,0.7095,0.7095,0.7095,0.7095,0.7095,0.7095,0.7095,2.1109,2.1109,2.1109,0.0,2.1109,2.1109,2.1109,2.1109,2.1109,2.1109,2.1109,2.1109,2.1109,2.1109,2.1002,2.0728,0.0,0.0,1.9893,1.982,1.9679,1.947,1.9437,1.9239,1.8958,1.8951,1.8867,1.8684,1.7983,1.76,1.7407,1.6978,1.6787,1.6767,1.6767,1.6767,1.6767,1.6767,1.6767,1.6767,1.6767,1.6754,1.6734,1.6734,1.6553,1.6348,1.6348,1.6112,1.5811,1.5811,1.5798,1.5784,1.5784,1.5784,1.5784,1.5784,1.5784,1.5784,1.5784,1.5784,1.5784,1.5784,1.5611,1.5244,1.4656,1.4309,1.4115,1.4088,1.3848,1.3513,1.3267,1.2998,1.2683,1.2325,1.2024,1.1737,1.1402,0.0,0.0,0.0,0.0,0.0,0.9833,1.0311,1.0147,0.0,0.0,0.0,0.0,0.0,0.6951,0.6945,0.7389,0.7676,0.7778,0.8879,0.99,1.0968,1.2228,1.2569,1.1993,1.1881,1.0794,0.9021,0.8846,0.8149,0.7095,0.7095,0.7095,0.7095,0.7095,0.7095,0.7095,0.7095,0.7095,0.7095,0.0,0.0,2.1109,2.1109,2.1109,2.1109,2.1109,2.1109,2.1109,2.1109,2.1109,2.1109,2.1109,2.1109,2.1082,2.1009,2.0802,2.0621,2.0481,2.0047,1.9773,1.97,1.9486,1.9332,1.9265,1.9265,1.967,2.0489,1.8982,1.8752,1.9529,1.8273,1.7602,1.7375,1.7375,1.7375,1.7375,1.7375,1.7375,1.7375,1.7375,1.7241,1.7099,1.7099,1.686,1.6607,1.6607,1.6413,1.6166,1.6166,1.6019,1.5784,1.5784,1.5784,1.5784,1.5784,1.5784,1.5784,1.5784,1.5784,1.5784,1.5784,1.5611,1.5244,1.4656,1.4469,1.4355,1.4135,1.3848,1.3513,1.3267,1.2998,1.2616,1.2094,1.1724,1.143,1.1136,1.0982,0.0,0.0,1.0982,1.1056,1.0982,1.0935,1.0555,0.0,0.0,0.0,0.0,0.9506,0.8809,0.7245,0.8281,0.8529,0.7821,0.955,1.1077,1.2335,1.3055,1.3338,1.3143,1.1604,1.0646,1.0091,0.8317,0.736,0.7095,0.7095,0.7095,0.7095,0.7095,0.7095,0.7095,0.7095,0.7095,0.7095,2.1109,2.1109,2.1109,2.1109,2.1109,2.1109,2.1109,2.1109,2.1109,2.1109,2.1109,2.1109,2.1109,2.1109,2.1109,2.1109,2.0962,2.0815,2.0681,2.0374,2.014,2.0,1.972,1.9566,1.9566,1.9432,1.9938,2.1085,2.0161,2.0292,2.1457,1.9923,1.9073,1.8823,1.8102,1.7716,1.7582,1.7582,1.7582,1.7582,1.7582,1.7488,1.74,1.74,1.7168,1.6907,1.6907,1.672,1.6473,1.6473,1.6273,1.6032,1.6032,1.5939,1.5784,1.5784,1.5784,1.5784,1.5784,1.5784,1.5784,1.5784,1.5611,1.5311,1.4997,1.4716,1.4476,1.4315,1.4048,1.3754,1.3427,1.316,1.2804,1.2164,1.1817,1.1476,1.1049,1.1109,0.0,1.1009,1.1369,1.1577,1.1402,1.1523,1.1304,1.0623,1.07,0.0,1.0795,1.1252,1.0406,0.8054,0.9392,0.9678,0.8676,1.082,1.2067,1.2382,1.2691,1.2609,1.2182,1.1112,1.0308,0.9753,0.8492,0.7621,0.7095,0.7095,0.7095,0.7095,0.7095,0.7095,0.7095,0.7095,0.7095,0.7095,2.1109,2.1109,2.1109,2.1109,2.1109,2.1109,2.1109,2.1109,2.1109,2.1109,2.1109,2.1109,2.1109,2.1109,2.1109,2.1109,2.1109,2.1002,2.0762,2.0702,2.0568,2.0307,2.002,1.9846,1.98,1.9512,1.9958,2.116,2.0944,2.1547,2.293,2.1217,2.0401,2.0302,1.8739,1.7969,1.7716,1.7669,1.7655,1.7649,1.7602,1.7582,1.7582,1.7582,1.7481,1.7266,1.7266,1.7072,1.6774,1.6774,1.658,1.6333,1.6286,1.6099,1.5885,1.5798,1.5784,1.5784,1.5784,1.5784,1.5784,1.5784,1.5645,1.5451,1.5404,1.501,1.4623,1.4536,1.4322,1.4048,1.3666,1.3481,1.3148,1.2382,1.2276,1.2005,1.1109,0.0,1.1533,1.1189,1.1603,1.1837,1.1549,1.1971,1.2044,1.1555,1.1977,1.2171,1.2047,1.2516,1.1721,0.9326,1.0548,1.0857,0.999,1.2159,1.2817,1.1905,1.194,1.148,1.0611,1.0438,0.9792,0.889,0.8715,0.8149,0.736,0.736,0.7489,0.7617,0.7445,0.736,0.7356,0.7183,0.7228,0.736,2.1109,2.1109,2.1109,2.1109,2.1109,2.1109,2.1109,2.1109,2.1109,2.1109,2.1109,2.1109,2.1109,2.1109,2.1109,2.1109,2.1109,2.1089,2.1042,2.0815,2.0655,2.0608,2.0321,2.0054,1.9806,1.9512,2.0127,2.1503,2.0294,2.0918,2.3257,2.0492,1.9723,2.0586,1.9112,1.8397,1.8337,1.8083,1.7922,1.7896,1.7689,1.7582,1.7582,1.7582,1.7555,1.7515,1.7515,1.738,1.7132,1.7132,1.6938,1.66,1.6346,1.6239,1.6152,1.5905,1.5784,1.5784,1.5784,1.5784,1.5784,1.5784,1.5751,1.5698,1.5451,1.5324,1.5117,1.4623,1.4482,1.4289,1.37,1.402,1.3861,1.2215,1.3274,1.3491,1.1301,0.0,1.2683,1.1877,1.2031,1.2218,1.2171,1.2024,1.2033,1.2158,1.2024,1.2174,1.2623,1.273,1.2305,1.127,1.1391,1.1386,1.1227,1.2762,1.3003,1.1905,1.2121,1.1642,1.0567,0.9623,0.9061,0.8846,0.7841,0.7841,0.8627,0.8627,0.9187,0.9961,0.9017,0.8627,0.8496,0.7492,0.7753,0.8627,2.1109,2.1109,2.1109,2.1109,2.1109,2.1109,2.1109,2.1109,2.1109,2.1109,2.1109,2.1109,2.1109,2.1109,2.1109,2.1109,2.1109,2.1109,2.1109,2.0982,2.0909,2.0909,2.0628,2.0261,1.9813,1.9673,2.025,2.1586,2.0923,2.2076,2.4789,2.2585,2.2174,2.329,2.1799,2.0574,1.9647,1.9498,1.902,1.8257,1.7956,1.7836,1.7816,1.7649,1.7582,1.7582,1.7582,1.7495,1.7434,1.7434,1.7239,1.6971,1.6837,1.6576,1.6246,1.6112,1.5952,1.5784,1.5784,1.5784,1.5784,1.5784,1.5784,1.5792,1.5658,1.5504,1.5317,1.505,1.4736,1.4602,1.4895,1.4966,1.4816,1.4386,1.4852,0.0,1.3318,1.3979,1.4212,1.3007,1.3342,1.3414,1.2831,1.2672,1.2645,1.2779,1.2665,1.2712,1.2979,1.3146,1.2795,1.1857,1.1822,1.218,1.2867,1.3553,1.2979,1.1181,1.1332,1.0433,0.8707,0.8842,0.854,0.7969,0.8663,0.8969,0.8934,0.9579,1.0139,1.0481,0.9366,0.889,0.8846,0.8277,0.8408,0.8978,2.1109,2.1109,2.1109,2.1109,2.1109,2.1109,2.1109,2.1109,2.1109,2.1109,2.1109,2.1109,2.1109,2.1109,2.1109,2.1109,2.1109,2.1109,2.1109,2.1109,2.1109,2.1109,2.0828,2.0468,2.0013,1.9867,2.0254,2.1197,2.1124,2.2589,2.5544,2.398,2.417,2.5639,2.4173,2.2707,2.1363,2.0967,2.0139,1.9043,1.8373,1.8095,1.8062,1.7809,1.7689,1.7682,1.7609,1.7582,1.7582,1.7582,1.7435,1.7293,1.7226,1.6891,1.6509,1.6442,1.6166,1.5919,1.5798,1.5784,1.5784,1.5784,1.5784,1.5784,1.5784,1.5658,1.5478,1.5411,1.5037,1.496,1.5684,1.5771,1.5809,1.611,0.0,1.6254,1.5306,1.5815,1.579,1.4462,1.46,1.4499,1.3666,1.3365,1.3213,1.3213,1.3213,1.324,1.3307,1.348,1.3251,1.2462,1.2254,1.2655,1.3688,1.3955,1.3082,1.0994,1.074,0.9657,0.7921,0.8584,0.854,0.8009,0.9831,1.0265,0.9753,1.0611,1.1171,1.1305,1.0139,0.971,0.9666,0.941,0.9449,0.9836,2.1109,2.1109,2.1109,2.1109,2.1109,2.1109,2.1109,2.1109,2.1109,2.1109,2.1109,2.1109,2.1109,2.1109,2.1109,2.1109,2.1109,2.1109,2.1109,2.1109,2.1109,2.1109,2.0828,2.0655,2.0615,2.008,1.9846,1.9937,1.9668,2.1045,2.3933,2.242,2.3295,2.6,2.4446,2.3717,2.3445,2.1786,2.1,2.0755,1.9105,1.8457,1.8424,1.8123,1.7955,1.7922,1.7689,1.7582,1.7582,1.7582,1.7569,1.7554,1.7286,1.7172,1.7085,1.6754,1.6466,1.6179,1.5905,1.5784,1.5784,1.5784,1.5784,1.5784,1.5784,1.5764,1.5718,1.5451,1.5364,1.5296,1.5111,1.6122,1.6613,1.5545,0.0,0.0,1.6214,1.6965,1.7369,1.6334,1.5365,1.4763,1.4686,1.3777,1.3213,1.3213,1.3213,1.3327,1.3553,1.3593,1.3685,1.3915,1.2869,1.2353,1.2413,1.3555,1.347,1.2151,1.108,1.0524,1.0308,0.9323,0.9449,1.0351,1.0524,1.1166,1.2066,1.2157,1.2814,1.3737,1.251,1.2066,1.1938,1.0864,1.1123,1.2066,2.1109,2.1109,2.1109,2.1109,2.1109,2.1109,2.1109,2.1109,2.1109,2.1109,2.1109,2.1109,2.1109,2.1109,2.1109,2.1109,2.1109,2.1109,2.1109,2.1109,2.1109,2.1109,2.1002,2.0862,2.0681,2.0461,2.0254,2.0067,1.978,2.1169,2.4104,2.3312,2.4544,2.7447,2.6834,2.6109,2.5142,2.3443,2.2784,2.2641,2.0826,2.0161,2.0125,1.9808,1.911,1.8283,1.7976,1.8383,1.8971,1.7952,1.8146,1.8686,1.7755,1.7347,1.7105,1.658,1.6359,1.6206,1.5912,1.5784,1.5784,1.5784,1.5784,1.5784,1.5784,1.5784,1.5751,1.5691,1.5524,1.5581,1.6126,1.7139,1.7887,1.7843,0.0,1.9724,1.8564,1.8835,1.8751,1.7699,1.6859,1.6086,1.5403,1.4384,1.3754,1.3754,1.3754,1.3801,1.3915,1.3915,1.3968,1.4082,1.3646,1.3421,1.3421,1.3864,1.3512,1.2279,1.1852,1.1295,1.0611,1.0139,1.0183,1.0654,1.1338,1.1895,1.237,1.3118,1.3688,1.3997,1.2766,1.2285,1.2242,1.1809,1.1938,1.2413,2.1109,2.1109,2.1109,2.1109,2.1109,2.1109,2.1109,2.1109,2.1109,2.1109,2.1109,2.1109,2.1109,2.1109,2.1109,2.1109,2.1109,2.1109,2.1109,2.1109,2.1109,2.1109,2.1109,2.1015,2.0815,2.0722,2.0575,2.0374,2.008,2.1444,2.431,2.4062,2.5503,2.8291,2.8291,2.7736,2.6717,2.516,2.4544,2.4352,2.2664,2.1967,2.1984,2.1643,2.0935,1.9988,1.9664,1.9864,2.0119,1.8858,1.8759,1.8895,1.7925,1.7442,1.7239,1.6744,1.6529,1.6346,1.6052,1.5899,1.5784,1.5784,1.5784,1.5784,1.5784,1.5784,1.5784,1.5784,1.5671,1.5889,1.7013,1.7943,1.8767,1.9487,2.0266,2.0625,2.0176,2.0117,1.9726,1.8668,1.7786,1.6887,1.582,1.4734,1.4088,1.4088,1.4088,1.4088,1.4088,1.4088,1.4088,1.4088,1.4088,1.4088,1.4088,1.4088,1.3688,1.2857,1.2498,1.2072,1.1649,1.0956,1.0783,1.1166,1.1938,1.2285,1.237,1.3603,1.4088,1.3997,1.3203,1.2851,1.2851,1.2851,1.2851,1.2942,2.1109,2.1109,2.1109,2.1109,2.1109,2.1109,2.1109,2.1109,2.1109,2.1109,2.1109,2.1109,2.1109,2.1109,2.1109,2.1109,2.1109,2.1109,2.1109,2.1109,2.1109,2.1109,2.1109,2.1109,2.1109,2.0828,2.0681,2.0681,2.0381,2.1601,2.4326,2.4318,2.5766,2.8301,2.8301,2.8301,2.8174,2.6717,2.61,2.5991,2.4433,2.3822,2.378,2.3535,2.3402,2.3353,2.2988,2.1947,2.0662,2.0393,1.9299,1.7989,1.7682,1.7635,1.7581,1.7286,1.6941,1.6647,1.6353,1.6059,1.5784,1.5784,1.5784,1.5784,1.5784,1.5784,1.5784,1.5784,1.5784,1.6204,1.7458,1.8312,1.9048,1.9887,2.0699,2.1084,2.0674,2.0605,2.0206,1.9125,1.798,1.6887,1.582,1.4734,1.4088,1.4088,1.4088,1.4088,1.4088,1.4088,1.4088,1.4088,1.4088,1.4088,1.4088,1.4088,1.4088,1.4088,1.2899,1.2942,1.3997,1.1649,1.1214,1.2328,1.2279,1.2285,1.2413,1.3603,1.4088,1.4088,1.4088,1.4088,1.4088,1.4088,1.4088,1.3913,2.2654,2.1908,2.1109,2.1109,2.1109,2.1109,2.1109,2.1109,2.1109,2.1109,2.1109,2.1109,2.1109,2.1109,2.1109,2.1109,2.1109,2.1109,2.1109,2.1109,2.1109,2.1109,2.1109,2.1109,2.1109,2.1022,2.0982,2.0982,2.0688,2.21,2.4992,2.4804,2.6153,2.873,2.873,2.8564,2.8174,2.6717,2.6717,2.7501,2.6045,2.5434,2.5417,2.5311,2.4602,2.3505,2.2159,2.2041,2.2258,2.1002,2.0735,2.0648,1.9427,1.9013,1.8747,1.7537,1.7139,1.6958,1.6455,1.6206,1.6092,1.5879,1.5784,1.5784,1.5784,1.5784,1.5784,1.5784,1.5784,1.6204,1.7458,1.8555,1.9566,2.0382,2.141,2.1875,2.1133,2.1035,2.0512,1.9152,1.798,1.6887,1.582,1.4734,1.4088,1.4088,1.4088,1.4088,1.4088,1.4088,1.4088,1.4088,1.4088,1.4088,1.4088,1.4088,1.4088,1.4088,1.373,1.3737,1.3997,1.1649,1.1692,1.347,1.1821,1.2035,1.3597,1.3955,1.4088,1.4088,1.4088,1.4088,1.4088,1.4088,1.4088,1.3913,2.2404,2.179,2.1109,2.1109,2.1109,2.1109,2.1109,2.1109,2.1109,2.1109,2.1109,2.1109,2.1109,2.1109,2.1109,2.1109,2.1109,2.1109,2.1109,2.1109,2.1109,2.1109,2.1109,2.1109,2.1109,2.1109,2.1109,2.1109,2.0935,2.2411,2.5312,2.5149,2.6549,2.917,2.8994,2.8779,2.8471,2.7406,2.7501,2.8237,2.733,2.6997,2.6997,2.6997,2.6381,2.5463,2.4407,2.4157,2.4153,2.3017,2.2405,2.2023,2.0976,2.0199,1.9391,1.8435,1.8096,1.792,1.7548,1.7267,1.7036,1.6846,1.6286,1.5784,1.5784,1.5784,1.5784,1.5784,1.5784,1.6339,1.8087,1.9001,1.9915,2.1188,2.2012,2.2275,2.1592,2.1494,2.0783,1.8832,1.8007,1.6924,1.5235,1.4489,1.4088,1.4088,1.4088,1.4088,1.4088,1.4088,1.4088,1.4088,1.4088,1.4088,1.4088,1.4088,1.4088,1.4088,1.4088,1.4088,1.4046,1.2126,1.1821,1.265,1.1686,1.1821,1.2778,1.3737,1.4088,1.4088,1.4088,1.4088,1.4166,1.4573,1.4454,1.399,2.1475,2.1292,2.1109,2.1109,2.1109,2.1109,2.1109,2.1109,2.1109,2.1109,2.1109,2.1109,2.1109,2.1109,2.1109,2.1109,2.1109,2.1109,2.1109,2.1109,2.1109,2.1109,2.1109,2.1109,2.1109,2.1109,2.1109,2.1109,2.1229,2.273,2.5362,2.5481,2.707,2.9609,2.9209,2.9014,2.8955,2.8525,2.835,2.834,2.831,2.8291,2.8291,2.8291,2.8291,2.8291,2.8121,2.7222,2.6037,2.5693,2.4333,2.2771,2.2549,2.1259,1.982,1.979,1.952,1.9287,1.9351,1.8996,1.8517,1.8464,1.7234,1.6001,1.5832,1.5784,1.5784,1.5784,1.5784,1.656,1.9039,1.9497,2.0157,2.2231,2.2568,2.2422,2.2002,2.1943,2.1004,1.8523,1.8071,1.7004,1.4522,1.4186,1.4088,1.4088,1.4088,1.4088,1.4088,1.4088,1.4088,1.4088,1.4088,1.4088,1.4088,1.4088,1.4088,1.4088,1.4088,1.4088,1.4046,1.2851,1.1809,1.0956,1.1895,1.1772,1.1085,1.3215,1.4088,1.4088,1.4088,1.4088,1.4208,1.5296,1.5095,1.4195,2.4401,2.2882,2.1109,2.1109,2.1109,2.1109,2.1109,2.1109,2.1109,2.1109,2.1109,2.1109,2.1109,2.1109,2.1109,2.1109,2.1109,2.1109,2.1109,2.1109,2.1109,2.1109,2.1109,2.1109,2.1109,2.1109,2.1109,2.1109,2.2404,2.4009,2.5861,2.7133,2.8553,3.0059,2.9961,2.9736,2.9404,2.8965,2.8779,2.875,2.8428,2.8291,2.8291,2.8291,2.8291,2.8121,2.6997,2.6381,2.6037,2.5576,2.5943,2.6243,2.4416,2.2877,2.1669,2.1334,2.044,1.9719,2.0542,2.0695,2.0443,1.9834,1.8713,1.7428,1.6116,1.5784,1.5784,1.5784,1.5784,1.656,1.9039,1.9497,2.0243,2.2606,2.2955,2.2808,2.2441,2.2373,2.1725,1.9913,1.8683,1.7427,1.5957,1.4789,1.4088,1.4088,1.4088,1.4088,1.4088,1.4088,1.4088,1.4088,1.4088,1.4088,1.4088,1.4088,1.4088,1.4088,1.4088,1.4088,1.4046,1.2851,1.2681,1.33,1.2589,1.2681,1.3385,1.3913,1.4088,1.4088,1.4088,1.4088,1.4208,1.5296,1.5538,1.5074,2.5672,2.464,2.3427,2.3427,2.2827,2.2285,2.2285,2.2285,2.2285,2.2285,2.2944,2.3124,2.2404,2.3007,2.3124,2.2341,2.1544,2.1109,2.1109,2.1109,2.1109,2.1109,2.1109,2.1109,2.1109,2.1109,2.1481,2.2285,2.3146,2.4848,2.7134,2.7991,2.9155,3.0518,3.0293,3.0078,2.9844,2.9414,2.9228,2.9189,2.876,2.8594,2.8574,2.8369,2.8291,2.8184,2.7447,2.7159,2.7131,2.6861,2.7213,2.7474,2.6318,2.4687,2.3203,2.2996,2.23,2.1668,2.2218,2.2284,2.1953,2.0877,1.9431,1.8033,1.6968,1.6251,1.5784,1.5784,1.5784,1.6379,1.8272,1.9131,2.0079,2.1943,2.2721,2.3023,2.2799,2.2812,2.2251,2.0711,1.9325,1.7773,1.5842,1.4975,1.4546,1.4546,1.4546,1.4442,1.4302,1.4429,1.4419,1.4095,1.4222,1.4229,1.4088,1.4088,1.4088,1.4088,1.4088,1.4088,1.4088,1.347,1.3203,1.3245,1.316,1.3203,1.3294,1.3864,1.4088,1.4088,1.4088,1.4088,1.4292,1.5876,1.6478,1.6134,2.6349,2.6158,2.5976,2.5976,2.4901,2.3993,2.3993,2.3993,2.3993,2.3993,2.52,2.5497,2.4178,2.52,2.5375,2.3752,2.2341,2.1418,2.1109,2.1109,2.1109,2.1109,2.1355,2.1538,2.1538,2.1783,2.2459,2.3574,2.3876,2.5513,2.8417,2.8664,2.9589,3.0869,3.0488,3.0322,3.0293,2.9863,2.9678,2.9639,2.9199,2.8984,2.8877,2.8535,2.8359,2.8291,2.8291,2.8291,2.8291,2.8291,2.8057,2.7816,2.7738,2.6243,2.4552,2.4619,2.4254,2.3823,2.4016,2.3859,2.3341,2.1861,2.0127,1.8537,1.7888,1.6751,1.5784,1.5784,1.5784,1.6204,1.7458,1.8688,1.9898,2.1114,2.2306,2.3091,2.3091,2.3091,2.264,2.1435,1.9965,1.8024,1.5252,1.5008,1.5008,1.5008,1.5008,1.4901,1.4609,1.483,1.4716,1.4175,1.4396,1.4382,1.4088,1.4088,1.4088,1.4088,1.4088,1.4088,1.4088,1.4088,1.3555,1.2674,1.3688,1.3512,1.2674,1.3688,1.4088,1.4088,1.4088,1.4088,1.4377,1.6527,1.7302,1.7001,2.7803,2.6953,2.5976,2.5976,2.5802,2.568,2.568,2.568,2.568,2.568,2.5855,2.5915,2.568,2.5863,2.5375,2.3752,2.3387,2.2654,2.1172,2.1109,2.1109,2.1109,2.2466,2.3263,2.3263,2.4655,2.477,2.3574,2.5016,2.6591,2.8417,2.9903,3.0704,3.0889,3.083,3.0801,3.0771,3.0303,3.0107,3.0078,2.9648,2.9258,2.8916,2.8857,2.8613,2.8291,2.8291,2.8291,2.8291,2.8291,2.8252,2.8144,2.7836,2.664,2.553,2.5958,2.523,2.4377,2.5223,2.5392,2.4946,2.3178,2.1585,2.0022,1.8409,1.6899,1.5784,1.5784,1.5784,1.6204,1.7458,1.8688,1.9898,2.1114,2.2306,2.3091,2.3091,2.3091,2.3028,2.2829,2.0624,1.8024,1.5252,1.5008,1.5008,1.5008,1.5008,1.4988,1.4948,1.4988,1.481,1.4476,1.4496,1.4382,1.4088,1.4088,1.4088,1.4088,1.4088,1.4088,1.4088,1.4088,1.3997,1.3864,1.4046,1.3997,1.3864,1.4039,1.4088,1.4088,1.4088,1.4088,1.4377,1.6527,1.7302,1.7123,2.9658,2.9226,2.8733,2.8733,2.7931,2.7323,2.7323,2.7323,2.7323,2.7323,2.8179,2.8367,2.7443,2.6522,2.6106,2.6236,2.4663,2.327,2.2522,2.1601,2.1544,2.2466,2.3201,2.3993,2.4901,2.5619,2.6106,2.6305,2.7022,2.8179,2.9835,3.0577,3.0889,3.0889,3.0889,3.0889,3.0879,3.0674,3.0586,3.0547,3.0098,2.9805,2.9609,2.9375,2.9014,2.8613,2.8379,2.8291,2.8291,2.8291,2.8291,2.8262,2.8076,2.7453,2.6769,2.6752,2.6141,2.5503,2.5644,2.5693,2.5129,2.2857,2.1632,2.0378,1.7878,1.6669,1.6032,1.5865,1.5784,1.5967,1.6527,1.7677,1.891,2.0079,2.0764,2.1543,2.2916,2.1952,2.0863,2.0141,1.9047,1.7537,1.5643,1.5444,1.5444,1.5444,1.5444,1.5378,1.5211,1.5357,1.5237,1.4783,1.4923,1.479,1.4335,1.4329,1.4249,1.4088,1.4088,1.4088,1.4088,1.4088,1.4088,1.4088,1.4088,1.4088,1.4088,1.4088,1.4088,1.4088,1.4088,1.4454,1.5095,1.6067,1.6396,1.6347]}]]